[[{"header":{"parameterUnit":"m.s-1","parameterCategory":1,"la1":30.6,"la2":29.2853,"lo1":-89.7004,"lo2":-87.6739,"dy":0.0162,"dx":0.0183,"nx":112,"ny":82,"refTime":"2023-08-03T00:00:00:Z","depth":0,"parameterNumber":2,"parameterNumberName":"U-component_of_WINDS"},"data":[0.0,0.0,0.0,0.0,0.0,0.0,0.0,0.0,0.0,0.0,0.0,0.0,0.0,0.0,0.0,0.0,0.0,0.0,0.0,0.0,0.0,0.0,0.0,0.0,0.0,0.0,0.0,0.0,0.0,0.0,0.0,0.0,0.0,0.0,0.0,0.0,0.0,0.0,0.0,0.0,0.0,0.0,0.0,0.0,0.0,0.0,0.0,0.0,0.0,0.0,0.0,0.0,0.0,0.0,0.0,0.0,0.0,0.0,0.0,0.0,0.0,0.0,0.0,0.0,0.0,0.0,0.0,0.0,0.0,0.0,0.0,0.0,0.0,0.0,0.0,0.0,0.0,0.0,0.0,0.0,0.0,0.0,0.0,0.0,0.0,0.0,0.0,0.0,0.0,0.0,-3.5076,-3.5076,-3.5076,-3.4991,-3.4907,-3.4895,-3.4871,-3.4787,0.0,0.0,0.0,0.0,0.0,0.0,0.0,0.0,0.0,0.0,0.0,0.0,0.0,0.0,0.0,0.0,0.0,0.0,0.0,0.0,0.0,0.0,0.0,0.0,0.0,0.0,0.0,0.0,0.0,0.0,0.0,0.0,0.0,0.0,0.0,0.0,0.0,0.0,0.0,0.0,0.0,0.0,0.0,0.0,0.0,0.0,0.0,0.0,0.0,0.0,0.0,0.0,0.0,0.0,0.0,0.0,0.0,0.0,0.0,0.0,0.0,0.0,0.0,0.0,0.0,0.0,0.0,0.0,0.0,0.0,0.0,0.0,0.0,0.0,0.0,0.0,0.0,0.0,0.0,0.0,0.0,0.0,0.0,0.0,0.0,0.0,0.0,0.0,0.0,0.0,0.0,0.0,0.0,0.0,0.0,0.0,0.0,0.0,0.0,0.0,0.0,0.0,0.0,0.0,-3.617,-3.617,-3.617,-3.599,-3.5533,-3.5497,-3.5255,-3.4811,0.0,0.0,0.0,0.0,0.0,0.0,0.0,0.0,0.0,0.0,0.0,0.0,0.0,0.0,0.0,0.0,0.0,0.0,0.0,0.0,0.0,0.0,0.0,0.0,0.0,0.0,0.0,0.0,0.0,0.0,0.0,0.0,0.0,0.0,0.0,0.0,0.0,0.0,0.0,0.0,0.0,0.0,0.0,0.0,0.0,0.0,0.0,0.0,0.0,0.0,0.0,0.0,0.0,0.0,0.0,0.0,0.0,0.0,0.0,0.0,0.0,0.0,0.0,0.0,0.0,0.0,0.0,0.0,0.0,0.0,0.0,0.0,0.0,0.0,0.0,0.0,0.0,0.0,0.0,0.0,0.0,0.0,0.0,0.0,0.0,0.0,0.0,0.0,0.0,0.0,0.0,0.0,0.0,0.0,0.0,0.0,0.0,0.0,0.0,0.0,0.0,0.0,0.0,-3.6411,-3.6411,-3.6411,-3.6411,-3.6314,-3.6062,-3.5785,-3.5521,-3.5268,-3.4943,0.0,0.0,0.0,0.0,0.0,0.0,0.0,0.0,0.0,0.0,0.0,0.0,0.0,0.0,0.0,0.0,0.0,0.0,0.0,0.0,0.0,0.0,0.0,0.0,0.0,0.0,0.0,0.0,0.0,0.0,0.0,0.0,0.0,0.0,0.0,0.0,0.0,0.0,0.0,0.0,0.0,0.0,0.0,0.0,0.0,0.0,0.0,0.0,0.0,0.0,0.0,0.0,0.0,0.0,0.0,0.0,0.0,0.0,0.0,0.0,0.0,0.0,0.0,0.0,0.0,0.0,0.0,0.0,0.0,0.0,0.0,0.0,0.0,0.0,0.0,0.0,0.0,0.0,0.0,0.0,0.0,0.0,0.0,0.0,0.0,0.0,0.0,0.0,0.0,0.0,0.0,0.0,0.0,0.0,0.0,0.0,0.0,0.0,0.0,0.0,0.0,0.0,-3.6771,-3.6771,-3.6771,-3.6771,-3.6723,-3.6603,-3.6218,-3.593,-3.5809,-3.5304,0.0,0.0,0.0,0.0,0.0,0.0,0.0,0.0,0.0,0.0,0.0,0.0,0.0,0.0,0.0,0.0,0.0,0.0,0.0,0.0,0.0,0.0,0.0,0.0,0.0,0.0,0.0,0.0,0.0,0.0,0.0,0.0,0.0,0.0,0.0,0.0,0.0,0.0,0.0,0.0,0.0,0.0,0.0,0.0,0.0,0.0,0.0,0.0,0.0,0.0,0.0,0.0,0.0,0.0,0.0,0.0,0.0,0.0,0.0,0.0,0.0,0.0,0.0,0.0,0.0,0.0,0.0,0.0,0.0,0.0,0.0,0.0,0.0,0.0,0.0,0.0,0.0,0.0,0.0,0.0,0.0,0.0,0.0,0.0,0.0,0.0,0.0,0.0,0.0,0.0,0.0,0.0,0.0,0.0,0.0,0.0,0.0,0.0,0.0,0.0,0.0,0.0,-3.7878,-3.7878,-3.7878,-3.7878,-3.7673,-3.718,-3.7108,-3.6867,-3.6386,-3.5857,0.0,0.0,0.0,0.0,0.0,0.0,0.0,0.0,0.0,0.0,0.0,0.0,0.0,0.0,0.0,0.0,0.0,0.0,0.0,0.0,0.0,0.0,0.0,0.0,0.0,0.0,0.0,0.0,0.0,0.0,0.0,0.0,0.0,0.0,0.0,0.0,0.0,0.0,0.0,0.0,0.0,0.0,0.0,0.0,0.0,0.0,0.0,0.0,0.0,0.0,0.0,0.0,0.0,0.0,0.0,0.0,0.0,0.0,0.0,0.0,0.0,0.0,0.0,0.0,0.0,0.0,0.0,0.0,0.0,0.0,0.0,0.0,0.0,0.0,0.0,0.0,0.0,0.0,0.0,0.0,0.0,0.0,0.0,0.0,0.0,0.0,0.0,0.0,0.0,0.0,0.0,0.0,0.0,0.0,0.0,0.0,0.0,0.0,0.0,0.0,0.0,0.0,-3.7986,-3.7986,-3.7986,-3.7986,-3.7902,-3.7709,-3.7385,-3.7108,-3.6904,0.0,0.0,0.0,0.0,0.0,0.0,0.0,0.0,0.0,0.0,0.0,0.0,0.0,0.0,0.0,0.0,0.0,0.0,0.0,0.0,0.0,0.0,0.0,0.0,0.0,0.0,0.0,0.0,0.0,0.0,0.0,0.0,0.0,0.0,0.0,0.0,0.0,0.0,0.0,0.0,0.0,0.0,0.0,0.0,0.0,0.0,0.0,0.0,0.0,0.0,0.0,0.0,0.0,0.0,0.0,0.0,0.0,0.0,0.0,0.0,0.0,0.0,0.0,0.0,0.0,0.0,0.0,0.0,0.0,0.0,0.0,0.0,0.0,0.0,0.0,0.0,0.0,0.0,0.0,0.0,0.0,0.0,0.0,0.0,0.0,0.0,0.0,0.0,0.0,0.0,0.0,0.0,0.0,0.0,0.0,0.0,0.0,0.0,0.0,0.0,0.0,0.0,-3.7986,-3.7986,-3.7986,-3.7986,-3.7986,-3.7986,-3.7986,-3.7649,-3.7445,-3.7445,0.0,0.0,0.0,0.0,0.0,0.0,0.0,0.0,0.0,0.0,0.0,0.0,0.0,0.0,0.0,0.0,0.0,0.0,0.0,0.0,0.0,0.0,0.0,0.0,0.0,0.0,0.0,0.0,0.0,0.0,0.0,0.0,0.0,0.0,0.0,0.0,0.0,0.0,0.0,0.0,0.0,0.0,0.0,0.0,0.0,0.0,0.0,0.0,0.0,0.0,0.0,0.0,0.0,0.0,0.0,0.0,0.0,0.0,0.0,0.0,0.0,0.0,0.0,0.0,0.0,0.0,0.0,0.0,0.0,0.0,0.0,0.0,0.0,0.0,0.0,0.0,0.0,0.0,0.0,0.0,0.0,0.0,0.0,0.0,0.0,0.0,0.0,0.0,0.0,0.0,0.0,0.0,0.0,0.0,0.0,0.0,0.0,0.0,0.0,0.0,0.0,0.0,-3.7986,-3.7986,-3.7986,-3.7986,-3.7986,-3.7986,-3.7986,-3.7986,-3.7986,0.0,0.0,0.0,0.0,0.0,0.0,0.0,0.0,0.0,0.0,0.0,0.0,0.0,0.0,0.0,0.0,0.0,0.0,0.0,0.0,0.0,0.0,0.0,0.0,0.0,0.0,0.0,0.0,0.0,0.0,0.0,0.0,0.0,0.0,0.0,0.0,0.0,0.0,0.0,0.0,0.0,0.0,0.0,0.0,0.0,0.0,0.0,0.0,0.0,0.0,0.0,0.0,0.0,0.0,0.0,0.0,0.0,0.0,0.0,0.0,0.0,0.0,0.0,0.0,0.0,0.0,0.0,0.0,0.0,0.0,0.0,0.0,0.0,0.0,0.0,0.0,0.0,0.0,0.0,0.0,0.0,0.0,0.0,0.0,0.0,0.0,0.0,0.0,0.0,0.0,0.0,0.0,0.0,0.0,0.0,0.0,0.0,0.0,0.0,0.0,0.0,0.0,0.0,-3.8623,-3.8575,-3.8419,-3.8022,-3.7986,-3.7986,-3.7986,-3.7986,-3.7986,-3.7986,0.0,0.0,0.0,0.0,0.0,0.0,0.0,0.0,0.0,0.0,0.0,0.0,0.0,0.0,0.0,0.0,0.0,0.0,0.0,0.0,0.0,0.0,0.0,0.0,0.0,0.0,0.0,0.0,0.0,0.0,0.0,0.0,0.0,0.0,0.0,0.0,0.0,0.0,0.0,0.0,0.0,0.0,0.0,0.0,0.0,0.0,0.0,0.0,0.0,0.0,0.0,0.0,0.0,0.0,0.0,0.0,0.0,0.0,0.0,0.0,0.0,0.0,0.0,0.0,0.0,0.0,0.0,0.0,0.0,0.0,0.0,0.0,0.0,0.0,0.0,0.0,0.0,0.0,0.0,0.0,0.0,0.0,0.0,0.0,0.0,0.0,0.0,0.0,0.0,0.0,0.0,0.0,0.0,0.0,0.0,0.0,0.0,0.0,0.0,0.0,0.0,0.0,-3.8527,-3.8479,-3.8359,-3.8022,-3.7986,-3.7986,-3.7986,-3.7986,-3.7986,-3.7986,0.0,0.0,0.0,0.0,0.0,0.0,0.0,0.0,0.0,0.0,0.0,0.0,0.0,0.0,0.0,0.0,0.0,0.0,0.0,0.0,0.0,0.0,0.0,0.0,0.0,0.0,0.0,0.0,0.0,0.0,0.0,0.0,0.0,0.0,0.0,0.0,0.0,0.0,0.0,0.0,0.0,0.0,0.0,0.0,0.0,0.0,0.0,0.0,0.0,0.0,0.0,0.0,0.0,0.0,0.0,0.0,0.0,0.0,0.0,0.0,0.0,0.0,0.0,0.0,0.0,0.0,0.0,0.0,0.0,0.0,0.0,0.0,0.0,0.0,0.0,0.0,0.0,0.0,0.0,0.0,0.0,0.0,0.0,0.0,0.0,0.0,0.0,0.0,0.0,0.0,0.0,0.0,0.0,0.0,0.0,0.0,0.0,0.0,0.0,0.0,0.0,0.0,-3.807,-3.8058,-3.8046,-3.7986,-3.7986,-3.7986,-3.7986,-3.7986,-3.7986,-3.7986,0.0,0.0,0.0,0.0,0.0,0.0,0.0,0.0,0.0,0.0,0.0,0.0,0.0,0.0,0.0,0.0,0.0,0.0,0.0,0.0,0.0,0.0,0.0,0.0,0.0,0.0,0.0,0.0,0.0,0.0,0.0,0.0,0.0,0.0,0.0,0.0,0.0,0.0,0.0,0.0,0.0,0.0,0.0,0.0,0.0,0.0,0.0,0.0,0.0,0.0,0.0,0.0,0.0,0.0,0.0,0.0,0.0,0.0,0.0,0.0,-3.2765,-3.2754,0.0,0.0,0.0,0.0,0.0,0.0,0.0,0.0,0.0,0.0,0.0,0.0,0.0,0.0,0.0,0.0,0.0,0.0,0.0,0.0,0.0,0.0,0.0,0.0,0.0,0.0,0.0,0.0,0.0,0.0,0.0,0.0,0.0,0.0,0.0,0.0,0.0,0.0,0.0,0.0,-3.8695,-3.8647,-3.8467,-3.8034,-3.7986,-3.7986,-3.7986,-3.7986,-3.7986,-3.7986,-3.7986,0.0,0.0,0.0,0.0,0.0,0.0,0.0,0.0,0.0,0.0,0.0,0.0,0.0,0.0,0.0,0.0,0.0,0.0,0.0,0.0,0.0,0.0,0.0,0.0,0.0,0.0,0.0,0.0,0.0,0.0,0.0,0.0,0.0,0.0,0.0,0.0,0.0,0.0,0.0,0.0,0.0,0.0,0.0,0.0,0.0,0.0,0.0,0.0,0.0,0.0,0.0,0.0,0.0,0.0,0.0,0.0,0.0,0.0,0.0,-3.3321,-3.3124,0.0,0.0,0.0,0.0,0.0,0.0,0.0,0.0,0.0,0.0,0.0,0.0,0.0,0.0,0.0,0.0,0.0,0.0,0.0,0.0,0.0,0.0,0.0,0.0,0.0,0.0,0.0,0.0,0.0,0.0,0.0,0.0,0.0,0.0,0.0,0.0,0.0,0.0,0.0,0.0,-3.8455,-3.8419,-3.8298,-3.801,-3.7986,-3.7986,-3.7986,-3.7986,-3.7986,-3.7986,-3.7986,0.0,0.0,0.0,0.0,0.0,0.0,0.0,0.0,0.0,0.0,0.0,0.0,0.0,0.0,0.0,0.0,0.0,0.0,0.0,0.0,0.0,0.0,0.0,0.0,0.0,0.0,0.0,0.0,0.0,0.0,0.0,0.0,0.0,0.0,0.0,0.0,0.0,0.0,0.0,0.0,0.0,0.0,0.0,0.0,0.0,0.0,0.0,0.0,0.0,0.0,0.0,0.0,0.0,-3.3278,-3.353,-3.3923,-3.3923,-3.4141,-3.448,-3.3672,-3.3322,-3.3322,-3.3322,0.0,0.0,0.0,0.0,0.0,0.0,0.0,0.0,0.0,0.0,0.0,0.0,0.0,0.0,0.0,0.0,0.0,0.0,0.0,0.0,0.0,0.0,-3.7998,-3.8106,-3.8046,-3.8023,-3.8063,0.0,0.0,0.0,0.0,0.0,0.0,0.0,0.0,0.0,0.0,0.0,-3.8118,-3.813,-3.8166,-3.825,-3.8262,-3.8262,-3.8262,-3.8262,-3.8262,-3.8262,-3.8262,-3.8226,0.0,0.0,0.0,0.0,0.0,0.0,0.0,0.0,0.0,0.0,0.0,0.0,0.0,0.0,0.0,0.0,0.0,0.0,0.0,0.0,0.0,0.0,0.0,0.0,0.0,0.0,0.0,0.0,0.0,0.0,0.0,0.0,-3.0144,-3.0209,0.0,0.0,0.0,0.0,0.0,0.0,0.0,0.0,0.0,0.0,0.0,0.0,0.0,-3.2962,-3.2962,-3.3453,-3.3704,-3.3704,-3.413,-3.4371,-3.4425,-3.4425,-3.4458,-3.4513,-3.4382,0.0,-3.4338,-3.4338,0.0,0.0,0.0,0.0,0.0,0.0,0.0,0.0,0.0,0.0,0.0,0.0,0.0,0.0,0.0,0.0,0.0,0.0,0.0,0.0,0.0,0.0,-3.8106,-3.8587,-3.8334,-3.8142,-3.8587,-3.8701,-3.8707,-3.8707,-3.8767,-3.8815,0.0,0.0,0.0,0.0,0.0,0.0,-3.8647,-3.8707,-3.8888,-3.9345,-3.9393,-3.9393,-3.9393,-3.9393,-3.9393,-3.9393,-3.9393,-3.9188,-3.8731,-3.8707,0.0,0.0,0.0,0.0,0.0,0.0,0.0,0.0,0.0,0.0,0.0,0.0,0.0,0.0,0.0,0.0,0.0,0.0,0.0,0.0,0.0,0.0,0.0,0.0,0.0,0.0,0.0,0.0,0.0,-3.0461,-3.0701,-3.0974,-3.1007,-3.1083,0.0,0.0,0.0,0.0,0.0,0.0,0.0,0.0,0.0,-3.2765,-3.3224,-3.3475,-3.3475,-3.3956,-3.4207,-3.4207,-3.4425,-3.4524,-3.4524,-3.4524,-3.4524,-3.4524,-3.4524,-3.4524,-3.4524,-3.4524,-3.4524,-3.4524,0.0,0.0,0.0,0.0,-3.5664,-3.5927,-3.6254,-3.6526,-3.6808,-3.7024,0.0,0.0,0.0,0.0,0.0,0.0,0.0,-3.7986,-3.7986,-3.7986,-3.8046,-3.8286,-3.8166,-3.8046,-3.8298,-3.8346,-3.8346,-3.8346,-3.8346,-3.8443,-3.8767,-3.8611,0.0,0.0,0.0,-3.8984,-3.9224,-3.926,-3.9345,-3.9585,-3.9609,-3.9609,-3.9609,-3.9609,-3.9609,-3.9609,-3.9609,-3.9501,-3.9272,-3.8972,-3.8707,0.0,0.0,0.0,0.0,0.0,0.0,0.0,0.0,0.0,0.0,0.0,0.0,0.0,0.0,0.0,0.0,0.0,0.0,0.0,0.0,0.0,0.0,0.0,0.0,0.0,0.0,0.0,0.0,-3.0745,-3.1063,-3.0949,-3.1362,-3.1516,0.0,0.0,0.0,0.0,0.0,0.0,-3.2558,-3.2994,-3.331,-3.331,-3.3726,-3.3977,-3.3977,-3.4349,-3.4524,-3.4524,-3.4524,-3.4524,-3.4524,-3.4524,-3.4524,-3.4524,-3.4524,-3.4579,-3.4736,-3.4736,-3.4736,-3.4791,-3.5378,-3.5653,-3.5708,-3.6157,-3.6375,-3.6538,-3.697,-3.7185,-3.7346,-3.7346,-3.7601,-3.7933,-3.7453,0.0,0.0,0.0,0.0,-3.7986,-3.7986,-3.7986,-3.8022,-3.8166,-3.819,-3.8238,-3.8371,-3.8395,-3.8359,-3.8214,-3.819,-3.8371,-3.8924,-3.902,0.0,-3.9549,-3.9609,-3.9657,-3.9789,-3.9813,-3.9862,-3.9994,-4.0006,-4.0006,-4.0006,-4.0006,-4.0006,-4.0006,-4.0006,-3.9946,-3.9813,-3.9429,-3.9092,-3.8827,0.0,0.0,0.0,0.0,0.0,0.0,0.0,0.0,0.0,0.0,0.0,0.0,0.0,0.0,0.0,0.0,0.0,0.0,0.0,0.0,0.0,0.0,0.0,0.0,0.0,0.0,0.0,0.0,0.0,-2.9398,-3.0619,0.0,0.0,0.0,0.0,-3.2339,-3.2829,-3.3081,-3.3081,-3.3497,-3.3759,-3.3759,-3.4229,-3.448,-3.448,-3.4513,-3.4524,-3.4524,-3.4524,-3.4524,-3.4524,-3.4524,-3.4524,-3.4524,-3.4524,-3.4847,-3.5378,-3.5378,-3.5378,-3.5422,-3.6048,-3.6266,-3.6266,-3.6266,-3.6592,-3.7078,-3.7078,-3.7507,-3.7933,-3.7933,-3.7986,-3.7974,-3.7986,-3.7986,0.0,0.0,-3.7986,-3.7986,-3.7986,-3.7986,-3.8118,-3.8647,-3.8779,-3.8912,-3.9417,-3.9525,-3.9381,-3.8876,-3.8779,-3.8948,-3.9477,0.0,-3.9573,-3.9597,-3.9609,-3.9789,-4.0294,-4.0355,-4.0547,-4.1052,-4.11,-4.11,-4.11,-4.11,-4.11,-4.11,-4.11,-4.0872,-4.0379,-4.0331,-3.9838,-3.8839,-3.8791,0.0,0.0,0.0,0.0,0.0,0.0,0.0,0.0,0.0,0.0,0.0,0.0,0.0,0.0,0.0,0.0,0.0,0.0,0.0,0.0,0.0,0.0,0.0,0.0,0.0,0.0,0.0,0.0,-3.0774,-3.1259,0.0,-3.1661,-3.2117,-3.2503,-3.2851,-3.3268,-3.3541,-3.3541,-3.3999,-3.4261,-3.4261,-3.4436,-3.4524,-3.4524,-3.4524,-3.4524,-3.4468,-3.4829,-3.496,-3.4971,-3.531,-3.5452,-3.5509,-3.5887,-3.6171,-3.6443,-3.7219,-3.6895,-3.6036,-3.6592,-3.6808,-3.6862,-3.7227,-3.7507,-3.7667,-3.7667,-3.7826,-3.7986,-3.7986,-3.8226,-3.8515,-3.8515,-3.8755,-3.9032,-3.9032,-3.9032,-3.9032,-3.9032,-3.9032,-3.908,-3.9272,-3.932,-3.9477,-4.0006,-4.0114,-4.0162,-4.0306,-3.9789,-3.9597,-4.0475,-4.0619,-4.0848,-4.1533,-4.1629,-4.1701,-4.1894,-4.1617,-4.1485,-4.1665,-4.1389,-4.1184,-4.1184,-4.1184,-4.1184,-4.1184,-4.1184,-4.11,-4.0908,-4.0571,-4.0222,-3.9838,-3.9164,-3.8719,0.0,0.0,0.0,0.0,0.0,0.0,0.0,0.0,0.0,0.0,0.0,0.0,0.0,0.0,0.0,0.0,0.0,0.0,0.0,0.0,0.0,0.0,0.0,0.0,0.0,0.0,-3.1414,-3.0826,-3.1411,-3.1908,-3.1961,-3.2497,-3.2984,-3.3289,-3.3759,-3.4043,-3.4043,-3.4349,-3.4524,-3.4524,-3.4676,-3.4753,-3.4753,-3.4928,-3.5015,-3.5015,-3.5321,-3.5463,-3.5474,-3.5812,-3.6129,-3.6302,-3.6753,-3.7132,-3.7599,-3.8391,-3.8216,-3.7442,-3.7769,-3.7932,-3.7987,-3.8365,-3.8527,-3.8527,-3.8527,-3.8527,-3.8527,-3.8527,-3.8779,-3.908,-3.908,-3.9333,-3.9609,-3.9609,-3.9609,-3.9609,-3.9609,-3.9609,-3.9657,-3.9826,-3.9874,-4.0018,-4.0547,-4.0667,-4.0763,-4.1112,-4.0619,-4.0367,-4.1064,-4.1184,-4.1425,-4.2122,-4.223,-4.223,-4.223,-4.193,-4.1701,-4.1701,-4.1389,-4.1184,-4.1184,-4.1184,-4.1184,-4.1184,-4.1184,-4.1184,-4.1184,-4.0848,-4.0571,-4.0391,-3.9357,-3.8773,-3.8809,0.0,0.0,0.0,0.0,0.0,0.0,0.0,0.0,0.0,0.0,0.0,0.0,0.0,0.0,0.0,0.0,0.0,0.0,0.0,0.0,0.0,0.0,0.0,-2.9345,-3.0578,-3.1013,-2.9323,-3.1074,-3.2079,-3.12,-3.2739,-3.3803,-3.3814,-3.4261,-3.4534,-3.4545,-3.4545,-3.4556,-3.4567,-3.5004,-3.5223,-3.5223,-3.5714,-3.6023,-3.6023,-3.6034,-3.6045,-3.6045,-3.6067,-3.6404,-3.6959,-3.7016,-3.7645,-3.8774,-3.8774,-3.9121,-3.9657,-3.9621,-3.9609,-3.9609,-3.9609,-3.9609,-3.9609,-3.9609,-3.9609,-3.9609,-3.9609,-3.9621,-3.9633,-3.9633,-3.9645,-3.9657,-3.9657,-3.9657,-3.9657,-3.9657,-3.9657,-3.9789,-4.0294,-4.0415,-4.0559,-4.11,-4.1208,-4.1208,-4.1208,-4.1208,-4.1208,-4.1208,-4.1208,-4.122,-4.1232,-4.1232,0.0,-4.1232,-4.122,-4.1208,-4.1208,-4.1196,-4.1184,-4.1184,-4.1184,-4.1184,-4.1184,-4.1184,-4.1184,-4.1184,-4.1184,-4.0932,-4.0403,-3.9381,-3.8779,-3.8784,0.0,0.0,0.0,0.0,0.0,0.0,0.0,0.0,0.0,0.0,0.0,0.0,0.0,0.0,0.0,0.0,0.0,0.0,0.0,0.0,0.0,0.0,-3.0328,-2.925,-3.0874,-3.1527,-2.9745,-3.155,-3.2684,-3.2117,-3.3126,-3.3945,-3.4294,-3.4447,-3.4666,-3.5004,-3.5026,-3.519,-3.5561,-3.5692,-3.5758,-3.5758,-3.5958,-3.6023,-3.5976,-3.6326,-3.6725,-3.7183,-3.748,-3.8002,-3.8649,-3.9105,-3.9499,-3.98,-4.0328,-4.0626,-4.0667,-3.991,-3.9609,-3.9609,-3.9609,-3.9609,-3.9609,-3.9609,-3.9609,-3.9609,-3.9609,-3.9862,-4.0186,-4.0186,-4.0439,-4.0751,-4.0751,-4.0751,-4.0751,-4.0751,-4.0751,-4.0787,-4.0932,-4.0968,-4.1112,-4.1641,-4.1761,-4.1761,-4.1761,-4.1761,-4.1761,-4.1761,-4.1761,-4.1882,-4.2325,-4.2386,-4.2386,-4.2386,-4.199,-4.1761,-4.1761,-4.1413,-4.1184,-4.1184,-4.1184,-4.1184,-4.1184,-4.1184,-4.1184,-4.1184,-4.1184,-4.0932,-4.0403,-3.9615,-3.8887,0.0,0.0,0.0,0.0,0.0,0.0,0.0,0.0,0.0,0.0,0.0,0.0,0.0,0.0,0.0,0.0,0.0,0.0,0.0,0.0,0.0,0.0,-3.0213,-3.0496,-3.0011,-3.1,-3.1636,-3.1164,-3.2135,-3.2856,-3.2959,-3.3636,-3.4294,-3.4775,-3.4807,-3.5015,-3.5496,-3.5528,-3.5659,-3.6012,-3.6162,-3.6271,-3.6271,-3.6468,-3.6732,-3.6979,-3.7266,-3.7796,-3.8639,-3.873,-3.9174,-4.001,-4.0153,-4.0351,-4.0653,-4.1057,-4.1184,-4.1124,0.0,0.0,0.0,0.0,-4.027,-4.027,-4.027,-4.027,-4.027,-4.027,-4.0475,-4.0727,-4.0727,-4.0944,-4.1184,-4.1184,-4.1184,-4.1184,-4.1184,-4.1184,-4.1184,-4.1184,-4.1184,-4.1268,-4.1581,-4.1641,-4.1641,-4.1641,-4.1641,0.0,-4.1641,-4.1641,-4.1749,-4.205,-4.2157,-4.2157,-4.2157,-4.1834,-4.1641,-4.1641,-4.1365,-4.1184,-4.1184,-4.1184,0.0,0.0,0.0,-4.1184,-4.1184,-4.1184,0.0,0.0,0.0,-3.924,-3.8962,-3.7851,0.0,0.0,-3.5368,-3.446,0.0,0.0,0.0,0.0,0.0,0.0,0.0,0.0,0.0,0.0,0.0,0.0,0.0,0.0,0.0,0.0,-3.0673,-3.1029,-3.1082,-3.1156,-3.1581,-3.276,-3.2722,-3.2899,-3.3649,-3.4261,-3.4764,-3.5179,-3.5266,-3.5517,-3.6078,-3.61,0.0,0.0,0.0,-3.6883,-3.6937,-3.7341,-3.7852,-3.8334,-3.8334,-3.898,-4.0183,-3.9675,-4.0126,-4.1176,-4.0716,-4.0819,-4.1365,-4.1365,-4.1365,-4.1353,-4.1232,-4.1184,-4.1184,-4.1184,-4.1184,-4.1184,-4.1184,0.0,0.0,-4.1184,-4.1184,-4.1184,-4.1184,-4.1184,-4.1184,-4.1184,-4.1184,-4.1184,-4.1184,-4.1184,-4.1184,-4.1184,-4.1184,-4.1184,-4.1184,-4.1232,-4.1268,-4.1268,-4.1317,-4.1365,-4.1365,-4.1256,-4.1184,-4.1184,-4.1184,-4.1184,-4.1184,-4.1184,-4.1184,-4.1184,-4.1184,0.0,-4.1184,-4.1184,-4.1184,-4.1184,-4.1184,-4.1184,-4.1184,-4.1184,-4.1184,-4.1184,-4.0072,-3.9783,-4.0263,-3.8571,-3.7805,-3.7722,-3.6207,-3.5179,0.0,0.0,0.0,0.0,0.0,0.0,0.0,0.0,0.0,0.0,0.0,0.0,0.0,0.0,0.0,-2.8868,-2.9769,-3.0675,-3.105,-3.1712,-3.1965,-3.1548,-3.3056,-3.3858,-3.3275,-3.4334,-3.5113,-3.5201,-3.5583,-3.6042,-3.6533,-3.6555,-3.6904,-3.7669,-3.7789,-3.8018,-3.8423,-3.851,-3.8616,-3.8678,-3.8678,0.0,-4.0663,-4.0571,-4.1238,-4.2472,-4.2317,-4.2388,-4.2518,-4.2518,-4.2518,-4.2375,-4.1521,-4.1184,-4.1184,-4.1184,-4.1184,-4.1184,-4.1184,-4.1184,-4.1184,-4.1184,-4.1184,-4.1184,-4.1184,-4.1184,0.0,-4.1184,-4.1184,-4.1184,-4.1184,-4.1184,-4.1184,-4.1184,-4.1184,-4.1184,-4.1184,-4.1521,-4.1822,-4.1822,-4.2217,-4.2518,-4.2518,-4.1749,-4.1184,-4.1184,-4.1184,-4.1184,-4.1184,-4.1184,-4.1184,-4.1184,-4.1184,-4.1184,-4.1184,-4.1184,-4.1184,-4.1184,-4.1184,-4.1184,-4.1184,-4.1184,-4.1184,-4.1184,-4.0469,-3.9935,-3.9694,-3.833,-3.7437,-3.705,-3.635,-3.5759,0.0,0.0,0.0,0.0,0.0,0.0,0.0,0.0,0.0,0.0,0.0,-2.9542,0.0,0.0,-2.9119,-2.938,-3.0173,-3.1157,-3.2284,-3.3038,-3.3298,-3.284,-3.3611,-3.4183,-3.415,-3.5002,-3.5692,-3.5932,-3.6184,-3.6642,-3.7363,-3.7396,-3.7724,-3.8455,-3.8466,-3.8586,-3.8775,-3.8775,-3.8963,-3.9265,-3.9639,-4.0445,-4.1672,-4.1721,-4.229,-4.312,-4.2868,-4.2819,-4.2819,-4.2819,-4.2819,-4.2771,-4.2241,-4.1978,-4.1978,-4.1978,-4.1978,-4.1978,-4.1978,-4.1978,-4.1978,-4.1978,-4.1978,-4.1978,-4.1978,-4.1978,-4.1978,-4.1978,-4.1978,-4.1978,-4.1978,-4.1978,-4.1978,-4.1978,-4.1978,-4.1978,-4.1978,-4.2241,-4.2422,-4.2422,-4.2639,-4.2819,-4.2819,-4.2386,-4.1978,-4.1978,-4.1978,-4.1882,-4.1605,-4.1581,-4.1473,-4.122,-4.1184,-4.1184,-4.1184,-4.1184,-4.1184,-4.1184,-4.1184,-4.1184,-4.1184,-4.1184,-4.1184,-4.1184,-4.0251,-3.9779,-3.9823,-3.8596,-3.7886,-3.7692,-3.7163,-3.6296,0.0,0.0,0.0,0.0,0.0,0.0,0.0,0.0,-2.9134,-2.9303,-2.9426,-2.9376,-2.8972,-2.8739,-2.9137,-3.0525,-3.1024,-3.1866,-3.3557,-3.4292,-3.4698,-3.4797,-3.4422,-3.4453,-3.5285,-3.5812,-3.6304,-3.6795,-3.6915,-3.7341,-3.8204,-3.8248,-3.8477,-3.8958,-3.8969,-3.9023,-3.9122,-3.9122,-3.9363,-3.9929,-4.0553,-4.1441,-4.2494,-4.2768,-4.3168,-4.3649,-4.3241,-4.3072,-4.3072,-4.3072,-4.3072,-4.3072,-4.3072,-4.3072,-4.3048,-4.2891,-4.2819,-4.2819,-4.2819,-4.2819,-4.2819,-4.2819,-4.2819,-4.2819,-4.2819,-4.2819,-4.2819,-4.2819,-4.2819,-4.2819,-4.2819,-4.2819,-4.2819,-4.2819,-4.2819,-4.2819,-4.2819,-4.2891,-4.2964,-4.2964,-4.3,-4.3072,-4.3072,-4.3072,-4.3,-4.2855,-4.2819,-4.2663,-4.2241,-4.2181,-4.1966,-4.1533,-4.1485,-4.1449,-4.1341,-4.1341,-4.1293,-4.1196,-4.1184,-4.1184,-4.1184,-4.1184,-4.1184,-4.1184,-4.0065,-3.9733,-4.0178,-3.8925,-3.8331,-3.843,-3.7725,-3.6686,-3.1618,-3.0515,0.0,-3.1105,-2.9164,-2.7638,0.0,0.0,-2.9303,-3.0109,-3.0548,-3.0777,-3.0818,-3.0067,-3.0039,-3.1888,-3.1943,-3.2221,-3.3691,-3.459,-3.5299,-3.5758,-3.5395,-3.5272,-3.5834,-3.6326,-3.6806,-3.7265,-3.7702,-3.8182,-3.8655,-3.8688,-3.8969,-3.9513,-3.9535,-3.9743,-4.0115,-4.0115,-4.018,-4.0245,-4.0944,-4.1606,-4.2328,-4.2974,-4.3621,-4.4189,-4.4129,-4.4105,-4.4105,-4.4105,-4.4105,-4.4105,-4.4105,-4.4105,-4.3997,-4.3108,-4.2819,-4.2819,-4.2819,-4.2819,-4.2819,-4.2819,-4.2819,-4.2819,-4.2819,-4.2819,-4.2819,-4.2819,-4.2819,-4.2819,-4.2819,-4.2819,-4.2819,-4.2819,-4.2819,-4.2819,-4.2819,-4.3108,-4.3433,-4.3433,-4.383,-4.4105,-4.4105,-4.4105,-4.3854,-4.2904,-4.2819,-4.2795,-4.2747,-4.2735,-4.2711,-4.2651,-4.2651,-4.2458,-4.193,-4.1882,-4.1677,-4.122,-4.1184,-4.1184,-4.1184,-4.1184,-4.1184,-4.1184,-4.0449,-4.0118,-4.0178,-3.892,-3.8297,-3.8325,-3.7281,-3.6513,-3.1618,0.0,0.0,0.0,-2.9858,-2.9175,-3.0588,-3.0569,-3.0336,-3.0674,-3.0708,-3.0775,-3.0976,-3.072,-3.0824,0.0,-3.2596,-3.3209,-3.3823,-3.4898,-3.5834,-3.6326,-3.6205,-3.6151,-3.6369,-3.7068,-3.7593,-3.7789,-3.8248,-3.8739,-3.922,-3.9253,-3.9471,-3.9963,-4.0038,-4.0072,-4.0279,-4.0279,-4.0474,-4.0864,-4.155,-4.2241,-4.2874,-4.3576,-4.4025,-4.4285,-4.4285,-4.4285,-4.4285,-4.4285,-4.4285,-4.4285,-4.4285,-4.4285,-4.4237,-4.3854,-4.3685,-4.3685,-4.3685,-4.3685,-4.3685,-4.3685,-4.3685,-4.3685,-4.3685,-4.3685,-4.3685,-4.3685,-4.3685,-4.3685,-4.3685,-4.3685,-4.3685,-4.3685,-4.3685,-4.3685,-4.3685,-4.3854,-4.3998,-4.3998,-4.4129,-4.4285,-4.4285,-4.4285,-4.4141,-4.3758,-4.3685,-4.3565,-4.3241,-4.3192,-4.3084,-4.2855,-4.2819,-4.2735,-4.2506,-4.2205,-4.1882,-4.1653,-4.1353,-4.1184,-4.1184,-4.081,-4.0624,-4.0624,-3.9592,-3.9076,-3.9066,-3.8243,-3.7797,-3.7797,-3.7292,-3.6856,-3.1618,0.0,0.0,-3.0703,-3.038,-3.0203,-3.082,-3.1043,-3.119,-3.1487,-3.1283,-3.1156,-3.1706,-3.1523,-3.1592,-3.2385,-3.3309,-3.407,-3.4429,-3.5449,-3.6347,-3.6828,-3.7003,-3.709,-3.709,-3.7702,-3.8215,-3.8488,-3.8827,-3.9242,-3.9786,-3.9808,-4.0037,-4.0582,-4.0409,-4.0409,-4.0604,-4.0409,-4.0669,-4.1304,-4.1986,-4.2673,-4.3314,-4.3962,-4.4285,-4.4285,-4.4285,-4.4285,-4.4285,-4.4285,-4.4285,-4.4285,-4.4285,-4.4285,-4.4285,-4.4285,-4.4285,-4.4285,-4.4285,-4.4285,-4.4285,-4.4285,-4.4285,-4.4285,-4.4285,-4.4285,-4.4285,-4.4285,-4.4285,-4.4285,-4.4285,-4.4285,-4.4285,-4.4285,-4.4285,-4.4285,-4.4285,-4.4285,-4.4285,-4.4285,-4.4285,-4.4285,-4.4285,-4.4285,-4.4285,-4.4285,-4.4285,-4.4141,-4.3794,-4.3746,-4.3601,-4.3241,-4.3192,-4.3132,-4.2976,-4.2554,-4.2193,-4.1978,-4.1473,-4.1184,-4.1184,-4.0542,-4.0173,-4.0176,-3.8945,-3.8325,-3.8325,-3.7714,-3.7374,-3.7374,-3.7374,-3.7199,0.0,0.0,-3.0599,-3.1362,-3.0359,-2.9688,-3.1875,-3.1709,-3.1444,-3.278,-3.2639,-3.2627,-3.3562,-3.2636,-3.2369,-3.411,-3.4122,-3.436,-3.5762,-3.6358,-3.6839,-3.7298,-3.7778,-3.8062,0.0,-3.8084,-3.8499,-3.9502,-3.959,-3.9808,-4.0225,-4.0257,-4.0582,-4.124,-4.0669,-4.0593,-4.124,-4.0593,-4.0669,-4.1304,-4.1986,-4.2673,-4.3314,-4.3962,-4.4285,-4.4285,-4.4285,-4.4285,-4.4285,-4.4285,-4.4285,-4.4285,-4.4285,-4.4285,-4.4285,-4.4285,-4.4285,-4.4285,-4.4285,-4.4285,-4.4285,-4.4285,-4.4285,-4.4285,-4.4285,-4.4285,-4.4285,-4.4285,-4.4285,-4.4285,-4.4285,-4.4285,-4.4285,-4.4285,-4.4285,-4.4285,-4.4285,-4.4285,-4.4285,-4.4285,-4.4285,-4.4285,-4.4285,-4.4285,-4.4285,-4.4285,-4.4285,-4.4273,-4.4261,-4.4261,-4.4261,-4.4237,-4.4237,-4.4021,-4.3529,-4.3024,-4.2578,-4.2002,-4.1473,-4.1184,-4.1184,-4.0542,-4.0177,-4.0181,-3.8949,-3.8325,-3.8325,-3.7714,-3.7374,-3.7374,-3.7374,-3.7374,-3.1618,0.0,-3.0443,-3.0754,-3.038,-3.0234,-3.1275,-3.1998,-3.2459,-3.2595,-3.3251,-3.3695,-3.3404,-3.3487,-3.3593,-3.3582,-3.455,-3.5236,-3.5083,-3.6275,-3.721,-3.7352,-3.7811,0.0,0.0,0.0,0.0,-3.959,-3.9918,-4.0105,-4.0268,-4.0279,-4.0409,-4.0604,-4.0409,-4.0409,-4.0604,-4.0853,-4.1304,-4.1986,-4.3063,-4.3776,-4.3962,-4.4223,-4.4285,-4.4285,-4.4285,-4.4285,-4.4285,-4.4285,-4.4285,-4.4285,-4.4285,-4.4285,-4.4285,-4.4285,-4.4285,-4.4285,-4.4285,-4.4285,-4.4285,-4.4285,-4.4285,-4.4285,-4.4285,-4.4285,-4.4285,-4.4285,-4.4285,-4.4285,-4.4285,-4.4285,-4.4285,-4.4285,-4.4285,-4.4285,-4.4285,-4.4285,-4.4285,-4.4285,-4.4285,-4.4285,-4.4285,-4.4285,-4.4285,-4.4285,-4.4285,-4.4285,-4.4285,-4.4285,-4.4285,-4.4285,-4.4285,-4.4213,-4.4021,-4.3265,-4.2747,-4.2544,-4.1691,-4.1184,-4.1184,-4.0542,-4.0001,-3.9587,-3.8772,-3.8089,-3.7714,-3.7528,-3.7374,-3.7374,-3.7374,-3.7374,-3.1618,-3.1208,-3.0847,-3.0847,-3.0986,-3.1231,-3.1731,-3.2588,-3.3291,-3.3206,-3.3894,-3.43,-3.3706,-3.411,-3.4343,-3.3919,-3.5075,-3.5845,-3.5398,-3.6513,-3.744,-3.7614,-3.8062,-3.8554,0.0,0.0,0.0,-3.9874,-4.0105,-4.0279,-4.0279,-4.0539,-4.0669,-4.0669,-4.0669,-4.0669,-4.0669,-4.1046,-4.1742,-4.2673,-4.3764,-4.4285,-4.4285,-4.4285,-4.4285,-4.4285,-4.4285,-4.4285,-4.4285,-4.4285,-4.4285,-4.4285,-4.4285,-4.4285,-4.4285,-4.4285,-4.4285,-4.4285,-4.4285,-4.4285,-4.4285,-4.4285,-4.4285,-4.4285,-4.4285,-4.4285,-4.4285,-4.4285,-4.4285,-4.4285,-4.4285,-4.4285,-4.4285,-4.4285,-4.4285,-4.4285,-4.4285,-4.4285,-4.4285,-4.4285,-4.4285,-4.4285,-4.4285,-4.4285,-4.4285,-4.4285,-4.4285,-4.4285,-4.4285,-4.4285,-4.4285,-4.4285,-4.4285,-4.4285,-4.4285,-4.3298,-4.2783,-4.3011,-4.16,-4.0985,-4.1453,-4.0437,-3.9779,-3.962,-3.8979,-3.847,-3.8107,-3.8111,-3.7981,-3.7747,-3.7976,-3.7856,-3.1618,-3.1618,-3.1629,-3.16,-3.2022,-3.2514,-3.3048,-3.3464,-3.3934,-3.4425,-3.4524,-3.4524,0.0,0.0,-3.4676,-3.5135,-3.5638,-3.614,-3.6631,-3.709,-3.756,0.0,0.0,0.0,0.0,0.0,0.0,-4.0279,0.0,-4.0279,-4.0279,-4.0917,-4.1304,-4.1251,-4.1304,-4.1304,-4.1304,-4.1368,-4.2061,-4.3389,-4.4025,-4.4285,-4.4285,-4.4285,-4.4285,-4.4285,-4.4285,-4.4285,-4.4285,-4.4285,-4.4285,-4.4285,-4.4285,-4.4285,-4.4285,-4.4285,-4.4347,-4.4347,-4.4347,-4.4285,-4.4285,-4.4285,-4.4285,-4.4285,-4.4285,-4.4285,-4.4285,-4.4285,-4.4285,-4.4285,-4.4285,-4.4285,-4.4285,-4.4285,-4.4347,-4.4347,-4.4285,-4.4347,-4.4347,-4.4285,-4.4285,-4.4285,-4.4285,-4.4285,-4.4285,-4.4285,-4.4285,-4.4285,-4.4285,-4.4285,-4.4285,-4.4285,-4.4285,-4.4285,-4.4285,-4.3165,-4.2761,-4.3421,-4.1317,-4.058,-4.1844,-4.0287,-3.9625,-4.0158,-3.9651,-3.9356,-3.9285,-3.9323,-3.8971,-3.8347,-3.9001,-3.8645,-3.1618,-3.1618,-3.1717,-3.2099,-3.2285,-3.2601,-3.342,-3.3704,-3.3934,-3.4425,-3.4524,-3.4524,0.0,0.0,0.0,-3.5135,-3.5638,0.0,-3.6631,-3.709,0.0,-3.8051,0.0,-3.9023,-3.9568,-3.9995,0.0,0.0,-4.0279,-4.0279,-4.0279,-4.0917,-4.1046,-4.0604,-4.1046,-4.1304,-4.1304,-4.2316,-4.32,-4.4037,-4.4223,-4.4285,-4.4285,-4.4285,-4.4285,-4.4285,-4.4285,-4.4285,-4.4285,-4.4285,-4.4285,-4.4285,-4.4285,-4.4285,-4.4285,-4.4285,-4.4755,-4.5294,-4.4582,-4.4285,-4.4285,-4.4285,-4.4285,-4.4285,-4.4285,-4.4285,-4.4285,-4.4285,-4.4285,-4.4285,-4.4285,-4.4285,-4.4285,-4.4285,-4.4878,-4.5233,-4.4458,-4.4878,-4.5172,-4.447,-4.4285,-4.4285,-4.4285,-4.4285,-4.4285,-4.4285,-4.4285,-4.4285,-4.4285,-4.4285,-4.4285,-4.4285,-4.4285,-4.4285,-4.4285,-4.3165,-4.2579,-4.2716,-4.1326,-4.0502,-4.0499,-4.0515,-4.017,-3.9532,-3.9849,-3.9755,-3.93,-3.9322,-3.9203,-3.9072,-3.9249,-3.9131,-3.1863,-3.1772,-3.1749,-3.2263,-3.2536,-3.2874,-3.3628,-3.3956,-3.4196,-3.4469,-3.4524,0.0,0.0,0.0,0.0,0.0,0.0,0.0,-3.6631,-3.709,-3.7636,0.0,-3.8674,0.0,-3.9874,-4.0115,-4.0279,0.0,-4.0279,-4.0409,-4.0723,-4.1357,-4.1421,-4.0734,-4.1678,-4.2189,-4.2189,-4.2937,-4.3639,-4.4285,-4.4285,-4.4285,-4.4285,-4.4285,-4.4285,-4.4285,-4.4285,-4.4285,-4.4285,-4.4285,-4.4285,-4.4347,-4.4767,-4.4939,-4.5,-4.5416,-4.5949,-4.6238,-4.5294,-4.4939,-4.4878,-4.447,-4.4285,-4.4285,-4.4285,-4.4285,-4.4285,-4.4285,-4.4644,-4.489,-4.4409,-4.4644,-4.4828,-4.4409,-4.4705,-4.5,-4.4397,-4.4767,-4.4939,-4.4409,-4.4285,-4.4285,-4.4285,-4.4285,-4.4285,-4.4285,-4.4285,-4.4285,-4.4285,-4.4285,-4.4285,-4.4285,-4.4285,-4.4285,-4.4285,-4.344,-4.2954,-4.3262,-4.1599,-4.0819,-4.1071,-4.0634,-4.0139,-3.9593,-4.0188,-4.0223,-3.9674,-3.9978,-4.0001,-3.9708,-4.0001,-3.9837,-3.2269,-3.207,-3.1848,-3.235,-3.2873,-3.3343,-3.3781,-3.4218,-3.4524,-3.4524,0.0,-3.4524,-3.4524,-3.4524,-3.4698,-3.5325,0.0,-3.622,-3.6945,-3.7243,-3.7796,-3.878,-3.8963,-3.9272,-4.0181,-4.0409,-4.0409,-4.0409,-4.0409,-4.0669,-4.124,-4.205,-4.2177,-4.1561,-4.2633,-4.3189,-4.3314,-4.3389,-4.3701,-4.4285,-4.4285,-4.4285,-4.4285,-4.4285,-4.4285,-4.4285,-4.4285,-4.4285,-4.4285,-4.4285,-4.4285,-4.4409,-4.5416,-4.5768,-4.5889,-4.6849,-4.7265,-4.7252,-4.6311,-4.607,-4.601,-4.4878,-4.4409,-4.4347,-4.4582,-4.452,-4.4347,-4.4582,-4.5233,-4.5586,-4.4705,-4.5123,-4.5537,-4.452,-4.4409,-4.4458,-4.4347,-4.4285,-4.4285,-4.4285,-4.4285,-4.4285,-4.4285,-4.4285,-4.4285,-4.4285,-4.4285,-4.4285,-4.4285,-4.4285,-4.4285,-4.4285,-4.4285,-4.4285,-4.4285,-4.3701,-4.3569,-4.4155,-4.2063,-4.1242,-4.2218,-4.0887,-4.0116,-3.9999,-4.0704,-4.0751,-4.0176,-4.0886,-4.0884,-4.0223,-4.0884,-4.0595,-3.2269,-3.2325,-3.2361,-3.2831,-3.3311,-3.3792,-3.4283,-3.4458,0.0,0.0,-3.4524,-3.4524,-3.4524,-3.4524,0.0,-3.6359,0.0,0.0,0.0,0.0,-3.7978,0.0,0.0,0.0,0.0,-4.0788,0.0,0.0,-4.1111,-4.1187,-4.1304,-4.2431,-4.3063,-4.2949,-4.2621,-4.2736,-4.3314,-4.3838,-4.4161,-4.4285,-4.4285,-4.4285,-4.4285,-4.4285,-4.4285,-4.4285,-4.4285,-4.4285,-4.4285,-4.4285,-4.4285,-4.4409,-4.5416,-4.5768,-4.5889,-4.6849,-4.7723,-4.8236,-4.7252,-4.7488,-4.7828,-4.6118,-4.5,-4.4582,-4.619,-4.5598,-4.4644,-4.625,-4.625,-4.5768,-4.5598,-4.5646,-4.5537,-4.452,-4.4939,-4.5294,-4.4458,-4.4285,-4.4285,-4.4285,-4.4285,-4.4285,-4.4285,-4.4285,-4.4285,-4.4285,-4.4285,-4.4285,-4.4285,-4.4285,-4.4285,-4.4285,-4.4285,-4.4285,-4.4285,-4.3701,-4.3361,-4.3467,-4.2552,-4.1706,-4.0943,-4.1625,-4.1365,-3.9887,-4.1127,-4.12,-4.0036,-4.0797,-4.0884,-4.0223,-4.0884,-4.1069,-3.2308,-3.2391,-3.2492,-3.3004,-3.3431,-3.3923,-3.4414,0.0,0.0,0.0,-3.4524,-3.4524,-3.4524,0.0,0.0,0.0,0.0,0.0,0.0,0.0,0.0,0.0,0.0,0.0,0.0,-4.0604,-4.0917,-4.124,-4.1614,-4.1986,-4.2316,-4.2937,-4.3451,-4.3838,-4.3189,-4.3126,-4.3838,-4.4149,-4.4285,-4.4285,-4.4285,-4.4285,-4.4285,-4.4285,-4.4285,-4.4285,-4.4285,-4.4285,-4.4347,-4.4878,-4.5061,-4.5245,-4.6704,-4.7239,-4.7357,-4.8308,-4.8944,-4.9186,-4.8236,-4.8236,-4.8455,-4.7534,-4.6598,-4.5949,-4.6909,-4.655,-4.601,-4.6968,-4.7252,-4.7121,-4.6657,-4.655,-4.6311,-4.5294,-4.5061,-4.4878,-4.4409,-4.4285,-4.4285,-4.4285,-4.4285,-4.4285,-4.4285,-4.4285,-4.4285,-4.4285,-4.4285,-4.4285,-4.4285,-4.4285,-4.4285,-4.4285,-4.4285,-4.4285,-4.4285,-4.4025,-4.385,-4.3811,-4.3212,-4.2569,-4.2023,-4.2251,-4.1895,-4.0779,-4.1757,-4.1659,-4.0511,-4.1234,-4.1333,-4.0711,-4.1057,-4.1184,-3.2409,-3.2572,-3.2834,-3.3186,-3.3616,-3.4109,-3.4592,-3.4579,0.0,0.0,-3.4524,-3.4524,-3.4524,0.0,0.0,0.0,0.0,0.0,0.0,0.0,0.0,0.0,0.0,0.0,0.0,0.0,0.0,-4.1497,-4.2241,-4.2937,-4.3514,-4.3251,-4.3451,-4.4285,-4.3514,-4.3451,-4.4285,-4.4285,-4.4285,-4.4285,-4.4285,-4.4285,-4.4285,-4.452,-4.4644,-4.4644,-4.4816,-4.4939,-4.5,-4.5768,-4.613,-4.6238,-4.7945,-4.8584,-4.87,-4.9656,-5.001,-4.9897,-4.9173,-4.8873,-4.8873,-4.8873,-4.8133,-4.7265,-4.7665,-4.7501,-4.7265,-4.7677,-4.8191,-4.8411,-4.7723,-4.7488,-4.7252,-4.6311,-4.5171,-4.4362,-4.4558,-4.447,-4.4285,-4.4285,-4.4285,-4.4285,-4.4285,-4.4285,-4.4285,-4.4285,-4.4285,-4.4285,-4.4285,-4.4285,-4.4285,-4.4285,-4.4285,-4.4285,-4.4285,-4.4285,-4.4285,-4.4285,-4.3838,-4.3451,-4.3326,-4.2937,-4.2436,-4.173,-4.235,-4.22,-4.1148,-4.1721,-4.1691,-4.1167,-4.1175,-4.1184,-3.2521,-3.3075,-3.3771,-3.391,-3.4206,-3.458,-3.5201,0.0,0.0,-3.4524,-3.4524,-3.4524,-3.4524,-3.4524,0.0,0.0,0.0,0.0,0.0,0.0,0.0,0.0,0.0,0.0,0.0,0.0,0.0,-4.2229,-4.3389,-4.4149,-4.4223,-4.3063,-4.3,-4.4285,-4.3063,-4.3,-4.4285,-4.4285,-4.4285,-4.4285,-4.4285,-4.4285,-4.4347,-4.5233,-4.5646,-4.5707,-4.655,-4.6909,-4.6955,-4.7015,-4.7087,-4.7193,-4.8178,-4.8584,-4.87,-4.9656,-5.001,-5.001,-4.9897,-4.9897,-4.9897,-4.9897,-4.8655,-4.7501,-4.9257,-4.854,-4.7547,-4.9244,-4.9186,-4.8584,-4.8469,-4.8469,-4.8236,-4.7311,-4.5662,-4.4549,-4.5451,-4.4939,-4.4285,-4.4285,-4.4285,-4.4285,-4.4285,-4.4285,-4.4285,-4.4285,-4.4285,-4.4285,-4.4285,-4.4285,-4.4285,-4.4285,-4.4285,-4.4285,-4.4285,-4.4285,-4.4285,-4.4285,-4.4223,-4.3962,-4.3314,-4.3838,-4.349,-4.2287,-4.3009,-4.2798,-4.1556,-4.184,-4.1648,-4.1035,-4.1157,-4.1184,-3.2229,-3.2912,-3.3827,-3.3551,-3.3967,-3.4579,-3.478,0.0,0.0,-3.4524,-3.4524,-3.4524,-3.4524,-3.4524,-3.4897,0.0,0.0,0.0,0.0,0.0,0.0,0.0,0.0,0.0,0.0,0.0,-4.2114,-4.2293,-4.3514,-4.4285,-4.4285,-4.3764,-4.3776,-4.4285,-4.3764,-4.3776,-4.4285,-4.4285,-4.4285,-4.4285,-4.4939,-4.5172,-4.5245,-4.619,-4.667,-4.6657,-4.7027,-4.7205,-4.7252,-4.7828,-4.8061,-4.812,-4.9058,-4.9415,-4.9472,-4.984,-5.001,-5.001,-5.001,-5.001,-5.001,-5.001,-4.9486,-4.9014,-4.977,-4.9486,-4.9014,-4.9783,-4.9713,-4.9415,-4.9415,-4.9001,-4.8236,-4.6717,-4.5764,-4.5158,-4.4964,-4.4582,-4.4285,-4.4285,-4.4285,-4.4285,-4.4285,-4.4285,-4.4285,-4.4285,-4.4285,-4.4285,-4.4285,-4.4285,-4.4285,-4.4285,-4.4285,-4.4285,-4.4285,-4.4285,-4.4285,-4.4285,-4.4285,-4.4161,-4.39,-4.4161,-4.4037,-4.3514,-4.381,-4.3453,-4.2335,-4.2413,-4.1992,-4.1136,-4.1165,-4.1184,-3.2482,-3.3068,-3.4038,-3.3699,-3.4076,-3.4579,0.0,0.0,0.0,-3.4524,-3.4524,-3.4524,-3.4524,-3.4524,-3.4897,0.0,0.0,0.0,0.0,0.0,0.0,0.0,0.0,0.0,0.0,-4.1753,-4.2189,-4.2862,-4.3764,-4.4285,-4.4285,-4.4285,-4.4285,-4.4285,-4.4087,-4.4087,-4.4285,-4.4285,-4.447,-4.4767,-4.5477,-4.5949,-4.625,-4.7193,-4.7606,-4.7606,-4.7899,-4.8016,-4.8075,-4.8771,-4.9001,-4.9058,-4.9713,-5.001,-5.001,-5.001,-5.001,-5.001,-5.001,-5.001,-5.001,-5.001,-5.001,-5.001,-5.001,-5.001,-5.001,-5.001,-5.001,-5.001,-5.001,-4.9529,-4.8584,-4.7002,-4.6418,-4.5949,-4.4939,-4.452,-4.4285,-4.4285,-4.4285,-4.4285,-4.4285,-4.4285,-4.4285,-4.4285,-4.4285,-4.4285,-4.4285,-4.4285,-4.4285,-4.4285,-4.4285,-4.4285,-4.4285,-4.4285,-4.4285,-4.4285,-4.4285,-4.4285,-4.4285,-4.4285,-4.4285,-4.4285,-4.4285,-4.389,-4.2988,-4.2891,-4.235,-4.1413,-4.1256,-4.1184,-3.3496,-3.3942,-3.471,-3.4762,-3.4661,-3.4691,0.0,0.0,0.0,-3.4524,-3.4524,-3.4524,-3.4524,-3.4524,-3.4998,-3.6643,0.0,0.0,0.0,0.0,0.0,0.0,0.0,0.0,0.0,-4.2571,-4.3576,-4.4223,-4.4285,0.0,-4.4285,-4.4285,-4.4285,-4.4285,-4.3639,-4.3639,-4.4285,-4.4285,-4.4828,-4.5768,-4.5768,-4.6311,-4.7205,-4.8178,-4.8584,-4.8642,-4.96,-4.9953,-4.9953,-4.9953,-5.001,-5.001,-5.001,-5.001,-5.001,-5.001,-5.001,-5.001,-5.001,-5.001,-5.001,-5.001,-5.001,-5.001,-5.001,-5.001,-5.001,-5.001,-5.001,-5.001,-5.001,-5.001,-4.977,-4.8815,-4.7886,-4.6909,-4.601,-4.5,-4.4285,-4.4285,-4.4285,-4.4285,-4.4285,-4.4285,-4.4285,-4.4285,-4.4285,-4.4285,-4.4285,-4.4285,-4.4285,-4.4285,-4.4285,-4.4285,-4.4285,-4.4285,-4.4285,-4.4285,-4.4285,-4.4285,-4.4285,-4.4285,-4.4285,-4.4285,-4.4285,-4.4009,-4.3505,-4.3,-4.2542,-4.2012,-4.1425,-4.1184,-3.3924,-3.4525,-3.5335,-3.5269,-3.521,-3.5157,-3.5378,0.0,0.0,-3.4524,-3.4524,-3.4524,-3.4524,-3.4524,-3.4998,-3.6643,0.0,0.0,0.0,0.0,0.0,0.0,0.0,0.0,0.0,0.0,-4.39,-4.3651,-4.4025,-4.4285,-4.4285,-4.4285,-4.4285,-4.4285,-4.4087,-4.4099,-4.4285,-4.5,-4.5477,-4.5828,-4.7121,-4.7886,-4.8178,-4.9129,-4.9543,-4.96,-4.9897,-5.001,-5.001,-5.001,-5.001,-5.001,-5.001,-5.001,-5.001,-5.001,-5.001,-5.001,-5.001,-5.001,-5.001,-5.001,-5.001,-5.001,-5.001,-5.001,-5.001,-5.001,-5.001,-5.001,-5.001,-5.001,-4.977,-4.8815,-4.8216,-4.7418,-4.6105,-4.5537,-4.5123,-4.4397,-4.4285,-4.4285,-4.4285,-4.4285,-4.4285,-4.4285,-4.4285,-4.4285,-4.4285,-4.4285,-4.4285,-4.4285,-4.4285,-4.4285,-4.4285,-4.4285,-4.4285,-4.4285,-4.4285,-4.4285,-4.4285,-4.4285,-4.4285,-4.4285,-4.3974,-4.3517,-4.3,-4.2471,-4.2012,-4.1425,-4.1256,-4.1184,0.0,-3.4948,-3.537,-3.5688,-3.5594,0.0,0.0,0.0,0.0,0.0,-3.4524,-3.4524,-3.4524,-3.4524,-3.511,-3.6917,-3.6522,0.0,0.0,0.0,0.0,0.0,0.0,0.0,0.0,-4.39,-4.4161,-4.3701,-4.4025,-4.447,-4.4828,-4.4878,-4.5,-4.5355,-4.5061,-4.5061,-4.5416,-4.601,-4.6478,-4.6883,-4.8048,-4.8758,-4.9173,-4.9713,-5.001,-5.001,-5.001,-5.001,0.0,-5.001,-5.001,-5.001,-5.001,-5.001,-5.001,-5.001,-5.001,-5.001,-5.001,-5.001,-5.001,-5.001,-5.001,-5.001,-5.001,-5.001,-5.001,-5.001,-5.001,-5.001,-5.001,-5.001,-4.9867,-4.9258,-4.8682,-4.7944,-4.6632,-4.607,-4.5635,-4.4961,-4.4567,-4.4285,-4.4285,-4.4285,-4.4285,-4.4285,-4.4285,-4.4285,-4.4285,-4.4285,-4.4285,-4.4285,-4.4285,-4.4285,-4.4285,-4.4285,-4.4285,-4.4285,-4.4285,-4.4285,-4.4285,-4.4285,-4.4189,-4.3973,-4.3685,-4.3168,-4.2518,-4.193,-4.1509,-4.1184,-4.1184,-4.1184,0.0,0.0,0.0,0.0,0.0,0.0,0.0,0.0,0.0,0.0,0.0,0.0,-3.4524,-3.4524,-3.5212,-3.7462,0.0,0.0,0.0,0.0,0.0,0.0,0.0,0.0,-4.333,-4.39,-4.4347,-4.4409,-4.4409,-4.4816,-4.5828,-4.5889,-4.6311,-4.7252,-4.6418,-4.6371,-4.7205,-4.7265,-4.7723,-4.8584,-4.8642,-4.9173,-5.001,-5.001,-5.001,-5.001,-5.001,-5.001,-5.001,-5.001,-5.001,-5.001,-5.001,-5.001,-5.001,-5.001,-5.001,-5.001,-5.001,-5.001,-5.001,-5.001,-5.001,-5.001,-5.001,-5.001,-5.001,-5.001,-5.001,-5.001,-5.001,-5.001,-4.9992,-5.0027,-4.9338,-4.8469,-4.7488,-4.6538,-4.5892,-4.5835,-4.4984,-4.4285,-4.4285,-4.4285,-4.4285,-4.4285,-4.4285,-4.4285,-4.4285,-4.4285,-4.4285,-4.4285,-4.4285,-4.4285,-4.4285,-4.4285,-4.4285,-4.4285,-4.4285,-4.4273,-4.4225,-4.4225,-4.3961,-4.3469,-4.3421,-4.2904,-4.1918,-4.1425,-4.1184,-4.1184,-4.1184,-4.1184,-3.5966,0.0,-3.5723,-3.7249,-3.6823,0.0,0.0,0.0,0.0,0.0,0.0,0.0,0.0,0.0,0.0,0.0,0.0,0.0,0.0,0.0,0.0,0.0,0.0,-4.307,-4.4003,-4.4223,-4.4644,-4.5416,-4.5477,-4.5828,-4.6849,-4.6836,-4.7311,-4.8236,-4.8061,-4.771,-4.7205,-4.7886,-4.8411,-4.8642,-4.9358,-4.977,-5.001,-5.001,-5.001,-5.001,-5.001,-5.001,-5.001,-5.001,-5.001,-5.001,-5.001,-5.001,-5.001,-5.001,-5.001,-5.001,-5.001,-5.001,-5.001,-5.001,-5.001,-5.001,-5.001,-5.001,-5.001,-5.001,-5.001,-5.001,-5.001,-5.001,-4.998,-5.0019,-4.9837,-4.9415,-4.8469,-4.7534,-4.6677,-4.5958,-4.4984,-4.4285,-4.4285,-4.4285,-4.4285,-4.4285,-4.4285,-4.4285,-4.4285,-4.4285,-4.4285,-4.4285,-4.4285,-4.4285,-4.4285,-4.4285,-4.4285,-4.4285,-4.4285,-4.4093,-4.3721,-4.3709,-4.3469,-4.2952,-4.2543,-4.2014,-4.1365,-4.1244,-4.1184,-4.1184,-4.1184,-4.1184,-3.6122,-3.6014,-3.5978,-3.7616,-3.7346,-3.6592,0.0,0.0,0.0,0.0,0.0,0.0,0.0,0.0,0.0,0.0,0.0,0.0,0.0,0.0,0.0,0.0,0.0,-4.3433,0.0,-4.4705,-4.5233,-4.578,-4.619,-4.6836,-4.7769,-4.7828,-4.8236,-4.923,-4.923,-4.9014,-4.8495,-4.9014,-4.923,-4.923,-4.977,-5.001,-5.001,-5.001,-5.001,-5.001,-5.001,-5.001,-5.001,-5.001,-5.001,-5.001,-5.001,-5.001,-5.001,-5.001,-5.001,-5.001,-5.001,-5.001,-5.001,-5.001,-5.001,-5.001,-5.001,-5.001,-5.001,-5.001,-5.001,-5.001,-5.001,-5.001,-5.001,-5.001,-5.001,-4.9713,-4.8815,-4.7853,-4.6946,-4.5987,-4.4975,-4.4285,-4.4285,-4.4285,-4.4285,-4.4285,-4.4285,-4.4285,-4.4285,-4.4285,-4.4285,-4.4285,-4.4285,-4.4285,-4.4285,-4.4045,-4.4009,-4.4273,-4.4045,-4.383,-4.3529,-4.3289,-4.2928,-4.247,-4.194,-4.1473,-4.1184,-4.1184,-4.1184,-4.1184,-4.1184,-4.1184,-3.6122,-3.6066,-3.6069,-3.7616,-3.7507,-3.6862,0.0,0.0,0.0,0.0,0.0,0.0,0.0,0.0,0.0,0.0,0.0,0.0,0.0,0.0,0.0,0.0,-4.3253,0.0,-4.446,-4.5416,-4.607,-4.6238,-4.6955,-4.7841,-4.8758,-4.8815,-4.9173,-4.9953,-5.001,-5.001,-5.001,-5.001,-5.001,-5.001,-5.001,-5.001,-5.001,-5.001,-5.001,-5.001,-5.001,-5.001,-5.001,-5.001,-5.001,-5.001,-5.001,-5.001,-5.001,-5.001,-5.001,-5.001,-5.001,-5.001,-5.001,-5.001,-5.001,-5.001,-5.001,-5.001,-5.001,-5.001,-5.001,-5.001,-5.001,-5.001,-5.001,-5.001,-5.001,-4.9713,-4.8815,-4.7853,-4.6887,-4.5973,-4.4999,-4.4285,-4.4285,-4.4285,-4.4285,-4.4285,-4.4285,-4.4285,-4.4285,-4.4285,-4.4285,-4.4285,-4.4213,-4.4153,-4.4153,-4.3721,-4.3601,-4.4009,-4.3661,-4.3361,-4.3277,-4.2784,-4.2374,-4.1858,-4.1413,-4.1184,-4.1184,-4.1184,-4.1184,-4.1184,-4.1184,-4.1184,-3.6122,-3.636,-3.6561,-3.7721,-3.7173,-3.6375,0.0,0.0,0.0,0.0,0.0,0.0,0.0,0.0,0.0,0.0,0.0,0.0,0.0,0.0,-4.1665,-4.2699,0.0,-4.4484,-4.5499,-4.6431,-4.7311,-4.812,-4.8294,-4.8758,-4.9713,-4.977,-4.984,-5.001,-5.001,-5.001,-5.001,-5.001,-5.001,-5.001,-5.001,-5.001,-5.001,-5.001,-5.001,-5.001,-5.001,-5.001,-5.001,-5.001,-5.001,-5.001,-5.001,-5.001,-5.001,-5.001,-5.001,-5.001,-5.001,-5.001,-5.001,-5.001,-5.001,-5.001,-5.001,-5.001,-5.001,-5.001,-5.001,-5.001,-5.001,-5.001,-5.001,-5.001,-5.001,-4.9713,-4.8815,-4.7853,-4.6951,-4.5974,-4.5,-4.4285,-4.4285,-4.4285,-4.4285,-4.4285,-4.4285,-4.4285,-4.4285,-4.4285,-4.4285,-4.4285,-4.3865,-4.3637,-4.3637,-4.3168,-4.2916,-4.3,-4.2928,-4.2675,-4.223,-4.1701,-4.1389,-4.1305,-4.122,-4.1184,-4.1184,-4.1184,-4.1184,-4.1184,-4.1184,-4.1184,-3.6122,-3.6411,-3.6663,-3.7721,-3.7346,-3.6754,0.0,0.0,0.0,0.0,0.0,0.0,0.0,0.0,0.0,0.0,0.0,-4.1184,-4.1184,-4.1425,-4.1894,0.0,0.0,-4.4957,-4.5693,-4.7133,-4.812,-4.8584,-4.9058,-4.9529,-4.9953,-5.001,-5.001,-5.001,-5.001,-5.001,-5.001,-5.001,-5.001,-5.001,-5.001,-5.001,-5.001,-5.001,-5.001,-5.001,-5.001,-5.001,-5.001,-5.001,-5.001,-5.001,-5.001,-5.001,-5.001,-5.001,-5.001,-5.001,-5.001,-5.001,-5.001,-5.001,-5.001,-5.001,-5.001,-5.001,-5.001,-5.001,-5.001,-5.001,-5.001,-5.001,-5.001,-5.001,-4.96,-4.9001,-4.8075,-4.7098,-4.6179,-4.5183,-4.4607,-4.4285,-4.4285,-4.4285,-4.4285,-4.4285,-4.4285,-4.4285,-4.4285,-4.4285,-4.4177,-4.3926,-4.3661,-4.3397,-4.3132,-4.2639,-4.2398,-4.2398,-4.2398,-4.2157,-4.1569,-4.1305,-4.1184,-4.1184,-4.1184,-4.1184,-4.1184,-4.1184,-4.1184,-4.1184,-4.1184,-4.1184,-3.6122,-3.6411,-3.6612,-3.7563,0.0,-3.7078,-3.7078,0.0,0.0,0.0,0.0,0.0,0.0,0.0,0.0,0.0,0.0,-4.1402,-4.1242,-4.1926,-4.2586,-4.3091,-4.4513,-4.5721,-4.6415,-4.7945,-4.8944,-4.8944,-4.96,-5.001,-5.001,-5.001,-5.001,-5.001,-5.001,-5.001,-5.001,-5.001,-5.001,-5.001,-5.001,-5.001,-5.001,-5.001,-5.001,-5.001,-5.001,-5.001,-5.001,-5.001,-5.001,-5.001,-5.001,-5.001,-5.001,-5.001,-5.001,-5.001,-5.001,-5.001,-5.001,-5.001,-5.001,-5.001,-5.001,-5.001,-5.001,-5.001,-5.001,-5.001,-5.001,-5.001,-5.001,-5.001,-4.9472,-4.8584,-4.7429,-4.6632,-4.5791,-4.452,-4.4285,-4.4285,-4.4285,-4.4285,-4.4285,-4.4285,-4.4285,-4.4237,-4.4105,-4.4093,-4.3877,-4.3397,-4.3228,-4.294,-4.2494,-4.2085,-4.1786,-4.1786,-4.1786,-4.1605,-4.1196,-4.1184,-4.1184,-4.1184,-4.1184,-4.1184,-4.1184,-4.1184,-4.1184,-4.1184,-4.1184,-4.1184,-3.6122,-3.6411,-3.6509,-3.7033,0.0,0.0,-3.7078,-3.6254,0.0,0.0,0.0,0.0,0.0,0.0,0.0,0.0,0.0,-4.213,-4.1287,0.0,-4.3782,-4.4074,-4.5711,-4.7188,-4.8292,-4.9301,-4.9897,-4.9897,-4.9953,-5.001,-5.001,-5.001,-5.001,-5.001,-5.001,-5.001,-5.001,-5.001,-5.001,-5.001,-5.001,-5.001,-5.001,-5.001,-5.001,-5.001,-5.001,-5.001,-5.001,-5.001,-5.001,-5.001,-5.001,-5.001,-5.001,-5.001,-5.001,-5.001,-5.001,-5.001,-5.001,-5.001,-5.001,-5.001,-5.001,-5.001,-5.001,-5.001,-5.001,-5.001,-5.001,-5.001,-5.001,-5.001,-4.9953,-4.9429,-4.7606,-4.7146,-4.6527,-4.4692,-4.4285,-4.4285,-4.4285,-4.4285,-4.4285,-4.4285,-4.4285,-4.4093,-4.3637,-4.3577,-4.3373,-4.2928,-4.2375,-4.187,-4.1341,-4.1256,-4.1244,-4.1244,-4.1244,-4.122,-4.1184,-4.1184,-4.1184,-4.1184,-4.1184,-4.1184,-4.1184,-4.1184,-4.1184,-4.1184,-4.1184,-4.1184,-3.5713,-3.6158,-3.6528,-3.7051,0.0,0.0,0.0,0.0,0.0,0.0,0.0,0.0,0.0,0.0,0.0,0.0,-4.2264,-4.3004,-4.213,-4.3048,-4.4122,-4.4903,-4.6113,-4.7374,-4.8466,-4.9472,-5.001,-5.001,-5.001,-5.001,-5.001,-5.001,-5.001,-5.001,-5.001,-5.001,-5.001,-5.001,-5.001,-5.001,-5.001,-5.001,-5.001,-5.001,-5.001,-5.001,-5.001,-5.001,-5.001,-5.001,-5.001,-5.001,-5.001,-5.001,-5.001,-5.001,-5.001,-5.001,-5.001,-5.001,-5.001,-5.001,-5.001,-5.001,-5.001,-5.001,-5.001,-5.001,-5.001,-5.001,-5.001,-5.001,-5.001,-5.001,-4.9529,-4.8771,-4.7488,-4.6746,-4.5953,-4.4544,-4.4285,-4.4285,-4.4285,-4.4285,-4.4285,-4.4285,-4.4285,-4.4081,-4.3577,-4.3505,-4.3192,-4.2422,-4.1798,-4.1401,-4.1196,-4.1184,-4.1184,-4.1184,-4.1184,-4.1184,-4.1184,-4.1184,-4.1184,-4.1184,-4.1184,-4.1184,-4.1184,-4.1184,-4.1184,-4.1184,-4.1184,-4.1184,-3.5473,-3.6002,-3.648,0.0,0.0,0.0,0.0,0.0,0.0,0.0,0.0,0.0,0.0,0.0,0.0,0.0,-4.3257,-4.3932,-4.306,-4.3932,-4.495,-4.5857,-4.6744,-4.778,-4.8939,-4.9586,-5.001,-5.001,-5.001,-5.001,-5.001,-5.001,-5.001,-5.001,-5.001,-5.001,-5.001,-5.001,-5.001,-5.001,-5.001,-5.001,-5.001,-5.001,-5.001,-5.001,-5.001,-5.001,-5.001,-5.001,-5.001,-5.001,-5.001,-5.001,-5.001,-5.001,-5.001,-5.001,-5.001,-5.001,-5.001,-5.001,-5.001,-5.001,-5.001,-5.001,-5.001,-5.001,-5.001,-5.001,-5.001,-5.001,-5.001,-5.001,-4.9529,-4.8713,-4.7501,-4.673,-4.5828,-4.452,-4.4285,-4.4285,-4.4285,-4.4285,-4.4285,-4.4285,-4.4141,-4.389,-4.3349,-4.3132,-4.2687,-4.181,-4.1401,-4.1184,-4.1184,-4.1184,-4.1184,-4.1184,-4.1184,-4.1184,-4.1184,-4.1184,-4.1184,-4.1184,-4.1184,-4.1184,-4.1184,-4.1184,-4.1184,-4.1184,-4.1184,-4.1184,-3.5473,-3.599,0.0,0.0,0.0,0.0,0.0,0.0,0.0,0.0,0.0,-4.0243,-4.0803,0.0,0.0,-4.3707,-4.4533,-4.4817,-4.392,-4.5355,-4.6571,-4.689,-4.7658,-4.8652,-4.9888,-5.001,-5.001,-5.001,-5.001,-5.001,-5.001,-5.001,-5.001,-5.001,-5.001,-5.001,-5.001,-5.001,-5.001,-5.001,-5.001,-5.001,-5.001,-5.001,-5.001,-5.001,-5.001,-5.001,-5.001,-5.001,-5.001,-5.001,-5.001,-5.001,-5.001,-5.001,-5.001,-5.001,-5.001,-5.001,-5.001,-5.001,-5.001,-5.001,-5.001,-5.001,-5.001,-5.001,-5.001,-5.001,-5.001,-5.001,-5.001,-5.001,-5.001,-4.9486,-4.7619,-4.7205,-4.661,-4.4705,-4.4285,-4.4285,-4.4285,-4.4285,-4.4285,-4.4285,-4.3866,-4.3325,-4.2879,-4.2291,-4.1761,-4.1244,-4.1184,-4.1184,-4.1184,-4.1184,-4.1184,-4.1184,-4.1184,-4.1184,-4.1184,-4.1184,-4.1184,-4.1184,-4.1184,-4.1184,-4.1184,-4.1184,-4.1184,-4.1184,-4.1184,-4.1242,-3.4967,0.0,0.0,0.0,0.0,0.0,0.0,0.0,0.0,0.0,0.0,-3.9952,-4.1476,0.0,0.0,-4.3765,-4.5087,-4.5755,-4.4858,-4.5755,-4.685,-4.7702,-4.8014,-4.8652,-4.9888,-5.001,-5.001,-5.001,-5.001,-5.001,-5.001,-5.001,-5.001,-5.001,-5.001,-5.001,-5.001,-5.001,-5.001,-5.001,-5.001,-5.001,-5.001,-5.001,-5.001,-5.001,-5.001,-5.001,-5.001,-5.001,-5.001,-5.001,-5.001,-5.001,-5.001,-5.001,-5.001,-5.001,-5.001,-5.001,-5.001,-5.001,-5.001,-5.001,-5.001,-5.001,-5.001,-5.001,-5.001,-5.001,-5.001,-5.001,-5.001,-5.001,-5.001,-4.9486,-4.7619,-4.7205,-4.661,-4.4705,-4.4285,-4.4285,-4.4285,-4.4285,-4.4285,-4.4285,-4.3866,-4.3192,-4.2374,-4.1749,-4.1353,-4.1196,-4.1184,-4.1184,-4.1184,-4.1184,-4.1184,-4.1184,-4.1184,-4.1184,-4.1184,-4.1184,-4.1184,-4.1184,-4.1184,-4.1184,-4.1184,-4.1184,-4.1516,-4.213,-4.213,-4.2457,-3.4775,0.0,0.0,0.0,0.0,0.0,0.0,0.0,0.0,0.0,0.0,-4.055,-4.2345,-4.361,0.0,-4.4821,-4.5808,-4.6311,-4.5755,-4.6139,-4.6821,-4.7771,-4.8042,-4.8557,-4.9576,-4.9874,-5.001,-5.001,-5.001,-5.001,-5.001,-5.001,-5.001,-5.001,-5.001,-5.001,-5.001,-5.001,-5.001,-5.001,-5.001,-5.001,-5.001,-5.001,-5.001,-5.001,-5.001,-5.001,-5.001,-5.001,-5.001,-5.001,-5.001,-5.001,-5.001,-5.001,-5.001,-5.001,-5.001,-5.001,-5.001,-5.001,-5.001,-5.001,-5.001,-5.001,-5.001,-5.001,-5.001,-5.001,-5.001,-5.001,-5.001,-5.001,-4.9713,-4.9014,-4.7488,-4.6909,-4.619,-4.4582,-4.4285,-4.4285,-4.4285,-4.4285,-4.4285,-4.4285,-4.3697,-4.2832,-4.1798,-4.1377,-4.1184,-4.1184,-4.1184,-4.1184,-4.1184,-4.1184,-4.1184,-4.1184,-4.1184,-4.1184,-4.1184,-4.1184,-4.1184,-4.1184,-4.1184,-4.1184,-4.1184,-4.1573,-4.196,-4.2525,-4.2837,-4.3326,0.0,0.0,0.0,0.0,0.0,0.0,0.0,0.0,0.0,0.0,0.0,-4.1776,-4.3345,-4.4651,-4.5723,-4.636,-4.6469,-4.6469,-4.6469,-4.6469,-4.6739,-4.7336,-4.7839,-4.8341,-4.8937,-4.9576,-4.9928,-4.9928,-4.9983,-5.001,-5.001,-5.001,-5.001,-5.001,-5.001,-5.001,-5.001,-5.001,-5.001,-5.001,-5.001,-5.001,-5.001,-5.001,-5.001,-5.001,-5.001,-5.001,-5.001,-5.001,-5.001,-5.001,-5.001,-5.001,-5.001,-5.001,-5.001,-5.001,-5.001,-5.001,-5.001,-5.001,-5.001,-5.001,-5.001,-5.001,-5.001,-5.001,-5.001,-5.001,-5.001,-5.001,-5.001,-5.001,-4.9358,-4.8469,-4.7429,-4.6538,-4.5586,-4.452,-4.4285,-4.4285,-4.4285,-4.4285,-4.4261,-4.4153,-4.3385,-4.2434,-4.1317,-4.1184,-4.1184,-4.1184,-4.1184,-4.1184,-4.1184,-4.1184,-4.1184,-4.1184,-4.1184,-4.1184,-4.1184,-4.1184,-4.1184,-4.1184,-4.1184,-4.1242,-4.1299,-4.213,-4.2581,-4.2737,-4.3547,-4.3974,0.0,0.0,0.0,0.0,0.0,0.0,0.0,0.0,0.0,0.0,0.0,-4.2198,-4.4084,-4.4699,-4.5248,-4.6292,-4.6469,-4.6469,-4.6469,-4.6469,-4.6739,-4.7336,-4.7526,-4.7785,-4.8327,-4.891,-4.9318,-4.9318,-4.9752,-5.001,-5.001,-5.001,-5.001,-5.001,-5.001,-5.001,-5.001,-5.001,-5.001,-5.001,-5.001,-5.001,-5.001,-5.001,-5.001,-5.001,-5.001,-5.001,-5.001,-5.001,-5.001,-5.001,-5.001,-5.001,-5.001,-5.001,-5.001,-5.001,-5.001,-5.001,-5.001,-5.001,-5.001,-5.001,-5.001,-5.001,-5.001,-5.001,-5.001,-5.001,-5.001,-5.001,-5.001,-5.001,-4.984,-4.9244,-4.7547,-4.7027,-4.6371,-4.4644,-4.4285,-4.4285,-4.4285,-4.4285,-4.3997,-4.3228,-4.2964,-4.2434,-4.1317,-4.1184,-4.1184,-4.1184,-4.1184,-4.1184,-4.1184,-4.1184,-4.1184,-4.1184,-4.1184,-4.1184,-4.1184,-4.1184,-4.1184,-4.1184,-4.1184,-4.1516,-4.2243,-4.2413,-4.3172,-4.4546,-4.475,-4.5194,0.0,0.0,0.0,0.0,0.0,0.0,0.0,0.0,0.0,0.0,0.0,-4.2302,-4.4323,-4.4705,-4.5098,-4.6279,-4.6469,-4.6469,-4.6469,-4.6469,-4.6643,-4.6956,-4.7241,-4.754,-4.7785,-4.8355,-4.8652,-4.8652,-4.925,-4.9589,-4.9589,-4.9861,-5.001,-5.001,-5.001,-5.001,-5.001,-5.001,-5.001,-5.001,-5.001,-5.001,-5.001,-5.001,-5.001,-5.001,-5.001,-5.001,-5.001,-5.001,-5.001,-5.001,-5.001,-5.001,-5.001,-5.001,-5.001,-5.001,-5.001,-5.001,-5.001,-5.001,-5.001,-5.001,-5.001,-5.001,-5.001,-5.001,-5.001,-5.001,-5.001,-5.001,-4.9897,-4.9415,-4.9358,-4.8944,-4.7488,-4.6849,-4.607,-4.4582,-4.4285,-4.4285,-4.4285,-4.4285,-4.3986,-4.2976,-4.2819,-4.2434,-4.1317,-4.1184,-4.1184,-4.1184,-4.1184,-4.1184,-4.1184,-4.1184,-4.1184,-4.1184,-4.1184,-4.1414,-4.1802,-4.1789,-4.1789,-4.1789,-4.2231,-4.2669,-4.3103,-4.356,-4.4219,-4.5087,-4.5582,-4.6034,0.0,0.0,0.0,0.0,0.0,0.0,0.0,0.0,0.0,0.0,0.0,-4.2425,-4.4238,-4.4637,-4.5058,-4.6143,-4.6401,-4.6469,-4.6469,-4.6469,-4.6469,-4.6469,-4.6956,-4.7255,-4.7255,-4.7744,-4.8042,-4.8042,-4.8585,-4.891,-4.891,-4.944,-4.9752,-4.9861,-4.9861,-4.9901,-5.001,-5.001,-5.001,-5.001,-5.001,-5.001,-5.001,-5.001,-5.001,-5.001,-5.001,-5.001,-5.001,-5.001,-5.001,-5.001,-5.001,-5.001,-5.001,-5.001,-5.001,-5.001,-5.001,-5.001,-5.001,-5.001,-5.001,-5.001,-5.001,-5.001,-5.001,-5.001,-5.001,-5.001,-5.001,-5.001,-4.977,-4.8815,-4.8376,-4.7963,-4.7108,-4.6371,-4.5477,-4.4532,-4.4285,-4.4285,-4.4285,-4.4201,-4.3878,-4.2964,-4.2747,-4.2338,-4.1305,-4.1184,-4.1184,-4.1184,-4.1184,-4.1184,-4.1184,-4.1184,-4.1242,-4.1402,-4.1402,-4.1789,-4.2681,-4.2849,-4.2961,-4.2961,-4.3492,-4.3865,-4.4029,-4.475,-4.5194,-4.5368,-4.6139,-4.6469,0.0,0.0,0.0,0.0,0.0,0.0,0.0,0.0,0.0,0.0,-4.279,-4.2993,-4.3769,-4.4339,-4.4922,-4.56,-4.6143,-4.6469,-4.6469,-4.6469,-4.6469,-4.6469,-4.6589,-4.6643,-4.6643,-4.7187,-4.7526,-4.7526,-4.8029,-4.8314,-4.8314,-4.8381,-4.8666,-4.9223,-4.925,-4.9494,-4.9996,-5.001,-5.001,-5.001,-5.001,-5.001,-5.001,-5.001,-5.001,-5.001,-5.001,-5.001,-5.001,-5.001,-5.001,-5.001,-5.001,-5.001,-5.001,-5.001,-5.001,-5.001,-5.001,-5.001,-5.001,-5.001,-5.001,-5.001,-5.001,-5.001,-5.001,-5.001,-5.001,-5.001,-5.001,-5.001,-4.977,-4.8815,-4.7521,-4.6437,-4.6052,-4.5889,-4.5477,-4.4532,-4.4285,-4.4285,-4.4285,-4.3877,-4.3433,-4.2903,-4.2375,-4.1858,-4.1256,-4.1184,-4.1184,-4.1184,-4.1184,-4.1184,-4.1184,-4.1184,-4.1516,-4.23,-4.2356,-4.2737,-4.3589,-4.437,-4.4763,-4.4763,-4.4139,-4.4139,-4.4925,-4.5033,-4.5529,-4.6311,-4.6416,-4.6469,0.0,0.0,0.0,0.0,0.0,0.0,0.0,0.0,0.0,0.0,-4.2656,-4.3063,-4.371,-4.3999,-4.4488,-4.5438,-4.5804,-4.6089,-4.6428,-4.6469,-4.6469,-4.6469,-4.6469,-4.6469,-4.6469,-4.6766,-4.6915,-4.6915,-4.7418,-4.7744,-4.7744,-4.807,-4.8314,-4.8571,-4.8585,-4.8693,-4.8964,-4.8964,-4.9182,-4.9521,-4.9861,-5.001,-5.001,-5.001,-5.001,-5.001,-5.001,-5.001,-5.001,-5.001,-5.001,-5.001,-5.001,-5.001,-5.001,-5.001,-5.001,-5.001,-5.001,-5.001,-5.001,-5.001,-5.001,-5.001,-5.001,-5.001,-5.001,-5.001,-5.001,-5.001,-5.001,-5.001,-4.977,-4.8815,-4.7922,-4.6998,-4.5982,-4.5768,-4.5477,-4.4532,-4.4285,-4.4285,-4.4285,-4.389,-4.3337,-4.2891,-4.2374,-4.1786,-4.1256,-4.1184,-4.1184,-4.1184,-4.1184,-4.1184,-4.1184,-4.1184,-4.1573,-4.2469,-4.2525,-4.3116,-4.4479,-4.4925,-4.5368,-4.5861,-4.5529,-4.5529,-4.5861,-4.5861,-4.6086,-4.6469,-4.6469,-4.6469,0.0,0.0,0.0,0.0,0.0,0.0,0.0,0.0,0.0,0.0,-4.248,-4.3023,-4.347,-4.3723,-4.4067,-4.4976,-4.5383,-4.575,-4.6184,-4.6374,-4.6469,-4.6469,-4.6469,-4.6469,-4.6469,-4.6469,-4.6469,-4.6469,-4.6942,-4.7187,-4.7187,-4.7554,-4.7866,-4.8015,-4.8015,-4.8042,-4.8192,-4.8192,-4.8408,-4.8856,-4.9359,-4.9562,-4.9562,-4.9562,-4.9562,-4.9576,-4.9888,-5.001,-5.001,-5.001,-5.001,-5.001,-5.001,-5.001,-5.001,-5.001,-5.001,-5.001,-5.001,-5.001,-5.001,-5.001,-5.001,-5.001,-5.001,-5.001,-5.001,-5.001,-5.001,-5.001,-5.001,-5.001,-4.977,-4.8815,-4.835,-4.7704,-4.6153,-4.5586,-4.5172,-4.447,-4.4285,-4.4285,-4.4285,-4.3782,-4.3192,-4.2879,-4.2253,-4.1629,-4.1232,-4.1184,-4.1184,-4.1184,-4.1184,-4.1299,-4.1516,-4.1516,-4.2017,-4.306,-4.3184,-4.3835,-4.5368,-4.5475,-4.5808,-4.6469,-4.6469,-4.6469,-4.6469,-4.6469,-4.6469,-4.6469,-4.6469,-4.6469,0.0,0.0,0.0,0.0,0.0,0.0,0.0,0.0,0.0,0.0,-4.248,-4.29,-4.2928,-4.3389,-4.3845,-4.385,-4.4827,-4.56,-4.5628,-4.6116,-4.6469,-4.6469,-4.6469,-4.6469,-4.6469,-4.6469,-4.6469,-4.6469,-4.6562,-4.6576,-4.6576,-4.655,-4.6874,-4.7431,-4.7458,-4.7676,-4.8178,-4.8192,-4.8205,-4.8232,-4.8273,-4.8273,-4.8273,-4.8273,-4.8273,-4.8341,-4.9521,-5.001,-5.001,-5.001,-5.001,-5.001,-5.001,-5.001,-5.001,-5.001,-5.001,-5.001,-5.001,-5.001,-5.001,-5.001,-5.001,-5.001,-5.001,-5.001,-5.001,-5.001,-5.001,-5.001,-5.001,-5.001,-4.977,-4.8815,-4.835,-4.7704,-4.6153,-4.5061,-4.4347,-4.4285,-4.4285,-4.4285,-4.4285,-4.3493,-4.2855,-4.2819,-4.1882,-4.122,-4.1184,-4.1184,-4.1184,-4.1184,-4.1184,-4.1516,-4.2356,-4.2413,-4.3184,-4.4871,-4.4979,-4.5422,-4.6364,-4.6416,-4.6469,-4.6469,-4.6469,-4.6469,-4.6469,-4.6469,-4.6469,-4.6469,-4.6469,-4.6469,0.0,0.0,0.0,0.0,0.0,0.0,0.0,0.0,0.0,0.0,-4.191,-4.2439,-4.2819,-4.3063,-4.3335,-4.3764,-4.4135,-4.4569,-4.4963,-4.5533,-4.5899,-4.5899,-4.6238,-4.6469,-4.6469,-4.6469,-4.6469,-4.6469,-4.6469,-4.6469,-4.6469,-4.6469,-4.663,-4.6847,-4.6847,-4.6889,-4.7106,-4.7486,-4.7676,-4.7676,-4.8056,-4.8192,-4.8192,-4.8192,-4.8192,-4.8205,-4.8639,-4.8815,-4.8815,-4.8815,-4.9045,-4.944,-4.944,-4.9684,-5.001,-5.001,-5.001,-5.001,-5.001,-5.001,-5.001,-5.001,-5.001,-5.001,-5.001,-5.001,-5.001,-5.001,-5.001,-5.001,-5.001,-5.001,-4.9897,-4.96,-4.8961,-4.8274,-4.7697,-4.6824,-4.613,-4.613,-4.5646,-4.5122,-4.4779,-4.365,-4.2877,-4.3112,-4.2495,-4.2017,-4.2017,-4.25,-4.2656,-4.2073,-4.2557,-4.2992,-4.3326,-4.3326,-4.3823,-4.5033,-4.5087,-4.5529,-4.6469,-4.6469,-4.6469,-4.6469,-4.6469,-4.6469,-4.6469,-4.6469,-4.6469,-4.6469,-4.6469,-4.6469,0.0,0.0,0.0,0.0,0.0,0.0,0.0,0.0,0.0,-4.0987,-4.1598,-4.2181,-4.2778,-4.2887,-4.3009,-4.3402,-4.3696,-4.3918,-4.4339,-4.4908,-4.5288,-4.5288,-4.5641,-4.5967,-4.6157,-4.6184,-4.6252,-4.6455,-4.6469,-4.6469,-4.6469,-4.6469,-4.6469,-4.6469,-4.6469,-4.6469,-4.6469,-4.6915,-4.7119,-4.7119,-4.7459,-4.7649,-4.7649,-4.7649,-4.7649,-4.7649,-4.7649,-4.788,-4.8192,-4.8192,-4.8422,-4.8774,-4.8774,-4.9018,-4.9426,-4.9426,-4.9426,-4.9426,-4.9426,-4.9549,-4.9711,-4.9711,-4.9847,-5.001,-5.001,-5.001,-5.001,-5.001,-5.001,-5.001,-5.001,-5.001,-5.001,-5.001,-4.9529,-4.9058,-4.9058,-4.8061,-4.7205,-4.7205,-4.6279,-4.5503,-4.5438,-4.407,-4.3115,-4.3656,-4.33,-4.2949,-4.2949,-4.3436,-4.3589,-4.3004,-4.3424,-4.392,-4.4193,-4.4248,-4.4642,-4.5529,-4.5582,-4.5861,-4.6469,-4.6469,-4.6469,-4.6469,-4.6469,-4.6469,-4.6469,-4.6469,-4.6469,-4.6469,-4.6469,-4.6469,0.0,0.0,0.0,0.0,0.0,0.0,0.0,0.0,0.0,-4.096,-4.1557,-4.2154,-4.2751,-4.2873,-4.2887,-4.2887,-4.3375,-4.3791,-4.3791,-4.4284,-4.4678,-4.4678,-4.4691,-4.4936,-4.5505,-4.556,-4.5804,-4.6374,-4.6428,-4.6442,-4.6442,-4.6469,-4.6469,-4.6469,-4.6469,-4.6469,-4.6469,-4.6469,-4.6469,-4.6469,-4.6469,-4.6469,-4.6469,-4.6469,-4.6469,-4.6469,-4.6469,-4.7134,-4.8137,-4.8137,-4.8151,-4.8164,-4.8164,-4.8178,-4.8192,-4.8192,-4.8192,-4.8192,-4.8192,-4.8557,-4.9045,-4.9045,-4.9494,-4.9969,-4.9983,-4.9983,-4.9996,-4.9996,-5.001,-5.001,-5.001,-5.001,-5.001,-5.001,-4.9996,-4.9983,-4.9983,-4.8513,-4.7213,-4.7226,-4.6083,-4.5363,-4.6147,-4.4666,-4.3606,-4.4518,-4.4156,-4.3865,-4.3865,-4.3865,-4.3865,-4.3865,-4.3865,-4.4193,-4.5087,-4.514,-4.5529,-4.6416,-4.6469,-4.6469,-4.6469,-4.6469,-4.6469,-4.6469,-4.6469,-4.6469,-4.6469,-4.6469,-4.6469,-4.6469,-4.6469,-4.6469,-3.9305,0.0,0.0,0.0,0.0,0.0,0.0,0.0,0.0,-4.0323,-4.0933,-4.1544,-4.2141,-4.2602,-4.2887,-4.2887,-4.3023,-4.3131,-4.3131,-4.3647,-4.4027,-4.4027,-4.442,-4.4773,-4.4936,-4.4949,-4.5017,-4.5193,-4.5587,-4.5831,-4.5831,-4.6238,-4.6469,-4.6469,-4.6469,-4.6469,-4.6469,-4.6469,-4.6469,-4.6469,-4.6469,-4.6469,-4.6469,-4.6469,-4.6469,-4.6469,-4.6469,-4.6659,-4.6971,-4.6971,-4.7215,-4.7608,-4.7608,-4.7866,-4.8192,-4.8192,-4.8192,-4.8192,-4.8192,-4.83,-4.8435,-4.8435,-4.8544,-4.8761,-4.925,-4.9372,-4.9467,-4.9888,-5.001,-5.001,-5.001,-5.001,-5.001,-5.001,-4.9684,-4.9372,-4.9372,-4.8575,-4.8065,-4.8479,-4.7731,-4.6781,-4.6173,-4.5029,-4.4403,-4.4887,-4.4855,-4.475,-4.475,-4.5301,-4.5475,-4.4804,-4.5355,-4.5861,-4.6086,-4.6139,-4.6192,-4.6469,-4.6469,-4.6469,-4.6469,-4.6469,-4.6469,-4.6469,-4.6469,-4.6469,-4.6469,-4.6469,-4.6469,-4.6469,-4.6469,-4.6469,-3.9305,-3.9305,-3.9305,-3.9305,0.0,0.0,-3.9305,-3.9305,-3.9468,0.0,-4.0472,-4.092,-4.1517,-4.2127,-4.2521,-4.2521,-4.2724,-4.2887,-4.2887,-4.3185,-4.3402,-4.3402,-4.3728,-4.4054,-4.4298,-4.4312,-4.442,-4.4691,-4.5031,-4.5221,-4.5221,-4.579,-4.6102,-4.6102,-4.6347,-4.6469,-4.6469,-4.6469,-4.6469,-4.6469,-4.6469,-4.6469,-4.6469,-4.6469,-4.6469,-4.6469,-4.6469,-4.6469,-4.6469,-4.6469,-4.6739,-4.7037,-4.7037,-4.7201,-4.75,-4.75,-4.75,-4.75,-4.75,-4.7663,-4.788,-4.788,-4.8043,-4.8259,-4.8598,-4.8693,-4.8774,-4.9182,-4.9277,-4.9277,-4.9277,-4.9277,-4.9277,-4.9277,-4.895,-4.8693,-4.8693,-4.8435,-4.8286,-4.8639,-4.7813,-4.6901,-4.6622,-4.5582,-4.502,-4.5582,-4.5688,-4.5688,-4.5688,-4.6139,-4.6311,-4.5755,-4.6192,-4.6469,-4.6469,-4.6469,-4.6469,-4.6469,-4.6469,-4.6469,-4.6469,-4.6469,-4.6469,-4.6469,-4.6469,-4.6469,-4.6469,-4.6469,-4.6469,-4.6469,-4.6469,-4.6469,-3.9305,-3.9305,-3.9305,-3.9305,-3.9305,0.0,-3.9305,-3.9305,-3.9454,-3.9983,-4.0133,-4.035,-4.092,-4.1503,-4.191,-4.191,-4.2412,-4.2806,-4.2873,-4.2887,-4.2887,-4.2887,-4.2887,-4.309,-4.3669,-4.3723,-4.3904,-4.4461,-4.4569,-4.4637,-4.4705,-4.5207,-4.5492,-4.5492,-4.6075,-4.6374,-4.6374,-4.6442,-4.6469,-4.6469,-4.6469,-4.6469,-4.6469,-4.6469,-4.6469,-4.6469,-4.6469,-4.6469,-4.6469,-4.6469,-4.6469,-4.6469,-4.6469,-4.6469,-4.6469,-4.6469,-4.6469,-4.6469,-4.6469,-4.6874,-4.7309,-4.7309,-4.7608,-4.8002,-4.807,-4.8097,-4.8097,-4.8164,-4.8192,-4.8192,-4.8192,-4.8192,-4.8192,-4.8192,-4.8137,-4.8097,-4.8097,-4.8042,-4.7988,-4.7988,-4.6999,-4.638,-4.7149,-4.6156,-4.5529,-4.6364,-4.6469,-4.6469,-4.6469,-4.6469,-4.6469,-4.6469,-4.6469,-4.6469,-4.6469,-4.6469,-4.6469,-4.6469,-4.6469,-4.6469,-4.6469,-4.6469,-4.6469,-4.6469,-4.6469,-4.6469,-4.6469,-4.6469,-4.6469,-4.6469,-4.6469,-4.6469,-3.9305,-3.9305,-3.9305,-3.9305,-3.9305,0.0,-3.9305,-3.9305,-3.9332,0.0,-3.9848,-4.0228,-4.035,-4.0879,-4.13,-4.13,-4.1788,-4.2344,-4.2819,-4.2887,-4.2887,-4.2887,-4.2887,-4.2941,-4.305,-4.3063,-4.3104,-4.3226,-4.3687,-4.4176,-4.4678,-4.4814,-4.4881,-4.4881,-4.5451,-4.5763,-4.5763,-4.6238,-4.6469,-4.6469,-4.6469,-4.6469,-4.6469,-4.6469,-4.6469,-4.6469,-4.6469,-4.6469,-4.6469,-4.6469,-4.6469,-4.6469,-4.6469,-4.6469,-4.6469,-4.6469,-4.6469,-4.6469,-4.6469,-4.6603,-4.6698,-4.6698,-4.6727,-4.6903,-4.7391,-4.7541,-4.7636,-4.8056,-4.8192,-4.8192,-4.8192,-4.8192,-4.8192,-4.8192,-4.788,-4.7541,-4.7541,-4.7147,-4.6821,-4.6821,-4.7,-4.7028,-4.6727,-4.6445,-4.6311,-4.6469,-4.6469,-4.6469,-4.6469,-4.6469,-4.6469,-4.6469,-4.6469,-4.6469,-4.6469,-4.6469,-4.6469,-4.6469,-4.6469,-4.6469,-4.6469,-4.6469,-4.6469,-4.6469,-4.6469,-4.6469,-4.6469,-4.6469,-4.6469,-4.6469,-4.6469,-4.6469,-3.9305,-3.9305,-3.9305,-3.9305,-3.9305,0.0,0.0,-3.9305,-3.9305,-3.9305,-3.9536,-3.9739,-3.9739,-4.0241,-4.0648,-4.0648,-4.1164,-4.1666,-4.1964,-4.2521,-4.2887,-4.2887,-4.2887,-4.2887,-4.2887,-4.2887,-4.2887,-4.2887,-4.3158,-4.347,-4.3782,-4.4081,-4.4244,-4.4244,-4.4827,-4.5153,-4.5153,-4.5736,-4.6035,-4.6035,-4.6333,-4.6469,-4.6469,-4.6469,-4.6469,-4.6469,-4.6469,-4.6469,-4.6469,-4.6469,-4.6469,-4.6469,-4.6469,-4.6469,-4.6469,-4.6469,-4.6469,-4.6469,-4.6469,-4.6469,-4.6469,-4.6469,-4.6469,-4.6589,-4.6874,-4.6969,-4.7037,-4.7283,-4.7364,-4.7364,-4.7364,-4.7364,-4.7364,-4.7364,-4.7134,-4.6969,-4.6969,-4.6739,-4.6469,-4.6469,-4.6766,-4.6874,-4.6576,-4.6469,-4.6469,-4.6469,-4.6469,-4.6469,-4.6469,-4.6469,-4.6469,-4.6469,-4.6469,-4.6469,-4.6469,-4.6469,-4.6469,-4.6469,-4.6469,-4.6469,-4.6469,-4.6469,-4.6469,-4.6469,-4.6469,-4.6469,-4.6469,-4.6469,-4.6469,-4.6469,-4.6469,-4.6469,-3.9305,-3.9305,-3.9305,-3.9305,-3.9305,-3.9305,0.0,0.0,0.0,-3.9305,-3.9305,0.0,0.0,0.0,0.0,-4.0024,0.0,0.0,0.0,-4.1869,0.0,-4.2548,-4.2656,-4.2724,-4.2724,-4.2819,-4.2887,-4.2887,-4.2887,-4.2887,-4.2887,-4.3335,-4.3655,-4.3655,-4.4203,-4.4529,-4.4529,-4.5126,-4.5424,-4.5424,-4.6021,-4.6306,-4.6306,-4.6428,-4.6469,-4.6469,-4.6469,-4.6469,-4.6469,-4.6469,-4.6469,-4.6469,-4.6469,-4.6469,-4.6469,-4.6469,-4.6469,-4.6469,-4.6469,-4.6469,-4.6469,-4.6469,-4.6469,-4.6469,-4.6469,-4.6469,-4.6469,-4.6469,-4.6469,-4.6469,-4.6469,-4.6469,-4.6469,-4.6469,-4.6469,-4.6469,-4.6469,-4.6469,-4.6469,-4.6469,-4.6469,-4.6469,-4.6469,-4.6469,-4.6469,-4.6469,-4.6469,-4.6469,-4.6469,-4.6469,-4.6469,-4.6469,-4.6469,-4.6469,-4.6469,-4.6469,-4.6469,-4.6469,-4.6469,-4.6469,-4.6469,-4.6469,-4.6469,-4.6469,-4.6469,-4.6469,-4.6469,-4.6469,-4.6469,-4.6469,-4.6469,-4.6469,-3.9305,-3.9305,-3.9305,-3.9305,-3.9305,-3.9305,-3.9305,0.0,-3.9305,-3.9305,0.0,-3.9305,-3.9305,0.0,0.0,0.0,-3.9902,0.0,-4.0296,-4.0879,-4.1313,-4.1313,-4.1788,-4.21,-4.21,-4.2588,-4.2887,-4.2887,-4.2887,-4.2887,-4.2887,-4.2941,-4.2982,-4.2982,-4.3565,-4.3927,-4.3927,-4.4488,-4.48,-4.4814,-4.5397,-4.5682,-4.5709,-4.6238,-4.6469,-4.6469,-4.6469,-4.6469,-4.6469,-4.6469,-4.6469,-4.6469,-4.6469,-4.6469,-4.6469,-4.6469,-4.6469,-4.6469,-4.6469,-4.6469,-4.6469,-4.6469,-4.6469,-4.6469,-4.6469,-4.6469,-4.6469,-4.6469,-4.6469,-4.6469,-4.6469,-4.6469,-4.6469,-4.6469,-4.6469,-4.6469,-4.6469,-4.6469,-4.6469,-4.6469,-4.6469,-4.6469,-4.6469,-4.6469,-4.6469,-4.6469,-4.6469,-4.6469,-4.6469,-4.6469,-4.6469,-4.6469,-4.6469,-4.6469,-4.6469,-4.6469,-4.6469,-4.6469,-4.6469,-4.6469,-4.6469,-4.6469,-4.6469,-4.6469,-4.6469,-4.6469,-4.6469,-4.6469,-4.6469,-4.6469,-4.6469,-4.6469,-3.9305,-3.9305,-3.9305,-3.9305,-3.9305,-3.9305,-3.9305,-3.9305,-3.9305,-3.9305,0.0,0.0,0.0,0.0,0.0,0.0,-3.9509,-3.9671,0.0,0.0,-4.0323,-4.1042,-4.134,-4.1489,-4.1489,-4.172,-4.2005,-4.2344,-4.2371,-4.2521,-4.2873,-4.2887,-4.2887,-4.2887,-4.3131,-4.3267,-4.3267,-4.3864,-4.4162,-4.4176,-4.4786,-4.5085,-4.5098,-4.5682,-4.5967,-4.598,-4.6333,-4.6469,-4.6469,-4.6469,-4.6469,-4.6469,-4.6469,-4.6469,-4.6469,-4.6469,-4.6469,-4.6469,-4.6469,-4.6469,-4.6469,-4.6469,-4.6469,-4.6469,-4.6469,-4.6469,-4.6469,-4.6469,-4.6469,-4.6469,-4.6469,-4.6469,-4.6469,-4.6469,-4.6469,-4.6469,-4.6469,-4.6469,-4.6469,-4.6469,-4.6469,-4.6469,-4.6469,-4.6469,-4.6469,-4.6469,-4.6469,-4.6469,-4.6469,-4.6469,-4.6469,-4.6469,-4.6469,-4.6469,-4.6469,-4.6469,-4.6469,-4.6469,-4.6469,-4.6469,-4.6469,-4.6469,-4.6469,-4.6469,-4.6469,-4.6469,-4.6469,-4.6469,-4.6469,-4.6469,-4.6469,-4.6469,-3.9305,-3.9305,-3.9305,-3.9305,-3.9305,-3.9305,-3.9305,-3.9305,-3.9305,-3.9305,-3.9305,0.0,0.0,0.0,-3.9305,-3.9305,0.0,-3.9305,-3.9305,-3.9305,0.0,-4.0513,-4.077,-4.0933,-4.1096,-4.1123,-4.13,-4.1734,-4.191,-4.2195,-4.2629,-4.2806,-4.2887,-4.2887,-4.2887,-4.2887,-4.2887,-4.3308,-4.3525,-4.3538,-4.4149,-4.4447,-4.4474,-4.5071,-4.5343,-4.5383,-4.5967,-4.6225,-4.6252,-4.6401,-4.6469,-4.6469,-4.6469,-4.6469,-4.6469,-4.6469,-4.6469,-4.6469,-4.6469,-4.6469,-4.6469,-4.6469,-4.6469,-4.6469,-4.6469,-4.6469,-4.6469,-4.6469,-4.6469,-4.6469,-4.6469,-4.6469,-4.6469,-4.6469,-4.6469,-4.6469,-4.6469,-4.6469,-4.6469,-4.6469,-4.6469,-4.6469,-4.6469,-4.6469,-4.6469,-4.6469,-4.6469,-4.6469,-4.6469,-4.6469,-4.6469,-4.6469,-4.6469,-4.6469,-4.6469,-4.6469,-4.6469,-4.6469,-4.6469,-4.6469,-4.6469,-4.6469,-4.6469,-4.6469,-4.6469,-4.6469,-4.6469,-4.6469,-4.6469,-4.6469,-4.6469,-4.6469,-3.9305,-3.9305,-3.9305,-3.9305,-3.9305,-3.9305,-3.9305,-3.9305,-3.9305,-3.9305,-3.9305,-3.9305,-3.9305,-3.9305,-3.9305,-3.9305,-3.9305,0.0,0.0,-3.9305,-3.9319,-3.9359,-3.9861,-4.0458,-4.1055,-4.1123,-4.1123,-4.115,-4.1679,-4.2019,-4.2032,-4.2575,-4.2887,-4.2887,-4.2887,-4.2887,-4.2887,-4.2914,-4.2914,-4.2928,-4.3511,-4.3845,-4.3873,-4.4447,-4.4732,-4.4759,-4.537,-4.5614,-4.5655,-4.6238,-4.6469,-4.6469,-4.6469,-4.6469,-4.6469,-4.6469,-4.6469,-4.6469,-4.6469,-4.6469,-4.6469,-4.6469,-4.6469,-4.6469,-4.6469,-4.6469,-4.6469,-4.6469,-4.6469,-4.6469,-4.6469,-4.6469,-4.6469,-4.6469,-4.6469,-4.6469,-4.6469,-4.6469,-4.6469,-4.6469,-4.6469,-4.6469,-4.6469,-4.6469,-4.6469,-4.6469,-4.6469,-4.6469,-4.6469,-4.6469,-4.6469,-4.6469,-4.6469,-4.6469,-4.6469,-4.6469,-4.6469,-4.6469,-4.6469,-4.6469,-4.6469,-4.6469,-4.6469,-4.6469,-4.6469,-4.6469,-4.6469,-4.6469,-4.6469,-4.6469,-4.6469,-4.6469,-3.9305,-3.9305,-3.9305,-3.9305,-3.9305,-3.9305,-3.9305,-3.9305,-3.9305,-3.9305,-3.9305,-3.9305,-3.9305,-3.9305,-3.9305,-3.9305,-3.9305,-3.9305,0.0,-3.9305,-3.9305,-3.9305,-3.9481,-3.9685,-3.9902,-3.9916,-4.0078,-4.0472,-4.0689,-4.0987,-4.1394,-4.1978,-4.2304,-4.2304,-4.2683,-4.2887,-4.2887,-4.2887,-4.2887,-4.2887,-4.309,-4.3185,-4.3213,-4.381,-4.4081,-4.4122,-4.4732,-4.5221,-4.5614,-4.5804,-4.6116,-4.6469,-4.6469,-4.6469,-4.6469,-4.6469,-4.6469,-4.6469,-4.6469,-4.6469,-4.6469,-4.6469,-4.6469,-4.6469,-4.6469,-4.6469,-4.6469,-4.6469,-4.6469,-4.6469,-4.6469,-4.6469,-4.6469,-4.6469,-4.6469,-4.6469,-4.6469,-4.6469,-4.6469,-4.6469,-4.6469,-4.6469,-4.6469,-4.6469,-4.6469,-4.6469,-4.6469,-4.6469,-4.6469,-4.6469,-4.6469,-4.6469,-4.6469,-4.6469,-4.6469,-4.6469,-4.6469,-4.6469,-4.6469,-4.6469,-4.6469,-4.6469,-4.6469,-4.6469,-4.6469,-4.6469,-4.6469,-4.6469,-4.6469,-4.6469,-4.6075,-4.6102,-3.9305,-3.9305,-3.9305,-3.9305,-3.9305,-3.9305,-3.9305,-3.9305,-3.9305,-3.9305,-3.9305,-3.9305,-3.9305,-3.9305,-3.9305,-3.9305,-3.9305,-3.9305,0.0,-3.9305,-3.9305,-3.9305,-3.9305,-3.9305,-3.9305,-3.9305,-3.9454,-3.9848,-4.0065,-4.0363,-4.077,-4.1354,-4.1788,-4.1991,-4.2371,-4.267,-4.2887,-4.2887,-4.2887,-4.2887,-4.2887,-4.2887,-4.29,-4.328,-4.3457,-4.3497,-4.4108,-4.4596,-4.4963,-4.518,-4.5628,-4.6157,-4.6157,-4.6292,-4.6469,-4.6469,-4.6469,-4.6469,-4.6469,-4.6469,-4.6469,-4.6469,-4.6469,-4.6469,-4.6469,-4.6469,-4.6562,-4.6779,-4.6698,-4.6576,-4.6779,-4.6684,-4.6469,-4.6469,-4.6469,-4.6469,-4.6469,-4.6469,-4.6469,-4.6469,-4.6469,-4.6469,-4.6469,-4.6469,-4.6469,-4.6469,-4.6469,-4.6469,-4.6469,-4.6469,-4.6469,-4.6469,-4.6469,-4.6469,-4.6469,-4.6469,-4.6469,-4.6469,-4.6469,-4.6469,-4.6469,-4.6469,-4.6374,-4.6157,-4.636,-4.636,-4.6157,-4.6374,-4.636,-4.6143,-4.5763,-4.5682]},{"header":{"parameterUnit":"m.s-1","parameterCategory":1,"la1":30.6,"la2":29.2853,"lo1":-89.7004,"lo2":-87.6739,"dy":0.0162,"dx":0.0183,"nx":112,"ny":82,"refTime":"2023-08-03T00:00:00:Z","depth":0,"parameterNumber":3,"parameterNumberName":"V-component_of_WINDS"},"data":[0.0,0.0,0.0,0.0,0.0,0.0,0.0,0.0,0.0,0.0,0.0,0.0,0.0,0.0,0.0,0.0,0.0,0.0,0.0,0.0,0.0,0.0,0.0,0.0,0.0,0.0,0.0,0.0,0.0,0.0,0.0,0.0,0.0,0.0,0.0,0.0,0.0,0.0,0.0,0.0,0.0,0.0,0.0,0.0,0.0,0.0,0.0,0.0,0.0,0.0,0.0,0.0,0.0,0.0,0.0,0.0,0.0,0.0,0.0,0.0,0.0,0.0,0.0,0.0,0.0,0.0,0.0,0.0,0.0,0.0,0.0,0.0,0.0,0.0,0.0,0.0,0.0,0.0,0.0,0.0,0.0,0.0,0.0,0.0,0.0,0.0,0.0,0.0,0.0,0.0,-4.4895,-4.4895,-4.4895,-4.4887,-4.4779,-4.4764,-4.4733,-4.4625,0.0,0.0,0.0,0.0,0.0,0.0,0.0,0.0,0.0,0.0,0.0,0.0,0.0,0.0,0.0,0.0,0.0,0.0,0.0,0.0,0.0,0.0,0.0,0.0,0.0,0.0,0.0,0.0,0.0,0.0,0.0,0.0,0.0,0.0,0.0,0.0,0.0,0.0,0.0,0.0,0.0,0.0,0.0,0.0,0.0,0.0,0.0,0.0,0.0,0.0,0.0,0.0,0.0,0.0,0.0,0.0,0.0,0.0,0.0,0.0,0.0,0.0,0.0,0.0,0.0,0.0,0.0,0.0,0.0,0.0,0.0,0.0,0.0,0.0,0.0,0.0,0.0,0.0,0.0,0.0,0.0,0.0,0.0,0.0,0.0,0.0,0.0,0.0,0.0,0.0,0.0,0.0,0.0,0.0,0.0,0.0,0.0,0.0,0.0,0.0,0.0,0.0,0.0,0.0,-4.6296,-4.6296,-4.6296,-4.6065,-4.548,-4.5434,-4.5226,-4.4656,0.0,0.0,0.0,0.0,0.0,0.0,0.0,0.0,0.0,0.0,0.0,0.0,0.0,0.0,0.0,0.0,0.0,0.0,0.0,0.0,0.0,0.0,0.0,0.0,0.0,0.0,0.0,0.0,0.0,0.0,0.0,0.0,0.0,0.0,0.0,0.0,0.0,0.0,0.0,0.0,0.0,0.0,0.0,0.0,0.0,0.0,0.0,0.0,0.0,0.0,0.0,0.0,0.0,0.0,0.0,0.0,0.0,0.0,0.0,0.0,0.0,0.0,0.0,0.0,0.0,0.0,0.0,0.0,0.0,0.0,0.0,0.0,0.0,0.0,0.0,0.0,0.0,0.0,0.0,0.0,0.0,0.0,0.0,0.0,0.0,0.0,0.0,0.0,0.0,0.0,0.0,0.0,0.0,0.0,0.0,0.0,0.0,0.0,0.0,0.0,0.0,0.0,0.0,-4.6603,-4.6603,-4.6603,-4.6603,-4.648,-4.6157,-4.5803,-4.5464,-4.5141,-4.4825,0.0,0.0,0.0,0.0,0.0,0.0,0.0,0.0,0.0,0.0,0.0,0.0,0.0,0.0,0.0,0.0,0.0,0.0,0.0,0.0,0.0,0.0,0.0,0.0,0.0,0.0,0.0,0.0,0.0,0.0,0.0,0.0,0.0,0.0,0.0,0.0,0.0,0.0,0.0,0.0,0.0,0.0,0.0,0.0,0.0,0.0,0.0,0.0,0.0,0.0,0.0,0.0,0.0,0.0,0.0,0.0,0.0,0.0,0.0,0.0,0.0,0.0,0.0,0.0,0.0,0.0,0.0,0.0,0.0,0.0,0.0,0.0,0.0,0.0,0.0,0.0,0.0,0.0,0.0,0.0,0.0,0.0,0.0,0.0,0.0,0.0,0.0,0.0,0.0,0.0,0.0,0.0,0.0,0.0,0.0,0.0,0.0,0.0,0.0,0.0,0.0,0.0,-4.7065,-4.7065,-4.7065,-4.7065,-4.7004,-4.685,-4.6357,-4.5988,-4.5834,-4.5187,0.0,0.0,0.0,0.0,0.0,0.0,0.0,0.0,0.0,0.0,0.0,0.0,0.0,0.0,0.0,0.0,0.0,0.0,0.0,0.0,0.0,0.0,0.0,0.0,0.0,0.0,0.0,0.0,0.0,0.0,0.0,0.0,0.0,0.0,0.0,0.0,0.0,0.0,0.0,0.0,0.0,0.0,0.0,0.0,0.0,0.0,0.0,0.0,0.0,0.0,0.0,0.0,0.0,0.0,0.0,0.0,0.0,0.0,0.0,0.0,0.0,0.0,0.0,0.0,0.0,0.0,0.0,0.0,0.0,0.0,0.0,0.0,0.0,0.0,0.0,0.0,0.0,0.0,0.0,0.0,0.0,0.0,0.0,0.0,0.0,0.0,0.0,0.0,0.0,0.0,0.0,0.0,0.0,0.0,0.0,0.0,0.0,0.0,0.0,0.0,0.0,0.0,-4.8481,-4.8481,-4.8481,-4.8481,-4.8219,-4.7588,-4.7496,-4.7188,-4.6573,-4.5895,0.0,0.0,0.0,0.0,0.0,0.0,0.0,0.0,0.0,0.0,0.0,0.0,0.0,0.0,0.0,0.0,0.0,0.0,0.0,0.0,0.0,0.0,0.0,0.0,0.0,0.0,0.0,0.0,0.0,0.0,0.0,0.0,0.0,0.0,0.0,0.0,0.0,0.0,0.0,0.0,0.0,0.0,0.0,0.0,0.0,0.0,0.0,0.0,0.0,0.0,0.0,0.0,0.0,0.0,0.0,0.0,0.0,0.0,0.0,0.0,0.0,0.0,0.0,0.0,0.0,0.0,0.0,0.0,0.0,0.0,0.0,0.0,0.0,0.0,0.0,0.0,0.0,0.0,0.0,0.0,0.0,0.0,0.0,0.0,0.0,0.0,0.0,0.0,0.0,0.0,0.0,0.0,0.0,0.0,0.0,0.0,0.0,0.0,0.0,0.0,0.0,0.0,-4.862,-4.862,-4.862,-4.862,-4.8512,-4.8266,-4.785,-4.7496,-4.7234,0.0,0.0,0.0,0.0,0.0,0.0,0.0,0.0,0.0,0.0,0.0,0.0,0.0,0.0,0.0,0.0,0.0,0.0,0.0,0.0,0.0,0.0,0.0,0.0,0.0,0.0,0.0,0.0,0.0,0.0,0.0,0.0,0.0,0.0,0.0,0.0,0.0,0.0,0.0,0.0,0.0,0.0,0.0,0.0,0.0,0.0,0.0,0.0,0.0,0.0,0.0,0.0,0.0,0.0,0.0,0.0,0.0,0.0,0.0,0.0,0.0,0.0,0.0,0.0,0.0,0.0,0.0,0.0,0.0,0.0,0.0,0.0,0.0,0.0,0.0,0.0,0.0,0.0,0.0,0.0,0.0,0.0,0.0,0.0,0.0,0.0,0.0,0.0,0.0,0.0,0.0,0.0,0.0,0.0,0.0,0.0,0.0,0.0,0.0,0.0,0.0,0.0,-4.862,-4.862,-4.862,-4.862,-4.862,-4.862,-4.862,-4.8189,-4.7927,-4.7927,0.0,0.0,0.0,0.0,0.0,0.0,0.0,0.0,0.0,0.0,0.0,0.0,0.0,0.0,0.0,0.0,0.0,0.0,0.0,0.0,0.0,0.0,0.0,0.0,0.0,0.0,0.0,0.0,0.0,0.0,0.0,0.0,0.0,0.0,0.0,0.0,0.0,0.0,0.0,0.0,0.0,0.0,0.0,0.0,0.0,0.0,0.0,0.0,0.0,0.0,0.0,0.0,0.0,0.0,0.0,0.0,0.0,0.0,0.0,0.0,0.0,0.0,0.0,0.0,0.0,0.0,0.0,0.0,0.0,0.0,0.0,0.0,0.0,0.0,0.0,0.0,0.0,0.0,0.0,0.0,0.0,0.0,0.0,0.0,0.0,0.0,0.0,0.0,0.0,0.0,0.0,0.0,0.0,0.0,0.0,0.0,0.0,0.0,0.0,0.0,0.0,0.0,-4.862,-4.862,-4.862,-4.862,-4.862,-4.862,-4.862,-4.862,-4.862,0.0,0.0,0.0,0.0,0.0,0.0,0.0,0.0,0.0,0.0,0.0,0.0,0.0,0.0,0.0,0.0,0.0,0.0,0.0,0.0,0.0,0.0,0.0,0.0,0.0,0.0,0.0,0.0,0.0,0.0,0.0,0.0,0.0,0.0,0.0,0.0,0.0,0.0,0.0,0.0,0.0,0.0,0.0,0.0,0.0,0.0,0.0,0.0,0.0,0.0,0.0,0.0,0.0,0.0,0.0,0.0,0.0,0.0,0.0,0.0,0.0,0.0,0.0,0.0,0.0,0.0,0.0,0.0,0.0,0.0,0.0,0.0,0.0,0.0,0.0,0.0,0.0,0.0,0.0,0.0,0.0,0.0,0.0,0.0,0.0,0.0,0.0,0.0,0.0,0.0,0.0,0.0,0.0,0.0,0.0,0.0,0.0,0.0,0.0,0.0,0.0,0.0,0.0,-4.9435,-4.9374,-4.9174,-4.8666,-4.862,-4.862,-4.862,-4.862,-4.862,-4.862,0.0,0.0,0.0,0.0,0.0,0.0,0.0,0.0,0.0,0.0,0.0,0.0,0.0,0.0,0.0,0.0,0.0,0.0,0.0,0.0,0.0,0.0,0.0,0.0,0.0,0.0,0.0,0.0,0.0,0.0,0.0,0.0,0.0,0.0,0.0,0.0,0.0,0.0,0.0,0.0,0.0,0.0,0.0,0.0,0.0,0.0,0.0,0.0,0.0,0.0,0.0,0.0,0.0,0.0,0.0,0.0,0.0,0.0,0.0,0.0,0.0,0.0,0.0,0.0,0.0,0.0,0.0,0.0,0.0,0.0,0.0,0.0,0.0,0.0,0.0,0.0,0.0,0.0,0.0,0.0,0.0,0.0,0.0,0.0,0.0,0.0,0.0,0.0,0.0,0.0,0.0,0.0,0.0,0.0,0.0,0.0,0.0,0.0,0.0,0.0,0.0,0.0,-4.9312,-4.9251,-4.9097,-4.8666,-4.862,-4.862,-4.862,-4.862,-4.862,-4.862,0.0,0.0,0.0,0.0,0.0,0.0,0.0,0.0,0.0,0.0,0.0,0.0,0.0,0.0,0.0,0.0,0.0,0.0,0.0,0.0,0.0,0.0,0.0,0.0,0.0,0.0,0.0,0.0,0.0,0.0,0.0,0.0,0.0,0.0,0.0,0.0,0.0,0.0,0.0,0.0,0.0,0.0,0.0,0.0,0.0,0.0,0.0,0.0,0.0,0.0,0.0,0.0,0.0,0.0,0.0,0.0,0.0,0.0,0.0,0.0,0.0,0.0,0.0,0.0,0.0,0.0,0.0,0.0,0.0,0.0,0.0,0.0,0.0,0.0,0.0,0.0,0.0,0.0,0.0,0.0,0.0,0.0,0.0,0.0,0.0,0.0,0.0,0.0,0.0,0.0,0.0,0.0,0.0,0.0,0.0,0.0,0.0,0.0,0.0,0.0,0.0,0.0,-4.8727,-4.8712,-4.8696,-4.862,-4.862,-4.862,-4.862,-4.862,-4.862,-4.862,0.0,0.0,0.0,0.0,0.0,0.0,0.0,0.0,0.0,0.0,0.0,0.0,0.0,0.0,0.0,0.0,0.0,0.0,0.0,0.0,0.0,0.0,0.0,0.0,0.0,0.0,0.0,0.0,0.0,0.0,0.0,0.0,0.0,0.0,0.0,0.0,0.0,0.0,0.0,0.0,0.0,0.0,0.0,0.0,0.0,0.0,0.0,0.0,0.0,0.0,0.0,0.0,0.0,0.0,0.0,0.0,0.0,0.0,0.0,0.0,-4.8576,-4.856,0.0,0.0,0.0,0.0,0.0,0.0,0.0,0.0,0.0,0.0,0.0,0.0,0.0,0.0,0.0,0.0,0.0,0.0,0.0,0.0,0.0,0.0,0.0,0.0,0.0,0.0,0.0,0.0,0.0,0.0,0.0,0.0,0.0,0.0,0.0,0.0,0.0,0.0,0.0,0.0,-4.9528,-4.9466,-4.9235,-4.8681,-4.862,-4.862,-4.862,-4.862,-4.862,-4.862,-4.862,0.0,0.0,0.0,0.0,0.0,0.0,0.0,0.0,0.0,0.0,0.0,0.0,0.0,0.0,0.0,0.0,0.0,0.0,0.0,0.0,0.0,0.0,0.0,0.0,0.0,0.0,0.0,0.0,0.0,0.0,0.0,0.0,0.0,0.0,0.0,0.0,0.0,0.0,0.0,0.0,0.0,0.0,0.0,0.0,0.0,0.0,0.0,0.0,0.0,0.0,0.0,0.0,0.0,0.0,0.0,0.0,0.0,0.0,0.0,-4.9285,-4.8994,0.0,0.0,0.0,0.0,0.0,0.0,0.0,0.0,0.0,0.0,0.0,0.0,0.0,0.0,0.0,0.0,0.0,0.0,0.0,0.0,0.0,0.0,0.0,0.0,0.0,0.0,0.0,0.0,0.0,0.0,0.0,0.0,0.0,0.0,0.0,0.0,0.0,0.0,0.0,0.0,-4.922,-4.9174,-4.902,-4.865,-4.862,-4.862,-4.862,-4.862,-4.862,-4.862,-4.862,0.0,0.0,0.0,0.0,0.0,0.0,0.0,0.0,0.0,0.0,0.0,0.0,0.0,0.0,0.0,0.0,0.0,0.0,0.0,0.0,0.0,0.0,0.0,0.0,0.0,0.0,0.0,0.0,0.0,0.0,0.0,0.0,0.0,0.0,0.0,0.0,0.0,0.0,0.0,0.0,0.0,0.0,0.0,0.0,0.0,0.0,0.0,0.0,0.0,0.0,0.0,0.0,0.0,-4.9337,-4.971,-5.0293,-5.0293,-5.0617,-5.1118,-4.992,-4.9402,-4.9402,-4.9402,0.0,0.0,0.0,0.0,0.0,0.0,0.0,0.0,0.0,0.0,0.0,0.0,0.0,0.0,0.0,0.0,0.0,0.0,0.0,0.0,0.0,0.0,-4.8635,-4.8773,-4.8696,-4.8887,-4.9942,0.0,0.0,0.0,0.0,0.0,0.0,0.0,0.0,0.0,0.0,0.0,-4.8789,-4.8804,-4.885,-4.8958,-4.8974,-4.8974,-4.8974,-4.8974,-4.8974,-4.8974,-4.8974,-4.8927,0.0,0.0,0.0,0.0,0.0,0.0,0.0,0.0,0.0,0.0,0.0,0.0,0.0,0.0,0.0,0.0,0.0,0.0,0.0,0.0,0.0,0.0,0.0,0.0,0.0,0.0,0.0,0.0,0.0,0.0,0.0,0.0,-4.469,-4.4787,0.0,0.0,0.0,0.0,0.0,0.0,0.0,0.0,0.0,0.0,0.0,0.0,0.0,-4.8868,-4.8868,-4.9596,-4.9969,-4.9969,-5.06,-5.0957,-5.1038,-5.1038,-5.1086,-5.1167,-5.0973,0.0,-5.0908,-5.0908,0.0,0.0,0.0,0.0,0.0,0.0,0.0,0.0,0.0,0.0,0.0,0.0,0.0,0.0,0.0,0.0,0.0,0.0,0.0,0.0,0.0,0.0,-4.8773,-4.9389,-4.9066,-4.882,-4.9612,-4.9647,-4.9543,-4.9543,-4.962,-4.9682,0.0,0.0,0.0,0.0,0.0,0.0,-4.9466,-4.9543,-4.9774,-5.0359,-5.042,-5.042,-5.042,-5.042,-5.042,-5.042,-5.042,-5.0159,-4.9574,-4.9543,0.0,0.0,0.0,0.0,0.0,0.0,0.0,0.0,0.0,0.0,0.0,0.0,0.0,0.0,0.0,0.0,0.0,0.0,0.0,0.0,0.0,0.0,0.0,0.0,0.0,0.0,0.0,0.0,0.0,-4.516,-4.5516,-4.5921,-4.5969,-4.6083,0.0,0.0,0.0,0.0,0.0,0.0,0.0,0.0,0.0,-4.8576,-4.9256,-4.9629,-4.9629,-5.0341,-5.0714,-5.0714,-5.1038,-5.1183,-5.1183,-5.1183,-5.1183,-5.1183,-5.1183,-5.1183,-5.1183,-5.1183,-5.1183,-5.1183,0.0,0.0,0.0,0.0,-5.0347,-5.0136,-4.99,-4.9701,-4.9517,-4.9356,0.0,0.0,0.0,0.0,0.0,0.0,0.0,-4.862,-4.862,-4.862,-4.8696,-4.9004,-4.885,-4.8696,-4.902,-4.9081,-4.9081,-4.9081,-4.9081,-4.9204,-4.962,-4.942,0.0,0.0,0.0,-4.9897,-5.0205,-5.0251,-5.0359,-5.0667,-5.0697,-5.0697,-5.0697,-5.0697,-5.0697,-5.0697,-5.0697,-5.0559,-5.0266,-4.9882,-4.9543,0.0,0.0,0.0,0.0,0.0,0.0,0.0,0.0,0.0,0.0,0.0,0.0,0.0,0.0,0.0,0.0,0.0,0.0,0.0,0.0,0.0,0.0,0.0,0.0,0.0,0.0,0.0,0.0,-4.6122,-4.6379,-4.7204,-4.7048,-4.6945,0.0,0.0,0.0,0.0,0.0,0.0,-4.8269,-4.8916,-4.9269,-4.9269,-5.0001,-5.0374,-5.0374,-5.0924,-5.1183,-5.1183,-5.1183,-5.1183,-5.1183,-5.1183,-5.1183,-5.1183,-5.1183,-5.1146,-5.1016,-5.1016,-5.1016,-5.0978,-5.0525,-5.0331,-5.0292,-4.9995,-4.9836,-4.9717,-4.9396,-4.9235,-4.9113,-4.9113,-4.8893,-4.8661,-4.9031,0.0,0.0,0.0,0.0,-4.862,-4.862,-4.862,-4.8666,-4.885,-4.8881,-4.8943,-4.9112,-4.9143,-4.9097,-4.8912,-4.8881,-4.9112,-4.982,-4.9943,0.0,-5.062,-5.0697,-5.0759,-5.0928,-5.0959,-5.1021,-5.119,-5.1205,-5.1205,-5.1205,-5.1205,-5.1205,-5.1205,-5.1205,-5.1128,-5.0959,-5.0466,-5.0035,-4.9697,0.0,0.0,0.0,0.0,0.0,0.0,0.0,0.0,0.0,0.0,0.0,0.0,0.0,0.0,0.0,0.0,0.0,0.0,0.0,0.0,0.0,0.0,0.0,0.0,0.0,0.0,0.0,0.0,0.0,-4.8208,-4.7489,0.0,0.0,0.0,0.0,-4.7945,-4.8557,-4.8929,-4.8929,-4.9661,-5.005,-5.005,-5.0746,-5.1118,-5.1118,-5.1167,-5.1183,-5.1183,-5.1183,-5.1183,-5.1183,-5.1183,-5.1183,-5.1183,-5.1183,-5.094,-5.0525,-5.0525,-5.0525,-5.047,-5.0073,-4.9916,-4.9916,-4.9916,-4.9677,-4.9316,-4.9316,-4.899,-4.8661,-4.8661,-4.862,-4.8604,-4.862,-4.862,0.0,0.0,-4.862,-4.862,-4.862,-4.862,-4.8789,-4.9466,-4.9635,-4.9805,-5.0451,-5.059,-5.0405,-4.9758,-4.9635,-4.9851,-5.0528,0.0,-5.0651,-5.0682,-5.0697,-5.0928,-5.1575,-5.1652,-5.1898,-5.2544,-5.2606,-5.2606,-5.2606,-5.2606,-5.2606,-5.2606,-5.2606,-5.2313,-5.1682,-5.1621,-5.099,-4.9712,-4.9651,0.0,0.0,0.0,0.0,0.0,0.0,0.0,0.0,0.0,0.0,0.0,0.0,0.0,0.0,0.0,0.0,0.0,0.0,0.0,0.0,0.0,0.0,0.0,0.0,0.0,0.0,0.0,0.0,-4.7388,-4.7116,0.0,-4.7834,-4.7953,-4.8188,-4.8589,-4.9321,-4.9726,-4.9726,-5.0406,-5.0795,-5.0795,-5.1054,-5.1183,-5.1183,-5.1183,-5.1183,-5.1221,-5.1637,-5.1831,-5.1847,-5.2349,-5.256,-5.2521,-5.2216,-5.2019,-5.1805,-5.1227,-5.0665,-5.0058,-4.9677,-4.9517,-4.9477,-4.9178,-4.899,-4.8867,-4.8867,-4.8744,-4.862,-4.862,-4.8927,-4.9297,-4.9297,-4.9605,-4.9959,-4.9959,-4.9959,-4.9959,-4.9959,-4.9959,-5.002,-5.0266,-5.0328,-5.0528,-5.1205,-5.1344,-5.1405,-5.159,-5.0928,-5.0682,-5.1805,-5.199,-5.2283,-5.316,-5.3283,-5.3375,-5.3622,-5.3268,-5.3098,-5.3329,-5.2975,-5.2713,-5.2713,-5.2713,-5.2713,-5.2713,-5.2713,-5.2606,-5.2359,-5.1929,-5.1482,-5.099,-5.0128,-4.9558,0.0,0.0,0.0,0.0,0.0,0.0,0.0,0.0,0.0,0.0,0.0,0.0,0.0,0.0,0.0,0.0,0.0,0.0,0.0,0.0,0.0,0.0,0.0,0.0,0.0,0.0,-4.7014,-4.7354,-4.7344,-4.7529,-4.8174,-4.8521,-4.89,-4.9354,-5.005,-5.0471,-5.0471,-5.0924,-5.1183,-5.1183,-5.141,-5.1523,-5.1523,-5.1782,-5.1912,-5.1912,-5.2365,-5.2576,-5.2592,-5.3094,-5.3186,-5.3068,-5.2733,-5.2419,-5.2109,-5.1529,-5.083,-5.0141,-4.9895,-4.9771,-4.9729,-4.9438,-4.9312,-4.9312,-4.9312,-4.9312,-4.9312,-4.9312,-4.9635,-5.002,-5.002,-5.0343,-5.0697,-5.0697,-5.0697,-5.0697,-5.0697,-5.0697,-5.0759,-5.0974,-5.1036,-5.1221,-5.1898,-5.2052,-5.2175,-5.2621,-5.199,-5.1667,-5.256,-5.2713,-5.3021,-5.3914,-5.4052,-5.4052,-5.4052,-5.3668,-5.3375,-5.3375,-5.2975,-5.2713,-5.2713,-5.2713,-5.2713,-5.2713,-5.2713,-5.2713,-5.2713,-5.2283,-5.1929,-5.1698,-5.0374,-4.9739,-4.9785,0.0,0.0,0.0,0.0,0.0,0.0,0.0,0.0,0.0,0.0,0.0,0.0,0.0,0.0,0.0,0.0,0.0,0.0,0.0,0.0,0.0,0.0,0.0,-4.824,-4.7538,-4.7302,-4.8322,-4.8194,-4.8237,-4.874,-4.958,-5.0115,-5.0131,-5.0795,-5.1199,-5.1216,-5.1216,-5.1232,-5.1248,-5.1896,-5.222,-5.222,-5.2948,-5.3281,-5.3281,-5.3298,-5.3314,-5.3314,-5.3346,-5.3093,-5.2661,-5.262,-5.2172,-5.1339,-5.1339,-5.1099,-5.0759,-5.0713,-5.0697,-5.0697,-5.0697,-5.0697,-5.0697,-5.0697,-5.0697,-5.0697,-5.0697,-5.0713,-5.0728,-5.0728,-5.0743,-5.0759,-5.0759,-5.0759,-5.0759,-5.0759,-5.0759,-5.0928,-5.1575,-5.1728,-5.1913,-5.2606,-5.2744,-5.2744,-5.2744,-5.2744,-5.2744,-5.2744,-5.2744,-5.276,-5.2775,-5.2775,0.0,-5.2775,-5.276,-5.2744,-5.2744,-5.2729,-5.2713,-5.2713,-5.2713,-5.2713,-5.2713,-5.2713,-5.2713,-5.2713,-5.2713,-5.239,-5.1713,-5.0405,-4.9859,-4.9978,0.0,0.0,0.0,0.0,0.0,0.0,0.0,0.0,0.0,0.0,0.0,0.0,0.0,0.0,0.0,0.0,0.0,0.0,0.0,0.0,0.0,0.0,-4.7721,-4.8321,-4.7998,-4.8086,-4.914,-4.8933,-4.9148,-5.0171,-5.0167,-5.0325,-5.0843,-5.107,-5.1394,-5.1896,-5.1928,-5.2171,-5.2721,-5.2916,-5.3013,-5.3013,-5.3184,-5.3281,-5.3337,-5.3855,-5.3938,-5.36,-5.4154,-5.4147,-5.3687,-5.3332,-5.3017,-5.2816,-5.2438,-5.2233,-5.2052,-5.1082,-5.0697,-5.0697,-5.0697,-5.0697,-5.0697,-5.0697,-5.0697,-5.0697,-5.0697,-5.1021,-5.1436,-5.1436,-5.1759,-5.2159,-5.2159,-5.2159,-5.2159,-5.2159,-5.2159,-5.2206,-5.239,-5.2436,-5.2621,-5.3298,-5.3452,-5.3452,-5.3452,-5.3452,-5.3452,-5.3452,-5.3452,-5.3606,-5.4053,-5.4129,-5.4129,-5.4129,-5.3745,-5.3452,-5.3452,-5.3006,-5.2713,-5.2713,-5.2713,-5.2713,-5.2713,-5.2713,-5.2713,-5.2713,-5.2713,-5.239,-5.1713,-5.1163,-5.0565,0.0,0.0,0.0,0.0,0.0,0.0,0.0,0.0,0.0,0.0,0.0,0.0,0.0,0.0,0.0,0.0,0.0,0.0,0.0,0.0,0.0,0.0,-4.8117,-4.8216,-4.8497,-4.8427,-4.8598,-4.9273,-4.9602,-4.9994,-5.051,-5.0579,-5.0843,-5.1556,-5.1604,-5.1912,-5.2624,-5.2673,-5.2867,-5.3265,-5.3612,-5.3774,-5.3774,-5.4065,-5.4075,-5.393,-5.4349,-5.4482,-5.4295,-5.4423,-5.4417,-5.4194,-5.365,-5.3305,-5.31,-5.2788,-5.2713,-5.2637,0.0,0.0,0.0,0.0,-5.1544,-5.1544,-5.1544,-5.1544,-5.1544,-5.1544,-5.1805,-5.2129,-5.2129,-5.2406,-5.2713,-5.2713,-5.2713,-5.2713,-5.2713,-5.2713,-5.2713,-5.2713,-5.2713,-5.2821,-5.3221,-5.3298,-5.3298,-5.3298,-5.3298,0.0,-5.3298,-5.3298,-5.3437,-5.3822,-5.3837,-5.3837,-5.3837,-5.3545,-5.3298,-5.3298,-5.2944,-5.2713,-5.2713,-5.2713,0.0,0.0,0.0,-5.2713,-5.2713,-5.2713,0.0,0.0,0.0,-5.1254,-5.1122,-4.944,0.0,0.0,-5.0746,-5.0731,0.0,0.0,0.0,0.0,0.0,0.0,0.0,0.0,0.0,0.0,0.0,0.0,0.0,0.0,0.0,0.0,-4.8497,-4.8942,-4.9024,-4.9023,-4.9099,-4.9261,-5.0268,-5.0782,-5.0359,-5.0913,-5.1539,-5.2155,-5.2284,-5.2657,-5.3362,-5.3395,0.0,0.0,0.0,-5.4681,-5.4762,-5.5361,-5.5463,-5.513,-5.513,-5.5155,-5.5181,-5.4609,-5.4351,-5.4395,-5.3788,-5.3317,-5.2944,-5.2944,-5.2944,-5.2929,-5.2775,-5.2713,-5.2713,-5.2713,-5.2713,-5.2713,-5.2713,0.0,0.0,-5.2713,-5.2713,-5.2713,-5.2713,-5.2713,-5.2713,-5.2713,-5.2713,-5.2713,-5.2713,-5.2713,-5.2713,-5.2713,-5.2713,-5.2713,-5.2713,-5.2775,-5.2821,-5.2821,-5.2883,-5.2944,-5.2944,-5.2806,-5.2713,-5.2713,-5.2713,-5.2713,-5.2713,-5.2713,-5.2713,-5.2713,-5.2713,0.0,-5.2713,-5.2713,-5.2713,-5.2713,-5.2713,-5.2713,-5.2713,-5.2713,-5.2713,-5.2713,-5.1871,-5.1847,-5.2709,-5.0266,-4.9941,-5.1682,-5.1351,-5.1186,0.0,0.0,0.0,0.0,0.0,0.0,0.0,0.0,0.0,0.0,0.0,0.0,0.0,0.0,0.0,-4.975,-5.0037,-5.0426,-5.1044,-5.075,-5.0661,-5.1105,-5.1146,-5.1275,-5.1609,-5.1873,-5.2058,-5.2187,-5.2754,-5.3434,-5.4163,-5.4195,-5.4713,-5.5847,-5.6025,-5.6365,-5.6964,-5.7093,-5.7116,-5.7074,-5.7074,0.0,-5.5967,-5.5841,-5.535,-5.4607,-5.453,-5.4376,-5.4299,-5.4299,-5.4299,-5.4237,-5.3144,-5.2713,-5.2713,-5.2713,-5.2713,-5.2713,-5.2713,-5.2713,-5.2713,-5.2713,-5.2713,-5.2713,-5.2713,-5.2713,0.0,-5.2713,-5.2713,-5.2713,-5.2713,-5.2713,-5.2713,-5.2713,-5.2713,-5.2713,-5.2713,-5.3144,-5.3529,-5.3529,-5.3914,-5.4299,-5.4299,-5.3437,-5.2713,-5.2713,-5.2713,-5.2713,-5.2713,-5.2713,-5.2713,-5.2713,-5.2713,-5.2713,-5.2713,-5.2713,-5.2713,-5.2713,-5.2713,-5.2713,-5.2713,-5.2713,-5.2713,-5.2713,-5.2502,-5.2517,-5.2676,-5.2156,-5.2849,-5.4544,-5.2276,-5.1188,0.0,0.0,0.0,0.0,0.0,0.0,0.0,0.0,0.0,0.0,0.0,-4.8326,0.0,0.0,-5.0057,-5.0379,-5.0842,-5.1093,-5.0921,-5.0995,-5.1152,-5.1424,-5.188,-5.2137,-5.2088,-5.2508,-5.2916,-5.3272,-5.3644,-5.4325,-5.5393,-5.5442,-5.5928,-5.7012,-5.7029,-5.7207,-5.7621,-5.7621,-5.7494,-5.7265,-5.7007,-5.6702,-5.6317,-5.5745,-5.5364,-5.5191,-5.4868,-5.4683,-5.4683,-5.4683,-5.4683,-5.4621,-5.3945,-5.3729,-5.3729,-5.3729,-5.3729,-5.3729,-5.3729,-5.3729,-5.3729,-5.3729,-5.3729,-5.3729,-5.3729,-5.3729,-5.3729,-5.3729,-5.3729,-5.3729,-5.3729,-5.3729,-5.3729,-5.3729,-5.3729,-5.3729,-5.3729,-5.3945,-5.4176,-5.4176,-5.4452,-5.4683,-5.4683,-5.4129,-5.3729,-5.3729,-5.3729,-5.3606,-5.3252,-5.3221,-5.3083,-5.276,-5.2713,-5.2713,-5.2713,-5.2713,-5.2713,-5.2713,-5.2713,-5.2713,-5.2713,-5.2713,-5.2713,-5.2713,-5.2694,-5.3149,-5.4065,-5.3123,-5.3608,-5.5359,-5.3946,-5.2812,0.0,0.0,0.0,0.0,0.0,0.0,0.0,0.0,-4.8368,-4.8289,-4.8374,-4.8769,-4.9803,-5.0411,-5.0723,-5.0677,-5.1379,-5.162,-5.0819,-5.108,-5.1442,-5.1588,-5.2377,-5.28,-5.2436,-5.3094,-5.3823,-5.4551,-5.4729,-5.5361,-5.664,-5.6705,-5.7045,-5.7757,-5.7773,-5.7854,-5.8,-5.8,-5.7813,-5.7423,-5.6985,-5.6778,-5.6777,-5.5736,-5.5501,-5.5869,-5.5345,-5.513,-5.513,-5.513,-5.513,-5.513,-5.513,-5.513,-5.5099,-5.4775,-5.4683,-5.4683,-5.4683,-5.4683,-5.4683,-5.4683,-5.4683,-5.4683,-5.4683,-5.4683,-5.4683,-5.4683,-5.4683,-5.4683,-5.4683,-5.4683,-5.4683,-5.4683,-5.4683,-5.4683,-5.4683,-5.4775,-5.4868,-5.4868,-5.5037,-5.513,-5.513,-5.513,-5.5037,-5.4729,-5.4683,-5.4483,-5.3945,-5.3868,-5.3714,-5.316,-5.3098,-5.3052,-5.2914,-5.2914,-5.2852,-5.2729,-5.2713,-5.2713,-5.2713,-5.2713,-5.2713,-5.2713,-5.2688,-5.3573,-5.5427,-5.3946,-5.3987,-5.5397,-5.5407,-5.4389,-4.6876,-4.7555,0.0,-4.7218,-4.8418,-4.935,0.0,0.0,-4.8289,-4.7836,-4.8299,-4.8778,-4.8844,-5.0791,-5.2029,-5.1032,-5.1871,-5.2709,-5.2757,-5.2384,-5.2333,-5.3013,-5.2598,-5.2539,-5.3126,-5.3855,-5.4567,-5.5247,-5.5895,-5.6608,-5.7443,-5.7492,-5.7773,-5.8443,-5.8475,-5.8783,-5.9474,-5.9474,-5.943,-5.9386,-5.8883,-5.8464,-5.7993,-5.7418,-5.6977,-5.6686,-5.6609,-5.6579,-5.6579,-5.6579,-5.6579,-5.6579,-5.6579,-5.6579,-5.644,-5.5176,-5.4683,-5.4683,-5.4683,-5.4683,-5.4683,-5.4683,-5.4683,-5.4683,-5.4683,-5.4683,-5.4683,-5.4683,-5.4683,-5.4683,-5.4683,-5.4683,-5.4683,-5.4683,-5.4683,-5.4683,-5.4683,-5.5176,-5.5592,-5.5592,-5.6099,-5.6579,-5.6579,-5.6579,-5.613,-5.4914,-5.4683,-5.4652,-5.4591,-5.4575,-5.4545,-5.4468,-5.4468,-5.4222,-5.3668,-5.3606,-5.3345,-5.276,-5.2713,-5.2713,-5.2713,-5.2713,-5.2713,-5.2713,-5.2714,-5.3603,-5.5427,-5.5198,-5.5204,-5.5374,-5.5401,-5.4388,-4.6876,0.0,0.0,0.0,-4.8016,-4.8435,-4.7555,-4.7984,-4.8547,-4.8381,-4.9144,-4.9976,-5.0425,-5.138,-5.2068,0.0,-5.2547,-5.3016,-5.3091,-5.2976,-5.3126,-5.3855,-5.3677,-5.3596,-5.392,-5.4956,-5.5733,-5.6025,-5.6705,-5.7433,-5.8146,-5.8194,-5.8518,-5.9247,-5.9219,-5.9409,-5.9716,-5.9716,-5.9584,-5.9318,-5.8792,-5.8273,-5.7809,-5.7306,-5.6987,-5.681,-5.681,-5.681,-5.681,-5.681,-5.681,-5.681,-5.681,-5.681,-5.6748,-5.613,-5.5915,-5.5915,-5.5915,-5.5915,-5.5915,-5.5915,-5.5915,-5.5915,-5.5915,-5.5915,-5.5915,-5.5915,-5.5915,-5.5915,-5.5915,-5.5915,-5.5915,-5.5915,-5.5915,-5.5915,-5.5915,-5.613,-5.6315,-5.6315,-5.6609,-5.681,-5.681,-5.681,-5.6625,-5.6007,-5.5915,-5.5761,-5.5345,-5.5284,-5.5145,-5.4729,-5.4683,-5.4575,-5.4283,-5.3899,-5.3606,-5.3314,-5.2929,-5.2713,-5.2713,-5.2707,-5.2703,-5.2703,-5.375,-5.4656,-5.5405,-5.5384,-5.5382,-5.5382,-5.5418,-5.477,-4.6876,0.0,0.0,-4.7504,-4.7688,-4.7869,-4.78,-4.8261,-4.8723,-4.8835,-4.9821,-5.0842,-5.1237,-5.1693,-5.2063,-5.2333,-5.2792,-5.3095,-5.3142,-5.3431,-5.3887,-5.46,-5.4859,-5.4988,-5.4988,-5.5895,-5.6656,-5.7061,-5.7563,-5.8178,-5.8847,-5.888,-5.9079,-5.9464,-5.9628,-5.9628,-5.9496,-5.9628,-5.9452,-5.8988,-5.8457,-5.7933,-5.748,-5.7035,-5.681,-5.681,-5.681,-5.681,-5.681,-5.681,-5.681,-5.681,-5.681,-5.681,-5.681,-5.681,-5.681,-5.681,-5.681,-5.681,-5.681,-5.681,-5.681,-5.681,-5.681,-5.681,-5.681,-5.681,-5.681,-5.681,-5.681,-5.681,-5.681,-5.681,-5.681,-5.681,-5.681,-5.681,-5.681,-5.681,-5.681,-5.681,-5.681,-5.681,-5.681,-5.681,-5.681,-5.6625,-5.6053,-5.5992,-5.5807,-5.5345,-5.5284,-5.5207,-5.5007,-5.4345,-5.3883,-5.3729,-5.3083,-5.2713,-5.2713,-5.2717,-5.295,-5.3437,-5.4725,-5.5374,-5.5374,-5.5391,-5.5409,-5.5409,-5.5409,-5.515,0.0,0.0,-4.7571,-4.7048,-4.7655,-4.8328,-4.8044,-4.8364,-4.8769,-4.8943,-5.002,-5.0725,-5.0229,-5.16,-5.2435,-5.1413,-5.2293,-5.3163,-5.3269,-5.3904,-5.4616,-5.5296,-5.6008,-5.6429,0.0,-5.6462,-5.7077,-5.8427,-5.8556,-5.888,-5.9636,-5.9684,-5.9464,-5.9033,-5.9452,-5.948,-5.9033,-5.948,-5.9452,-5.8988,-5.8457,-5.7933,-5.748,-5.7035,-5.681,-5.681,-5.681,-5.681,-5.681,-5.681,-5.681,-5.681,-5.681,-5.681,-5.681,-5.681,-5.681,-5.681,-5.681,-5.681,-5.681,-5.681,-5.681,-5.681,-5.681,-5.681,-5.681,-5.681,-5.681,-5.681,-5.681,-5.681,-5.681,-5.681,-5.681,-5.681,-5.681,-5.681,-5.681,-5.681,-5.681,-5.681,-5.681,-5.681,-5.681,-5.681,-5.681,-5.6794,-5.6779,-5.6779,-5.6779,-5.6748,-5.6748,-5.6471,-5.5715,-5.5068,-5.4375,-5.376,-5.3083,-5.2713,-5.2713,-5.2717,-5.3559,-5.5304,-5.5368,-5.5374,-5.5374,-5.5391,-5.5409,-5.5409,-5.5409,-5.5409,-4.6876,0.0,-4.7671,-4.7471,-4.7688,-4.8035,-4.839,-4.8688,-4.9156,-5.0072,-5.0716,-5.1149,-5.1316,-5.1565,-5.1729,-5.1712,-5.2573,-5.3361,-5.3765,-5.4547,-5.5166,-5.5377,-5.6057,0.0,0.0,0.0,0.0,-5.8556,-5.9041,-5.9457,-5.97,-5.9716,-5.9628,-5.9496,-5.9628,-5.9628,-5.9496,-5.9302,-5.8988,-5.8457,-5.7668,-5.7178,-5.7035,-5.6858,-5.681,-5.681,-5.681,-5.681,-5.681,-5.681,-5.681,-5.681,-5.681,-5.681,-5.681,-5.681,-5.681,-5.681,-5.681,-5.681,-5.681,-5.681,-5.681,-5.681,-5.681,-5.681,-5.681,-5.681,-5.681,-5.681,-5.681,-5.681,-5.681,-5.681,-5.681,-5.681,-5.681,-5.681,-5.681,-5.681,-5.681,-5.681,-5.681,-5.681,-5.681,-5.681,-5.681,-5.681,-5.681,-5.681,-5.681,-5.681,-5.681,-5.6717,-5.6471,-5.5376,-5.4714,-5.4823,-5.3482,-5.2713,-5.2713,-5.2717,-5.3568,-5.5371,-5.5373,-5.5419,-5.5391,-5.5376,-5.5409,-5.5409,-5.5409,-5.5409,-4.6876,-4.715,-4.7387,-4.7387,-4.76,-4.7976,-4.8629,-4.9118,-4.9706,-5.0769,-5.1087,-5.1333,-5.1655,-5.1413,-5.1398,-5.1983,-5.2742,-5.3519,-5.4119,-5.4905,-5.5507,-5.5766,-5.6429,-5.7158,0.0,0.0,0.0,-5.8977,-5.9457,-5.9716,-5.9716,-5.954,-5.9452,-5.9452,-5.9452,-5.9452,-5.9452,-5.9168,-5.8655,-5.7933,-5.7163,-5.681,-5.681,-5.681,-5.681,-5.681,-5.681,-5.681,-5.681,-5.681,-5.681,-5.681,-5.681,-5.681,-5.681,-5.681,-5.681,-5.681,-5.681,-5.681,-5.681,-5.681,-5.681,-5.681,-5.681,-5.681,-5.681,-5.681,-5.681,-5.681,-5.681,-5.681,-5.681,-5.681,-5.681,-5.681,-5.681,-5.681,-5.681,-5.681,-5.681,-5.681,-5.681,-5.681,-5.681,-5.681,-5.681,-5.681,-5.681,-5.681,-5.681,-5.681,-5.681,-5.681,-5.681,-5.592,-5.5379,-5.5425,-5.3727,-5.2695,-5.2701,-5.2699,-5.3271,-5.4407,-5.4773,-5.4941,-5.4931,-5.481,-5.4877,-5.518,-5.4998,-5.5081,-4.6876,-4.6876,-4.6892,-4.6959,-4.7475,-4.8204,-4.888,-4.9613,-5.0309,-5.1038,-5.1183,-5.1183,0.0,0.0,-5.141,-5.209,-5.2835,-5.358,-5.4308,-5.4988,-5.5685,0.0,0.0,0.0,0.0,0.0,0.0,-5.9716,0.0,-5.9716,-5.9716,-5.9257,-5.8988,-5.9049,-5.8988,-5.8988,-5.8988,-5.8943,-5.8427,-5.7448,-5.6987,-5.681,-5.681,-5.681,-5.681,-5.681,-5.681,-5.681,-5.681,-5.681,-5.681,-5.681,-5.681,-5.681,-5.681,-5.681,-5.6761,-5.6761,-5.6761,-5.681,-5.681,-5.681,-5.681,-5.681,-5.681,-5.681,-5.681,-5.681,-5.681,-5.681,-5.681,-5.681,-5.681,-5.681,-5.6761,-5.6761,-5.681,-5.6761,-5.6761,-5.681,-5.681,-5.681,-5.681,-5.681,-5.681,-5.681,-5.681,-5.681,-5.681,-5.681,-5.681,-5.681,-5.681,-5.681,-5.681,-5.6637,-5.6233,-5.5576,-5.3846,-5.2885,-5.2841,-5.2741,-5.2703,-5.2691,-5.3585,-5.4044,-5.4071,-5.3753,-5.4009,-5.4765,-5.4301,-5.4555,-4.6876,-4.6876,-4.7022,-4.7589,-4.7864,-4.8333,-4.9548,-4.9969,-5.0309,-5.1038,-5.1183,-5.1183,0.0,0.0,0.0,-5.209,-5.2835,0.0,-5.4308,-5.4988,0.0,-5.6413,0.0,-5.7854,-5.8524,-5.9295,0.0,0.0,-5.9716,-5.9716,-5.9716,-5.9257,-5.9168,-5.9496,-5.9168,-5.8988,-5.8988,-5.8243,-5.759,-5.7002,-5.6858,-5.681,-5.681,-5.681,-5.681,-5.681,-5.681,-5.681,-5.681,-5.681,-5.681,-5.681,-5.681,-5.681,-5.681,-5.681,-5.639,-5.5933,-5.6552,-5.681,-5.681,-5.681,-5.681,-5.681,-5.681,-5.681,-5.681,-5.681,-5.681,-5.681,-5.681,-5.681,-5.681,-5.681,-5.6293,-5.5983,-5.6649,-5.6293,-5.6032,-5.6664,-5.681,-5.681,-5.681,-5.681,-5.681,-5.681,-5.681,-5.681,-5.681,-5.681,-5.681,-5.681,-5.681,-5.681,-5.681,-5.6637,-5.6762,-5.7464,-5.6233,-5.5238,-5.4731,-5.3401,-5.2707,-5.2699,-5.3365,-5.3726,-5.3722,-5.3875,-5.4082,-5.4274,-5.4146,-5.4231,-4.6687,-4.6772,-4.707,-4.7831,-4.8236,-4.8738,-4.9855,-5.0341,-5.0697,-5.1102,-5.1183,0.0,0.0,0.0,0.0,0.0,0.0,0.0,-5.4308,-5.4988,-5.5798,0.0,-5.7336,0.0,-5.8977,-5.9474,-5.9716,0.0,-5.9716,-5.9628,-5.9391,-5.8927,-5.8882,-5.9407,-5.8701,-5.8335,-5.8335,-5.7762,-5.7258,-5.681,-5.681,-5.681,-5.681,-5.681,-5.681,-5.681,-5.681,-5.681,-5.681,-5.681,-5.681,-5.6761,-5.6406,-5.6244,-5.6195,-5.5834,-5.5371,-5.5104,-5.5933,-5.6244,-5.6293,-5.6664,-5.681,-5.681,-5.681,-5.681,-5.681,-5.681,-5.6503,-5.6308,-5.6713,-5.6503,-5.6357,-5.6713,-5.6454,-5.6195,-5.6697,-5.6406,-5.6244,-5.6713,-5.681,-5.681,-5.681,-5.681,-5.681,-5.681,-5.681,-5.681,-5.681,-5.681,-5.681,-5.681,-5.681,-5.681,-5.681,-5.6869,-5.7262,-5.7934,-5.7917,-5.7226,-5.5886,-5.5165,-5.4245,-5.3142,-5.3696,-5.3865,-5.3616,-5.3537,-5.3568,-5.3785,-5.3568,-5.3714,-4.6407,-4.6663,-4.7216,-4.7961,-4.8621,-4.9317,-5.0082,-5.073,-5.1183,-5.1183,0.0,-5.1183,-5.1183,-5.1183,-5.1442,-5.2126,0.0,-5.3573,-5.4261,-5.4956,-5.5903,-5.7359,-5.7494,-5.8087,-5.9571,-5.9628,-5.9628,-5.9628,-5.9628,-5.9452,-5.9033,-5.8411,-5.8319,-5.8808,-5.8011,-5.7574,-5.748,-5.7448,-5.7211,-5.681,-5.681,-5.681,-5.681,-5.681,-5.681,-5.681,-5.681,-5.681,-5.681,-5.681,-5.681,-5.6713,-5.5834,-5.5521,-5.5421,-5.4611,-5.4252,-5.4237,-5.5069,-5.527,-5.532,-5.6293,-5.6713,-5.6761,-5.6552,-5.66,-5.6761,-5.6552,-5.5983,-5.567,-5.6454,-5.6096,-5.5735,-5.66,-5.6713,-5.6649,-5.6761,-5.681,-5.681,-5.681,-5.681,-5.681,-5.681,-5.681,-5.681,-5.681,-5.681,-5.681,-5.681,-5.681,-5.681,-5.681,-5.681,-5.681,-5.681,-5.7211,-5.7556,-5.7675,-5.8834,-5.8627,-5.6666,-5.7058,-5.6241,-5.4056,-5.4262,-5.4202,-5.3803,-5.3044,-5.2922,-5.3377,-5.2922,-5.3144,-4.6407,-4.7033,-4.7977,-4.8673,-4.9386,-5.0098,-5.0827,-5.1086,0.0,0.0,-5.1183,-5.1183,-5.1183,-5.1183,0.0,-5.2412,0.0,0.0,0.0,0.0,-5.5779,0.0,0.0,0.0,0.0,-5.9347,0.0,0.0,-5.9123,-5.9094,-5.8988,-5.8135,-5.7668,-5.7778,-5.7995,-5.7887,-5.748,-5.7131,-5.6906,-5.681,-5.681,-5.681,-5.681,-5.681,-5.681,-5.681,-5.681,-5.681,-5.681,-5.681,-5.681,-5.6713,-5.5834,-5.5521,-5.5421,-5.4611,-5.3823,-5.3337,-5.4237,-5.4031,-5.3704,-5.5205,-5.6195,-5.6552,-5.517,-5.5685,-5.6503,-5.5119,-5.5119,-5.5521,-5.5685,-5.562,-5.5735,-5.66,-5.6244,-5.5933,-5.6649,-5.681,-5.681,-5.681,-5.681,-5.681,-5.681,-5.681,-5.681,-5.681,-5.681,-5.681,-5.681,-5.681,-5.681,-5.681,-5.681,-5.681,-5.681,-5.7211,-5.7542,-5.7683,-5.8167,-5.8201,-5.7666,-5.703,-5.6543,-5.6308,-5.4701,-5.4181,-5.4853,-5.3408,-5.2922,-5.3377,-5.2922,-5.2803,-4.6356,-4.713,-4.8171,-4.8816,-4.9564,-5.0293,-5.1021,0.0,0.0,0.0,-5.1183,-5.1183,-5.1183,0.0,0.0,0.0,0.0,0.0,0.0,0.0,0.0,0.0,0.0,0.0,0.0,-5.9496,-5.9257,-5.9033,-5.8746,-5.8457,-5.8243,-5.7762,-5.7401,-5.7131,-5.7574,-5.7621,-5.7131,-5.6891,-5.681,-5.681,-5.681,-5.681,-5.681,-5.681,-5.681,-5.681,-5.681,-5.681,-5.6761,-5.6293,-5.6145,-5.5998,-5.4684,-5.4223,-5.4119,-5.3299,-5.2716,-5.2516,-5.3337,-5.3337,-5.3112,-5.3964,-5.48,-5.5371,-5.456,-5.4866,-5.532,-5.4509,-5.4237,-5.4326,-5.475,-5.4866,-5.5069,-5.5933,-5.6145,-5.6293,-5.6713,-5.681,-5.681,-5.681,-5.681,-5.681,-5.681,-5.681,-5.681,-5.681,-5.681,-5.681,-5.681,-5.681,-5.681,-5.681,-5.681,-5.681,-5.681,-5.6987,-5.7146,-5.7225,-5.7605,-5.7792,-5.7707,-5.7492,-5.7269,-5.7039,-5.5792,-5.5034,-5.4747,-5.3737,-5.3142,-5.3055,-5.2788,-5.2713,-4.6285,-4.7171,-4.8223,-4.874,-4.9604,-5.045,-5.0925,-5.1146,0.0,0.0,-5.1183,-5.1183,-5.1183,0.0,0.0,0.0,0.0,0.0,0.0,0.0,0.0,0.0,0.0,0.0,0.0,0.0,0.0,-5.8853,-5.8273,-5.7762,-5.7353,-5.7527,-5.7401,-5.681,-5.7353,-5.7401,-5.681,-5.681,-5.681,-5.681,-5.681,-5.681,-5.681,-5.66,-5.6503,-5.6503,-5.6342,-5.6244,-5.6195,-5.5521,-5.522,-5.5104,-5.36,-5.302,-5.2914,-5.2099,-5.1787,-5.1896,-5.2502,-5.2755,-5.2755,-5.2755,-5.3457,-5.4252,-5.3875,-5.4045,-5.4252,-5.389,-5.3404,-5.3179,-5.3823,-5.4031,-5.4237,-5.5069,-5.5907,-5.6526,-5.6521,-5.6664,-5.681,-5.681,-5.681,-5.681,-5.681,-5.681,-5.681,-5.681,-5.681,-5.681,-5.681,-5.681,-5.681,-5.681,-5.681,-5.681,-5.681,-5.681,-5.681,-5.681,-5.7131,-5.7401,-5.7495,-5.7762,-5.7744,-5.7437,-5.6714,-5.5874,-5.4979,-5.4127,-5.3482,-5.3049,-5.282,-5.2713,-4.623,-4.7345,-4.8455,-4.8429,-4.9769,-5.1027,-5.0624,0.0,0.0,-5.1183,-5.1183,-5.1183,-5.1183,-5.1183,0.0,0.0,0.0,0.0,0.0,0.0,0.0,0.0,0.0,0.0,0.0,0.0,0.0,-5.8257,-5.7448,-5.6891,-5.6858,-5.7668,-5.7715,-5.681,-5.7668,-5.7715,-5.681,-5.681,-5.681,-5.681,-5.681,-5.681,-5.6761,-5.5983,-5.562,-5.5571,-5.4866,-5.456,-5.4494,-5.4443,-5.4406,-5.4289,-5.339,-5.302,-5.2914,-5.2099,-5.1787,-5.1787,-5.1896,-5.1896,-5.1896,-5.1896,-5.2982,-5.4045,-5.2476,-5.3088,-5.3979,-5.2462,-5.2516,-5.302,-5.3126,-5.3126,-5.3337,-5.4186,-5.5025,-5.5631,-5.5629,-5.6244,-5.681,-5.681,-5.681,-5.681,-5.681,-5.681,-5.681,-5.681,-5.681,-5.681,-5.681,-5.681,-5.681,-5.681,-5.681,-5.681,-5.681,-5.681,-5.681,-5.681,-5.6858,-5.7035,-5.748,-5.7131,-5.7322,-5.807,-5.656,-5.6155,-5.6936,-5.4774,-5.3911,-5.4208,-5.3155,-5.2713,-4.6458,-4.7553,-4.8535,-4.8703,-5.0004,-5.1146,-5.0962,0.0,0.0,-5.1183,-5.1183,-5.1183,-5.1183,-5.1183,-5.1615,0.0,0.0,0.0,0.0,0.0,0.0,0.0,0.0,0.0,0.0,0.0,-5.8365,-5.8211,-5.7353,-5.681,-5.681,-5.7163,-5.7178,-5.681,-5.7163,-5.7178,-5.681,-5.681,-5.681,-5.681,-5.6244,-5.6032,-5.5998,-5.517,-5.4764,-5.475,-5.4458,-5.4304,-5.4237,-5.3704,-5.3495,-5.3442,-5.2609,-5.2301,-5.2247,-5.195,-5.1787,-5.1787,-5.1787,-5.1787,-5.1787,-5.1787,-5.2261,-5.2677,-5.199,-5.2261,-5.2677,-5.2004,-5.2045,-5.2301,-5.2301,-5.2662,-5.3337,-5.4699,-5.527,-5.5641,-5.6149,-5.6552,-5.681,-5.681,-5.681,-5.681,-5.681,-5.681,-5.681,-5.681,-5.681,-5.681,-5.681,-5.681,-5.681,-5.681,-5.681,-5.681,-5.681,-5.681,-5.681,-5.681,-5.681,-5.6906,-5.7083,-5.6906,-5.7002,-5.7353,-5.6709,-5.612,-5.5673,-5.4777,-5.399,-5.3369,-5.2927,-5.2713,-4.6282,-4.7445,-4.8387,-4.8577,-4.9929,-5.1146,0.0,0.0,0.0,-5.1183,-5.1183,-5.1183,-5.1183,-5.1183,-5.1615,0.0,0.0,0.0,0.0,0.0,0.0,0.0,0.0,0.0,0.0,-5.7999,-5.8335,-5.7793,-5.7163,-5.681,-5.681,-5.681,-5.681,-5.681,-5.6939,-5.6939,-5.681,-5.681,-5.6664,-5.6406,-5.5785,-5.5371,-5.5119,-5.4289,-5.3927,-5.3927,-5.3666,-5.3562,-5.3509,-5.2876,-5.2662,-5.2609,-5.2045,-5.1787,-5.1787,-5.1787,-5.1787,-5.1787,-5.1787,-5.1787,-5.1787,-5.1787,-5.1787,-5.1787,-5.1787,-5.1787,-5.1787,-5.1787,-5.1787,-5.1787,-5.1787,-5.2193,-5.302,-5.4428,-5.4953,-5.5371,-5.6244,-5.66,-5.681,-5.681,-5.681,-5.681,-5.681,-5.681,-5.681,-5.681,-5.681,-5.681,-5.681,-5.681,-5.681,-5.681,-5.681,-5.681,-5.681,-5.681,-5.681,-5.681,-5.681,-5.681,-5.681,-5.681,-5.681,-5.681,-5.681,-5.6176,-5.5022,-5.4775,-5.4083,-5.3006,-5.2806,-5.2713,-4.5578,-4.6824,-4.7884,-4.7846,-4.9501,-5.107,0.0,0.0,0.0,-5.1183,-5.1183,-5.1183,-5.1183,-5.1183,-5.1522,-5.2453,0.0,0.0,0.0,0.0,0.0,0.0,0.0,0.0,0.0,-5.7401,-5.7306,-5.6858,-5.681,0.0,-5.681,-5.681,-5.681,-5.681,-5.7258,-5.7258,-5.681,-5.681,-5.6357,-5.5521,-5.5521,-5.5069,-5.4304,-5.339,-5.302,-5.2967,-5.2153,-5.1841,-5.1841,-5.1841,-5.1787,-5.1787,-5.1787,-5.1787,-5.1787,-5.1787,-5.1787,-5.1787,-5.1787,-5.1787,-5.1787,-5.1787,-5.1787,-5.1787,-5.1787,-5.1787,-5.1787,-5.1787,-5.1787,-5.1787,-5.1787,-5.1787,-5.199,-5.2808,-5.3652,-5.456,-5.532,-5.6195,-5.681,-5.681,-5.681,-5.681,-5.681,-5.681,-5.681,-5.681,-5.681,-5.681,-5.681,-5.681,-5.681,-5.681,-5.681,-5.681,-5.681,-5.681,-5.681,-5.681,-5.681,-5.681,-5.681,-5.681,-5.681,-5.681,-5.681,-5.6455,-5.5684,-5.5037,-5.4329,-5.3653,-5.3021,-5.2713,-4.616,-4.6979,-4.7643,-4.8322,-4.9592,-5.0679,-5.0525,0.0,0.0,-5.1183,-5.1183,-5.1183,-5.1183,-5.1183,-5.1522,-5.2453,0.0,0.0,0.0,0.0,0.0,0.0,0.0,0.0,0.0,0.0,-5.7083,-5.7274,-5.6987,-5.681,-5.681,-5.681,-5.681,-5.681,-5.6939,-5.6954,-5.681,-5.6195,-5.5785,-5.5471,-5.4326,-5.3652,-5.339,-5.257,-5.2207,-5.2153,-5.1896,-5.1787,-5.1787,-5.1787,-5.1787,-5.1787,-5.1787,-5.1787,-5.1787,-5.1787,-5.1787,-5.1787,-5.1787,-5.1787,-5.1787,-5.1787,-5.1787,-5.1787,-5.1787,-5.1787,-5.1787,-5.1787,-5.1787,-5.1787,-5.1787,-5.1787,-5.199,-5.2808,-5.3198,-5.3832,-5.519,-5.5735,-5.6096,-5.6697,-5.681,-5.681,-5.681,-5.681,-5.681,-5.681,-5.681,-5.681,-5.681,-5.681,-5.681,-5.681,-5.681,-5.681,-5.681,-5.681,-5.681,-5.681,-5.681,-5.681,-5.681,-5.681,-5.681,-5.681,-5.6284,-5.5699,-5.5037,-5.436,-5.3653,-5.3021,-5.2806,-5.2713,0.0,-4.6908,-4.769,-4.8451,-4.9557,0.0,0.0,0.0,0.0,0.0,-5.1183,-5.1183,-5.1183,-5.1183,-5.1446,-5.2236,-5.2893,0.0,0.0,0.0,0.0,0.0,0.0,0.0,0.0,-5.7083,-5.6906,-5.7211,-5.6987,-5.6664,-5.6357,-5.6293,-5.6195,-5.5884,-5.6145,-5.6145,-5.5834,-5.532,-5.4902,-5.4531,-5.348,-5.2861,-5.2502,-5.2045,-5.1787,-5.1787,-5.1787,-5.1787,0.0,-5.1787,-5.1787,-5.1787,-5.1787,-5.1787,-5.1787,-5.1787,-5.1787,-5.1787,-5.1787,-5.1787,-5.1787,-5.1787,-5.1787,-5.1787,-5.1787,-5.1787,-5.1787,-5.1787,-5.1787,-5.1787,-5.1787,-5.1787,-5.1978,-5.2823,-5.3011,-5.3364,-5.472,-5.527,-5.5731,-5.665,-5.6787,-5.681,-5.681,-5.681,-5.681,-5.681,-5.681,-5.681,-5.681,-5.681,-5.681,-5.681,-5.681,-5.681,-5.681,-5.681,-5.681,-5.681,-5.681,-5.681,-5.681,-5.681,-5.6686,-5.6409,-5.5915,-5.5253,-5.4299,-5.3668,-5.3129,-5.2713,-5.2713,-5.2713,0.0,0.0,0.0,0.0,0.0,0.0,0.0,0.0,0.0,0.0,0.0,0.0,-5.1183,-5.1183,-5.1353,-5.1799,0.0,0.0,0.0,0.0,0.0,0.0,0.0,0.0,-5.737,-5.7083,-5.6761,-5.6713,-5.6713,-5.6342,-5.5471,-5.5421,-5.5069,-5.4237,-5.4953,-5.5018,-5.4304,-5.4252,-5.3823,-5.302,-5.2967,-5.2502,-5.1787,-5.1787,-5.1787,-5.1787,-5.1787,-5.1787,-5.1787,-5.1787,-5.1787,-5.1787,-5.1787,-5.1787,-5.1787,-5.1787,-5.1787,-5.1787,-5.1787,-5.1787,-5.1787,-5.1787,-5.1787,-5.1787,-5.1787,-5.1787,-5.1787,-5.1787,-5.1787,-5.1787,-5.1787,-5.1787,-5.1994,-5.2717,-5.2909,-5.3126,-5.4031,-5.4851,-5.5671,-5.6601,-5.6807,-5.681,-5.681,-5.681,-5.681,-5.681,-5.681,-5.681,-5.681,-5.681,-5.681,-5.681,-5.681,-5.681,-5.681,-5.681,-5.681,-5.681,-5.681,-5.6794,-5.6733,-5.6733,-5.6394,-5.5638,-5.5576,-5.4914,-5.3652,-5.3021,-5.2713,-5.2713,-5.2713,-5.2713,-4.6034,0.0,-4.7622,-4.8326,-4.9311,0.0,0.0,0.0,0.0,0.0,0.0,0.0,0.0,0.0,0.0,0.0,0.0,0.0,0.0,0.0,0.0,0.0,0.0,-5.5626,-5.6831,-5.6858,-5.6503,-5.5834,-5.5785,-5.5471,-5.4611,-5.4597,-5.4186,-5.3337,-5.3495,-5.3808,-5.4304,-5.3652,-5.3179,-5.2967,-5.2355,-5.199,-5.1787,-5.1787,-5.1787,-5.1787,-5.1787,-5.1787,-5.1787,-5.1787,-5.1787,-5.1787,-5.1787,-5.1787,-5.1787,-5.1787,-5.1787,-5.1787,-5.1787,-5.1787,-5.1787,-5.1787,-5.1787,-5.1787,-5.1787,-5.1787,-5.1787,-5.1787,-5.1787,-5.1787,-5.1787,-5.1787,-5.1869,-5.2022,-5.2061,-5.2301,-5.3126,-5.3964,-5.5015,-5.6501,-5.6807,-5.681,-5.681,-5.681,-5.681,-5.681,-5.681,-5.681,-5.681,-5.681,-5.681,-5.681,-5.681,-5.681,-5.681,-5.681,-5.681,-5.681,-5.681,-5.6563,-5.5961,-5.5946,-5.5638,-5.4976,-5.4453,-5.3775,-5.2944,-5.279,-5.2713,-5.2713,-5.2713,-5.2713,-4.6234,-4.6935,-4.7528,-4.8363,-4.9113,-4.9677,0.0,0.0,0.0,0.0,0.0,0.0,0.0,0.0,0.0,0.0,0.0,0.0,0.0,0.0,0.0,0.0,0.0,-5.5592,0.0,-5.6454,-5.5983,-5.5536,-5.517,-5.4597,-5.3756,-5.3704,-5.3337,-5.2448,-5.2448,-5.2677,-5.3155,-5.2677,-5.2448,-5.2448,-5.199,-5.1787,-5.1787,-5.1787,-5.1787,-5.1787,-5.1787,-5.1787,-5.1787,-5.1787,-5.1787,-5.1787,-5.1787,-5.1787,-5.1787,-5.1787,-5.1787,-5.1787,-5.1787,-5.1787,-5.1787,-5.1787,-5.1787,-5.1787,-5.1787,-5.1787,-5.1787,-5.1787,-5.1787,-5.1787,-5.1787,-5.1787,-5.1787,-5.1787,-5.1787,-5.2045,-5.2808,-5.3498,-5.4244,-5.5416,-5.6289,-5.681,-5.681,-5.681,-5.681,-5.681,-5.681,-5.681,-5.681,-5.681,-5.681,-5.681,-5.681,-5.681,-5.681,-5.6502,-5.6455,-5.6794,-5.6502,-5.6099,-5.5715,-5.5407,-5.4945,-5.4237,-5.356,-5.3083,-5.2713,-5.2713,-5.2713,-5.2713,-5.2713,-5.2713,-4.6234,-4.6895,-4.7434,-4.8363,-4.899,-4.9477,0.0,0.0,0.0,0.0,0.0,0.0,0.0,0.0,0.0,0.0,0.0,0.0,0.0,0.0,0.0,0.0,-5.5113,0.0,-5.6524,-5.5834,-5.527,-5.5104,-5.4494,-5.3719,-5.2861,-5.2808,-5.2502,-5.1841,-5.1787,-5.1787,-5.1787,-5.1787,-5.1787,-5.1787,-5.1787,-5.1787,-5.1787,-5.1787,-5.1787,-5.1787,-5.1787,-5.1787,-5.1787,-5.1787,-5.1787,-5.1787,-5.1787,-5.1787,-5.1787,-5.1787,-5.1787,-5.1787,-5.1787,-5.1787,-5.1787,-5.1787,-5.1787,-5.1787,-5.1787,-5.1787,-5.1787,-5.1787,-5.1787,-5.1787,-5.1787,-5.1787,-5.1787,-5.1787,-5.1787,-5.2045,-5.2808,-5.3262,-5.37,-5.4306,-5.5694,-5.681,-5.681,-5.681,-5.681,-5.681,-5.681,-5.681,-5.681,-5.681,-5.681,-5.681,-5.6717,-5.664,-5.664,-5.5961,-5.5807,-5.6455,-5.5884,-5.5499,-5.5391,-5.476,-5.4114,-5.3575,-5.3006,-5.2713,-5.2713,-5.2713,-5.2713,-5.2713,-5.2713,-5.2713,-4.6234,-4.6643,-4.7006,-4.8281,-4.9219,-4.9836,0.0,0.0,0.0,0.0,0.0,0.0,0.0,0.0,0.0,0.0,0.0,0.0,0.0,0.0,-5.3329,-5.4529,0.0,-5.4325,-5.5564,-5.4968,-5.4186,-5.3442,-5.3285,-5.2861,-5.2045,-5.199,-5.195,-5.1787,-5.1787,-5.1787,-5.1787,-5.1787,-5.1787,-5.1787,-5.1787,-5.1787,-5.1787,-5.1787,-5.1787,-5.1787,-5.1787,-5.1787,-5.1787,-5.1787,-5.1787,-5.1787,-5.1787,-5.1787,-5.1787,-5.1787,-5.1787,-5.1787,-5.1787,-5.1787,-5.1787,-5.1787,-5.1787,-5.1787,-5.1787,-5.1787,-5.1787,-5.1787,-5.1787,-5.1787,-5.1787,-5.1787,-5.1787,-5.1787,-5.1787,-5.2045,-5.2808,-5.3262,-5.3774,-5.479,-5.5944,-5.681,-5.681,-5.681,-5.681,-5.681,-5.681,-5.681,-5.681,-5.681,-5.681,-5.681,-5.627,-5.5853,-5.5853,-5.5253,-5.493,-5.5037,-5.4945,-5.4622,-5.4052,-5.3375,-5.2975,-5.2867,-5.276,-5.2713,-5.2713,-5.2713,-5.2713,-5.2713,-5.2713,-5.2713,-4.6234,-4.6603,-4.6927,-4.8281,-4.9113,-4.9557,0.0,0.0,0.0,0.0,0.0,0.0,0.0,0.0,0.0,0.0,0.0,-5.2713,-5.2713,-5.3021,-5.3622,0.0,0.0,-5.4417,-5.543,-5.434,-5.3442,-5.302,-5.2609,-5.2193,-5.1841,-5.1787,-5.1787,-5.1787,-5.1787,-5.1787,-5.1787,-5.1787,-5.1787,-5.1787,-5.1787,-5.1787,-5.1787,-5.1787,-5.1787,-5.1787,-5.1787,-5.1787,-5.1787,-5.1787,-5.1787,-5.1787,-5.1787,-5.1787,-5.1787,-5.1787,-5.1787,-5.1787,-5.1787,-5.1787,-5.1787,-5.1787,-5.1787,-5.1787,-5.1787,-5.1787,-5.1787,-5.1787,-5.1787,-5.1787,-5.1787,-5.1787,-5.1787,-5.1787,-5.2153,-5.2662,-5.3509,-5.4061,-5.4669,-5.5797,-5.6457,-5.681,-5.681,-5.681,-5.681,-5.681,-5.681,-5.681,-5.681,-5.681,-5.6671,-5.6223,-5.5884,-5.5545,-5.5207,-5.4576,-5.4145,-5.4145,-5.4145,-5.3837,-5.3206,-5.2867,-5.2713,-5.2713,-5.2713,-5.2713,-5.2713,-5.2713,-5.2713,-5.2713,-5.2713,-5.2713,-4.6234,-4.6603,-4.6967,-4.8404,0.0,-4.9316,-4.9316,0.0,0.0,0.0,0.0,0.0,0.0,0.0,0.0,0.0,0.0,-5.2518,-5.2669,-5.2826,-5.3299,-5.4294,-5.3999,-5.4008,-5.4827,-5.36,-5.2716,-5.2716,-5.2153,-5.1787,-5.1787,-5.1787,-5.1787,-5.1787,-5.1787,-5.1787,-5.1787,-5.1787,-5.1787,-5.1787,-5.1787,-5.1787,-5.1787,-5.1787,-5.1787,-5.1787,-5.1787,-5.1787,-5.1787,-5.1787,-5.1787,-5.1787,-5.1787,-5.1787,-5.1787,-5.1787,-5.1787,-5.1787,-5.1787,-5.1787,-5.1787,-5.1787,-5.1787,-5.1787,-5.1787,-5.1787,-5.1787,-5.1787,-5.1787,-5.1787,-5.1787,-5.1787,-5.1787,-5.1787,-5.2247,-5.302,-5.4082,-5.472,-5.5426,-5.66,-5.681,-5.681,-5.681,-5.681,-5.681,-5.681,-5.681,-5.6748,-5.6579,-5.6563,-5.6286,-5.5545,-5.533,-5.4961,-5.4268,-5.3745,-5.3483,-5.3483,-5.3483,-5.3252,-5.2729,-5.2713,-5.2713,-5.2713,-5.2713,-5.2713,-5.2713,-5.2713,-5.2713,-5.2713,-5.2713,-5.2713,-4.6234,-4.6603,-4.7046,-4.8811,0.0,0.0,-4.9316,-4.99,0.0,0.0,0.0,0.0,0.0,0.0,0.0,0.0,0.0,-5.191,-5.2608,0.0,-5.1375,-5.3348,-5.2238,-5.1836,-5.3049,-5.2408,-5.1896,-5.1896,-5.1841,-5.1787,-5.1787,-5.1787,-5.1787,-5.1787,-5.1787,-5.1787,-5.1787,-5.1787,-5.1787,-5.1787,-5.1787,-5.1787,-5.1787,-5.1787,-5.1787,-5.1787,-5.1787,-5.1787,-5.1787,-5.1787,-5.1787,-5.1787,-5.1787,-5.1787,-5.1787,-5.1787,-5.1787,-5.1787,-5.1787,-5.1787,-5.1787,-5.1787,-5.1787,-5.1787,-5.1787,-5.1787,-5.1787,-5.1787,-5.1787,-5.1787,-5.1787,-5.1787,-5.1787,-5.1787,-5.1841,-5.2315,-5.3927,-5.4716,-5.5448,-5.6565,-5.681,-5.681,-5.681,-5.681,-5.681,-5.681,-5.681,-5.6563,-5.5853,-5.5776,-5.5515,-5.4821,-5.4237,-5.3591,-5.2914,-5.2806,-5.279,-5.279,-5.279,-5.276,-5.2713,-5.2713,-5.2713,-5.2713,-5.2713,-5.2713,-5.2713,-5.2713,-5.2713,-5.2713,-5.2713,-5.2713,-4.5711,-4.628,-4.6859,-4.796,0.0,0.0,0.0,0.0,0.0,0.0,0.0,0.0,0.0,0.0,0.0,0.0,-5.1499,-5.1137,-5.191,-5.1075,-5.098,-5.2575,-5.1779,-5.1586,-5.2891,-5.2247,-5.1787,-5.1787,-5.1787,-5.1787,-5.1787,-5.1787,-5.1787,-5.1787,-5.1787,-5.1787,-5.1787,-5.1787,-5.1787,-5.1787,-5.1787,-5.1787,-5.1787,-5.1787,-5.1787,-5.1787,-5.1787,-5.1787,-5.1787,-5.1787,-5.1787,-5.1787,-5.1787,-5.1787,-5.1787,-5.1787,-5.1787,-5.1787,-5.1787,-5.1787,-5.1787,-5.1787,-5.1787,-5.1787,-5.1787,-5.1787,-5.1787,-5.1787,-5.1787,-5.1787,-5.1787,-5.1787,-5.1787,-5.1787,-5.2193,-5.2876,-5.4031,-5.4854,-5.5621,-5.6631,-5.681,-5.681,-5.681,-5.681,-5.681,-5.681,-5.681,-5.6548,-5.5776,-5.5684,-5.5284,-5.4176,-5.3498,-5.2991,-5.2729,-5.2713,-5.2713,-5.2713,-5.2713,-5.2713,-5.2713,-5.2713,-5.2713,-5.2713,-5.2713,-5.2713,-5.2713,-5.2713,-5.2713,-5.2713,-5.2713,-5.2713,-4.5403,-4.608,-4.6797,0.0,0.0,0.0,0.0,0.0,0.0,0.0,0.0,0.0,0.0,0.0,0.0,0.0,-5.0872,-5.0316,-5.109,-5.0316,-5.0251,-5.1719,-5.1236,-5.1237,-5.248,-5.2139,-5.1787,-5.1787,-5.1787,-5.1787,-5.1787,-5.1787,-5.1787,-5.1787,-5.1787,-5.1787,-5.1787,-5.1787,-5.1787,-5.1787,-5.1787,-5.1787,-5.1787,-5.1787,-5.1787,-5.1787,-5.1787,-5.1787,-5.1787,-5.1787,-5.1787,-5.1787,-5.1787,-5.1787,-5.1787,-5.1787,-5.1787,-5.1787,-5.1787,-5.1787,-5.1787,-5.1787,-5.1787,-5.1787,-5.1787,-5.1787,-5.1787,-5.1787,-5.1787,-5.1787,-5.1787,-5.1787,-5.1787,-5.1787,-5.2193,-5.2929,-5.4045,-5.4713,-5.5471,-5.66,-5.681,-5.681,-5.681,-5.681,-5.681,-5.681,-5.6625,-5.6176,-5.5484,-5.5207,-5.4637,-5.3514,-5.2991,-5.2713,-5.2713,-5.2713,-5.2713,-5.2713,-5.2713,-5.2713,-5.2713,-5.2713,-5.2713,-5.2713,-5.2713,-5.2713,-5.2713,-5.2713,-5.2713,-5.2713,-5.2713,-5.2713,-4.5403,-4.6065,0.0,0.0,0.0,0.0,0.0,0.0,0.0,0.0,0.0,-4.871,-4.9388,0.0,0.0,-5.0279,-4.9786,-4.9556,-5.0302,-4.9065,-4.8861,-5.0837,-5.0441,-5.0491,-5.166,-5.1787,-5.1787,-5.1787,-5.1787,-5.1787,-5.1787,-5.1787,-5.1787,-5.1787,-5.1787,-5.1787,-5.1787,-5.1787,-5.1787,-5.1787,-5.1787,-5.1787,-5.1787,-5.1787,-5.1787,-5.1787,-5.1787,-5.1787,-5.1787,-5.1787,-5.1787,-5.1787,-5.1787,-5.1787,-5.1787,-5.1787,-5.1787,-5.1787,-5.1787,-5.1787,-5.1787,-5.1787,-5.1787,-5.1787,-5.1787,-5.1787,-5.1787,-5.1787,-5.1787,-5.1787,-5.1787,-5.1787,-5.1787,-5.1787,-5.1787,-5.2261,-5.3942,-5.4304,-5.4815,-5.6454,-5.681,-5.681,-5.681,-5.681,-5.681,-5.681,-5.6146,-5.5453,-5.476,-5.4129,-5.3452,-5.279,-5.2713,-5.2713,-5.2713,-5.2713,-5.2713,-5.2713,-5.2713,-5.2713,-5.2713,-5.2713,-5.2713,-5.2713,-5.2713,-5.2713,-5.2713,-5.2713,-5.2713,-5.2713,-5.2713,-5.2669,-4.4856,0.0,0.0,0.0,0.0,0.0,0.0,0.0,0.0,0.0,0.0,-4.8037,-4.867,0.0,0.0,-5.0125,-4.9311,-4.8745,-4.9493,-4.8745,-4.8621,-5.0157,-5.0156,-5.0491,-5.166,-5.1787,-5.1787,-5.1787,-5.1787,-5.1787,-5.1787,-5.1787,-5.1787,-5.1787,-5.1787,-5.1787,-5.1787,-5.1787,-5.1787,-5.1787,-5.1787,-5.1787,-5.1787,-5.1787,-5.1787,-5.1787,-5.1787,-5.1787,-5.1787,-5.1787,-5.1787,-5.1787,-5.1787,-5.1787,-5.1787,-5.1787,-5.1787,-5.1787,-5.1787,-5.1787,-5.1787,-5.1787,-5.1787,-5.1787,-5.1787,-5.1787,-5.1787,-5.1787,-5.1787,-5.1787,-5.1787,-5.1787,-5.1787,-5.1787,-5.1787,-5.2261,-5.3942,-5.4304,-5.4815,-5.6454,-5.681,-5.681,-5.681,-5.681,-5.681,-5.681,-5.6146,-5.5284,-5.4114,-5.3437,-5.2929,-5.2729,-5.2713,-5.2713,-5.2713,-5.2713,-5.2713,-5.2713,-5.2713,-5.2713,-5.2713,-5.2713,-5.2713,-5.2713,-5.2713,-5.2713,-5.2713,-5.2713,-5.2427,-5.191,-5.191,-5.1618,-4.461,0.0,0.0,0.0,0.0,0.0,0.0,0.0,0.0,0.0,0.0,-4.7688,-4.7968,-4.7592,0.0,-4.9236,-4.8695,-4.8272,-4.8745,-4.8409,-4.8485,-4.9469,-4.9858,-5.0393,-5.1337,-5.1646,-5.1787,-5.1787,-5.1787,-5.1787,-5.1787,-5.1787,-5.1787,-5.1787,-5.1787,-5.1787,-5.1787,-5.1787,-5.1787,-5.1787,-5.1787,-5.1787,-5.1787,-5.1787,-5.1787,-5.1787,-5.1787,-5.1787,-5.1787,-5.1787,-5.1787,-5.1787,-5.1787,-5.1787,-5.1787,-5.1787,-5.1787,-5.1787,-5.1787,-5.1787,-5.1787,-5.1787,-5.1787,-5.1787,-5.1787,-5.1787,-5.1787,-5.1787,-5.1787,-5.1787,-5.1787,-5.1787,-5.1787,-5.1787,-5.2045,-5.2677,-5.4031,-5.456,-5.517,-5.6552,-5.681,-5.681,-5.681,-5.681,-5.681,-5.681,-5.593,-5.4822,-5.3498,-5.296,-5.2713,-5.2713,-5.2713,-5.2713,-5.2713,-5.2713,-5.2713,-5.2713,-5.2713,-5.2713,-5.2713,-5.2713,-5.2713,-5.2713,-5.2713,-5.2713,-5.2713,-5.2382,-5.2048,-5.1587,-5.1278,-5.084,0.0,0.0,0.0,0.0,0.0,0.0,0.0,0.0,0.0,0.0,0.0,-4.7323,-4.7199,-4.7155,-4.7347,-4.8007,-4.812,-4.812,-4.812,-4.812,-4.8294,-4.8911,-4.9539,-5.0168,-5.0786,-5.1337,-5.1702,-5.1702,-5.1759,-5.1787,-5.1787,-5.1787,-5.1787,-5.1787,-5.1787,-5.1787,-5.1787,-5.1787,-5.1787,-5.1787,-5.1787,-5.1787,-5.1787,-5.1787,-5.1787,-5.1787,-5.1787,-5.1787,-5.1787,-5.1787,-5.1787,-5.1787,-5.1787,-5.1787,-5.1787,-5.1787,-5.1787,-5.1787,-5.1787,-5.1787,-5.1787,-5.1787,-5.1787,-5.1787,-5.1787,-5.1787,-5.1787,-5.1787,-5.1787,-5.1787,-5.1787,-5.1787,-5.1787,-5.1787,-5.2355,-5.3126,-5.4082,-5.4851,-5.567,-5.66,-5.681,-5.681,-5.681,-5.681,-5.6779,-5.664,-5.553,-5.4191,-5.2883,-5.2713,-5.2713,-5.2713,-5.2713,-5.2713,-5.2713,-5.2713,-5.2713,-5.2713,-5.2713,-5.2713,-5.2713,-5.2713,-5.2713,-5.2713,-5.2713,-5.2669,-5.2624,-5.191,-5.1541,-5.1386,-5.065,-5.0254,0.0,0.0,0.0,0.0,0.0,0.0,0.0,0.0,0.0,0.0,0.0,-4.6051,-4.6455,-4.6489,-4.6855,-4.7937,-4.812,-4.812,-4.812,-4.812,-4.8294,-4.8911,-4.9108,-4.9483,-5.0154,-5.0758,-5.107,-5.107,-5.152,-5.1787,-5.1787,-5.1787,-5.1787,-5.1787,-5.1787,-5.1787,-5.1787,-5.1787,-5.1787,-5.1787,-5.1787,-5.1787,-5.1787,-5.1787,-5.1787,-5.1787,-5.1787,-5.1787,-5.1787,-5.1787,-5.1787,-5.1787,-5.1787,-5.1787,-5.1787,-5.1787,-5.1787,-5.1787,-5.1787,-5.1787,-5.1787,-5.1787,-5.1787,-5.1787,-5.1787,-5.1787,-5.1787,-5.1787,-5.1787,-5.1787,-5.1787,-5.1787,-5.1787,-5.1787,-5.195,-5.2462,-5.3979,-5.4458,-5.5018,-5.6503,-5.681,-5.681,-5.681,-5.681,-5.644,-5.533,-5.4868,-5.4191,-5.2883,-5.2713,-5.2713,-5.2713,-5.2713,-5.2713,-5.2713,-5.2713,-5.2713,-5.2713,-5.2713,-5.2713,-5.2713,-5.2713,-5.2713,-5.2713,-5.2713,-5.2427,-5.1818,-5.168,-5.0996,-4.98,-4.9591,-4.9213,0.0,0.0,0.0,0.0,0.0,0.0,0.0,0.0,0.0,0.0,0.0,-4.5662,-4.62,-4.6293,-4.6701,-4.7923,-4.812,-4.812,-4.812,-4.812,-4.8195,-4.8518,-4.8813,-4.9122,-4.9483,-5.0073,-5.0491,-5.0491,-5.1,-5.1351,-5.1351,-5.1632,-5.1787,-5.1787,-5.1787,-5.1787,-5.1787,-5.1787,-5.1787,-5.1787,-5.1787,-5.1787,-5.1787,-5.1787,-5.1787,-5.1787,-5.1787,-5.1787,-5.1787,-5.1787,-5.1787,-5.1787,-5.1787,-5.1787,-5.1787,-5.1787,-5.1787,-5.1787,-5.1787,-5.1787,-5.1787,-5.1787,-5.1787,-5.1787,-5.1787,-5.1787,-5.1787,-5.1787,-5.1787,-5.1787,-5.1787,-5.1787,-5.1896,-5.2301,-5.2355,-5.2716,-5.4031,-5.4611,-5.527,-5.6552,-5.681,-5.681,-5.681,-5.681,-5.63,-5.4883,-5.4683,-5.4191,-5.2883,-5.2713,-5.2713,-5.2713,-5.2713,-5.2713,-5.2713,-5.2713,-5.2713,-5.2713,-5.2713,-5.2533,-5.22,-5.2185,-5.2185,-5.2185,-5.1803,-5.1418,-5.1028,-5.0665,-5.0091,-4.9311,-4.8881,-4.8509,0.0,0.0,0.0,0.0,0.0,0.0,0.0,0.0,0.0,0.0,0.0,-4.5495,-4.6011,-4.6223,-4.6659,-4.7783,-4.805,-4.812,-4.812,-4.812,-4.812,-4.812,-4.8518,-4.8827,-4.8827,-4.944,-4.9858,-4.9858,-5.0421,-5.0758,-5.0758,-5.1197,-5.152,-5.1632,-5.1632,-5.1674,-5.1787,-5.1787,-5.1787,-5.1787,-5.1787,-5.1787,-5.1787,-5.1787,-5.1787,-5.1787,-5.1787,-5.1787,-5.1787,-5.1787,-5.1787,-5.1787,-5.1787,-5.1787,-5.1787,-5.1787,-5.1787,-5.1787,-5.1787,-5.1787,-5.1787,-5.1787,-5.1787,-5.1787,-5.1787,-5.1787,-5.1787,-5.1787,-5.1787,-5.1787,-5.1787,-5.1787,-5.199,-5.2808,-5.3025,-5.3268,-5.4311,-5.5018,-5.5785,-5.6616,-5.681,-5.681,-5.681,-5.6702,-5.6161,-5.4868,-5.4591,-5.4068,-5.2867,-5.2713,-5.2713,-5.2713,-5.2713,-5.2713,-5.2713,-5.2713,-5.2669,-5.2518,-5.2518,-5.2185,-5.1433,-5.1293,-5.1199,-5.1199,-5.0698,-5.035,-5.0206,-4.9591,-4.9213,-4.9079,-4.8409,-4.812,0.0,0.0,0.0,0.0,0.0,0.0,0.0,0.0,0.0,0.0,-4.4504,-4.4715,-4.5324,-4.5914,-4.6518,-4.7221,-4.7783,-4.812,-4.812,-4.812,-4.812,-4.812,-4.8139,-4.8195,-4.8195,-4.8757,-4.9108,-4.9108,-4.9735,-5.0139,-5.0139,-5.021,-5.0505,-5.0972,-5.1,-5.1253,-5.1773,-5.1787,-5.1787,-5.1787,-5.1787,-5.1787,-5.1787,-5.1787,-5.1787,-5.1787,-5.1787,-5.1787,-5.1787,-5.1787,-5.1787,-5.1787,-5.1787,-5.1787,-5.1787,-5.1787,-5.1787,-5.1787,-5.1787,-5.1787,-5.1787,-5.1787,-5.1787,-5.1787,-5.1787,-5.1787,-5.1787,-5.1787,-5.1787,-5.1787,-5.1787,-5.1787,-5.199,-5.2808,-5.3009,-5.3419,-5.5005,-5.5421,-5.5785,-5.6616,-5.681,-5.681,-5.681,-5.6286,-5.5592,-5.4791,-5.4237,-5.3575,-5.2806,-5.2713,-5.2713,-5.2713,-5.2713,-5.2713,-5.2713,-5.2713,-5.2427,-5.1772,-5.1726,-5.1386,-5.0588,-4.9931,-4.9605,-4.9605,-5.011,-5.011,-4.9459,-4.936,-4.893,-4.8272,-4.817,-4.812,0.0,0.0,0.0,0.0,0.0,0.0,0.0,0.0,0.0,0.0,-4.4172,-4.4593,-4.5164,-4.5563,-4.6069,-4.7052,-4.7431,-4.7726,-4.8078,-4.812,-4.812,-4.812,-4.812,-4.812,-4.812,-4.8322,-4.8476,-4.8476,-4.9103,-4.944,-4.944,-4.9778,-5.0139,-5.0407,-5.0421,-5.0533,-5.0815,-5.0815,-5.093,-5.1281,-5.1632,-5.1787,-5.1787,-5.1787,-5.1787,-5.1787,-5.1787,-5.1787,-5.1787,-5.1787,-5.1787,-5.1787,-5.1787,-5.1787,-5.1787,-5.1787,-5.1787,-5.1787,-5.1787,-5.1787,-5.1787,-5.1787,-5.1787,-5.1787,-5.1787,-5.1787,-5.1787,-5.1787,-5.1787,-5.1787,-5.1787,-5.1787,-5.199,-5.2808,-5.299,-5.3473,-5.5165,-5.5521,-5.5785,-5.6616,-5.681,-5.681,-5.681,-5.6176,-5.5468,-5.4775,-5.4114,-5.3483,-5.2806,-5.2713,-5.2713,-5.2713,-5.2713,-5.2713,-5.2713,-5.2713,-5.2382,-5.1634,-5.1587,-5.1043,-4.9834,-4.9459,-4.9079,-4.8645,-4.893,-4.893,-4.8645,-4.8645,-4.8459,-4.812,-4.812,-4.812,0.0,0.0,0.0,0.0,0.0,0.0,0.0,0.0,0.0,0.0,-4.3989,-4.4551,-4.5015,-4.5178,-4.5633,-4.6574,-4.6996,-4.7375,-4.7825,-4.8021,-4.812,-4.812,-4.812,-4.812,-4.812,-4.812,-4.812,-4.812,-4.8504,-4.8757,-4.8757,-4.9244,-4.9567,-4.9721,-4.9721,-4.9858,-5.0013,-5.0013,-5.0238,-5.0702,-5.1112,-5.1323,-5.1323,-5.1323,-5.1323,-5.1337,-5.166,-5.1787,-5.1787,-5.1787,-5.1787,-5.1787,-5.1787,-5.1787,-5.1787,-5.1787,-5.1787,-5.1787,-5.1787,-5.1787,-5.1787,-5.1787,-5.1787,-5.1787,-5.1787,-5.1787,-5.1787,-5.1787,-5.1787,-5.1787,-5.1787,-5.1787,-5.199,-5.2808,-5.2996,-5.3448,-5.5125,-5.567,-5.6032,-5.6664,-5.681,-5.681,-5.681,-5.6038,-5.5284,-5.476,-5.396,-5.3283,-5.2775,-5.2713,-5.2713,-5.2713,-5.2713,-5.2624,-5.2427,-5.2427,-5.2002,-5.109,-5.1011,-5.0427,-4.9079,-4.898,-4.8695,-4.812,-4.812,-4.812,-4.812,-4.812,-4.812,-4.812,-4.812,-4.812,0.0,0.0,0.0,0.0,0.0,0.0,0.0,0.0,0.0,0.0,-4.3989,-4.4425,-4.4453,-4.4931,-4.5304,-4.5408,-4.642,-4.7221,-4.7249,-4.7754,-4.812,-4.812,-4.812,-4.812,-4.812,-4.812,-4.812,-4.812,-4.8111,-4.8125,-4.8125,-4.8204,-4.8434,-4.9009,-4.9037,-4.937,-4.9999,-5.0013,-5.0027,-5.0055,-5.0097,-5.0097,-5.0097,-5.0097,-5.0097,-5.0168,-5.1281,-5.1787,-5.1787,-5.1787,-5.1787,-5.1787,-5.1787,-5.1787,-5.1787,-5.1787,-5.1787,-5.1787,-5.1787,-5.1787,-5.1787,-5.1787,-5.1787,-5.1787,-5.1787,-5.1787,-5.1787,-5.1787,-5.1787,-5.1787,-5.1787,-5.1787,-5.199,-5.2808,-5.2996,-5.3448,-5.5125,-5.6145,-5.6761,-5.681,-5.681,-5.681,-5.681,-5.5669,-5.4729,-5.4683,-5.3606,-5.276,-5.2713,-5.2713,-5.2713,-5.2713,-5.2713,-5.2427,-5.1726,-5.168,-5.1011,-4.9508,-4.941,-4.9029,-4.8221,-4.817,-4.812,-4.812,-4.812,-4.812,-4.812,-4.812,-4.812,-4.812,-4.812,-4.812,0.0,0.0,0.0,0.0,0.0,0.0,0.0,0.0,0.0,0.0,-4.3399,-4.3947,-4.434,-4.4593,-4.4874,-4.522,-4.5703,-4.6153,-4.656,-4.715,-4.753,-4.753,-4.7881,-4.812,-4.812,-4.812,-4.812,-4.812,-4.812,-4.812,-4.812,-4.812,-4.8181,-4.8406,-4.8406,-4.8555,-4.878,-4.9174,-4.937,-4.937,-4.9764,-5.0013,-5.0013,-5.0013,-5.0013,-5.0027,-5.0477,-5.066,-5.066,-5.066,-5.0899,-5.1197,-5.1197,-5.145,-5.1787,-5.1787,-5.1787,-5.1787,-5.1787,-5.1787,-5.1787,-5.1787,-5.1787,-5.1787,-5.1787,-5.1787,-5.1787,-5.1787,-5.1787,-5.1787,-5.1787,-5.1787,-5.1896,-5.2153,-5.2619,-5.3145,-5.3794,-5.4582,-5.522,-5.522,-5.562,-5.5846,-5.542,-5.4998,-5.4389,-5.3477,-5.2595,-5.2002,-5.2002,-5.1557,-5.1403,-5.1956,-5.1511,-5.1122,-5.084,-5.084,-5.0412,-4.936,-4.9311,-4.893,-4.812,-4.812,-4.812,-4.812,-4.812,-4.812,-4.812,-4.812,-4.812,-4.812,-4.812,-4.812,0.0,0.0,0.0,0.0,0.0,0.0,0.0,0.0,0.0,-4.2444,-4.3076,-4.368,-4.4298,-4.4411,-4.4537,-4.4945,-4.515,-4.5478,-4.5914,-4.6504,-4.6897,-4.6897,-4.7263,-4.76,-4.7797,-4.7825,-4.7895,-4.8106,-4.812,-4.812,-4.812,-4.812,-4.812,-4.812,-4.812,-4.812,-4.812,-4.8476,-4.8687,-4.8687,-4.9145,-4.9342,-4.9342,-4.9342,-4.9342,-4.9342,-4.9342,-4.9581,-5.0013,-5.0013,-5.0252,-5.0618,-5.0618,-5.0871,-5.1183,-5.1183,-5.1183,-5.1183,-5.1183,-5.1309,-5.1478,-5.1478,-5.1618,-5.1787,-5.1787,-5.1787,-5.1787,-5.1787,-5.1787,-5.1787,-5.1787,-5.1787,-5.1787,-5.1787,-5.2193,-5.2609,-5.2609,-5.3495,-5.4304,-5.4304,-5.4788,-5.4954,-5.4271,-5.4059,-5.36,-5.2375,-5.1603,-5.1184,-5.1184,-5.0745,-5.0588,-5.1137,-5.073,-5.0302,-5.0061,-5.0013,-4.9688,-4.893,-4.8881,-4.8645,-4.812,-4.812,-4.812,-4.812,-4.812,-4.812,-4.812,-4.812,-4.812,-4.812,-4.812,-4.812,0.0,0.0,0.0,0.0,0.0,0.0,0.0,0.0,0.0,-4.2416,-4.3034,-4.3652,-4.427,-4.4397,-4.4411,-4.4411,-4.4916,-4.5248,-4.5248,-4.5858,-4.6265,-4.6265,-4.6279,-4.6532,-4.7122,-4.7178,-4.7431,-4.8021,-4.8078,-4.8092,-4.8092,-4.812,-4.812,-4.812,-4.812,-4.812,-4.812,-4.812,-4.812,-4.812,-4.812,-4.812,-4.812,-4.812,-4.812,-4.812,-4.812,-4.8808,-4.9957,-4.9957,-4.9971,-4.9985,-4.9985,-4.9999,-5.0013,-5.0013,-5.0013,-5.0013,-5.0013,-5.0393,-5.0899,-5.0899,-5.1253,-5.1745,-5.1759,-5.1759,-5.1773,-5.1773,-5.1787,-5.1787,-5.1787,-5.1787,-5.1787,-5.1787,-5.1773,-5.1759,-5.1759,-5.3059,-5.4193,-5.4208,-5.4315,-5.4181,-5.3438,-5.2879,-5.2315,-5.1438,-5.0795,-5.035,-5.035,-5.035,-5.035,-5.035,-5.035,-5.0061,-4.9311,-4.9262,-4.893,-4.817,-4.812,-4.812,-4.812,-4.812,-4.812,-4.812,-4.812,-4.812,-4.812,-4.812,-4.812,-4.812,-4.812,-4.812,-4.0702,0.0,0.0,0.0,0.0,0.0,0.0,0.0,0.0,-4.1755,-4.2388,-4.302,-4.3638,-4.4116,-4.4411,-4.4411,-4.4551,-4.4664,-4.4664,-4.5197,-4.5591,-4.5591,-4.5998,-4.6364,-4.6532,-4.6546,-4.6616,-4.6799,-4.7207,-4.7459,-4.7459,-4.7881,-4.812,-4.812,-4.812,-4.812,-4.812,-4.812,-4.812,-4.812,-4.812,-4.812,-4.812,-4.812,-4.812,-4.812,-4.812,-4.8316,-4.864,-4.864,-4.8893,-4.93,-4.93,-4.9567,-5.0013,-5.0013,-5.0013,-5.0013,-5.0013,-5.0125,-5.0266,-5.0266,-5.0379,-5.0604,-5.1,-5.1126,-5.1225,-5.166,-5.1787,-5.1787,-5.1787,-5.1787,-5.1787,-5.1787,-5.145,-5.1126,-5.1126,-5.1187,-5.1318,-5.176,-5.2318,-5.2413,-5.128,-5.1459,-5.1305,-5.0072,-4.9707,-4.9591,-4.9591,-4.9114,-4.898,-4.9542,-4.9065,-4.8645,-4.8459,-4.8409,-4.8358,-4.812,-4.812,-4.812,-4.812,-4.812,-4.812,-4.812,-4.812,-4.812,-4.812,-4.812,-4.812,-4.812,-4.812,-4.812,-4.0702,-4.0702,-4.0702,-4.0702,0.0,0.0,-4.0702,-4.0702,-4.087,0.0,-4.191,-4.2374,-4.2992,-4.3624,-4.4031,-4.4031,-4.4242,-4.4411,-4.4411,-4.472,-4.4945,-4.4945,-4.5282,-4.5619,-4.5872,-4.5886,-4.5998,-4.6279,-4.6631,-4.6827,-4.6827,-4.7417,-4.774,-4.774,-4.7993,-4.812,-4.812,-4.812,-4.812,-4.812,-4.812,-4.812,-4.812,-4.812,-4.812,-4.812,-4.812,-4.812,-4.812,-4.812,-4.8294,-4.8602,-4.8602,-4.8878,-4.9188,-4.9188,-4.9188,-4.9188,-4.9188,-4.9356,-4.9581,-4.9581,-4.975,-5.0083,-5.0435,-5.0533,-5.0618,-5.093,-5.1028,-5.1028,-5.1028,-5.1028,-5.1028,-5.1028,-5.08,-5.0533,-5.0533,-5.0266,-5.0111,-5.0477,-5.0938,-5.096,-4.9887,-5.0181,-5.011,-4.8987,-4.8781,-4.8781,-4.8781,-4.8409,-4.8272,-4.8745,-4.8358,-4.812,-4.812,-4.812,-4.812,-4.812,-4.812,-4.812,-4.812,-4.812,-4.812,-4.812,-4.812,-4.812,-4.812,-4.812,-4.812,-4.812,-4.812,-4.812,-4.0702,-4.0702,-4.0702,-4.0702,-4.0702,0.0,-4.0702,-4.0702,-4.0856,-4.1404,-4.1559,-4.1783,-4.2374,-4.2978,-4.3399,-4.3399,-4.3919,-4.4326,-4.4397,-4.4411,-4.4411,-4.4411,-4.4411,-4.4621,-4.5122,-4.5178,-4.5464,-4.604,-4.6153,-4.6223,-4.6293,-4.6813,-4.7108,-4.7108,-4.7712,-4.8021,-4.8021,-4.8092,-4.812,-4.812,-4.812,-4.812,-4.812,-4.812,-4.812,-4.812,-4.812,-4.812,-4.812,-4.812,-4.812,-4.812,-4.812,-4.812,-4.812,-4.812,-4.812,-4.812,-4.812,-4.8434,-4.8883,-4.8883,-4.93,-4.9816,-4.9886,-4.9914,-4.9914,-4.9985,-5.0013,-5.0013,-5.0013,-5.0013,-5.0013,-5.0013,-4.9957,-4.9914,-4.9914,-4.9858,-4.9802,-4.9802,-4.9962,-4.9845,-4.9038,-4.9065,-4.893,-4.8221,-4.812,-4.812,-4.812,-4.812,-4.812,-4.812,-4.812,-4.812,-4.812,-4.812,-4.812,-4.812,-4.812,-4.812,-4.812,-4.812,-4.812,-4.812,-4.812,-4.812,-4.812,-4.812,-4.812,-4.812,-4.812,-4.812,-4.0702,-4.0702,-4.0702,-4.0702,-4.0702,0.0,-4.0702,-4.0702,-4.073,0.0,-4.1264,-4.1657,-4.1783,-4.2331,-4.2767,-4.2767,-4.3273,-4.3849,-4.434,-4.4411,-4.4411,-4.4411,-4.4411,-4.4467,-4.4579,-4.4593,-4.4635,-4.4762,-4.524,-4.5745,-4.6265,-4.6406,-4.6476,-4.6476,-4.7066,-4.7389,-4.7389,-4.7881,-4.812,-4.812,-4.812,-4.812,-4.812,-4.812,-4.812,-4.812,-4.812,-4.812,-4.812,-4.812,-4.812,-4.812,-4.812,-4.812,-4.812,-4.812,-4.812,-4.812,-4.812,-4.8153,-4.8252,-4.8252,-4.8387,-4.8569,-4.9075,-4.923,-4.9328,-4.9872,-5.0013,-5.0013,-5.0013,-5.0013,-5.0013,-5.0013,-4.9581,-4.923,-4.923,-4.8822,-4.8485,-4.8485,-4.8883,-4.9019,-4.8387,-4.8306,-4.8272,-4.812,-4.812,-4.812,-4.812,-4.812,-4.812,-4.812,-4.812,-4.812,-4.812,-4.812,-4.812,-4.812,-4.812,-4.812,-4.812,-4.812,-4.812,-4.812,-4.812,-4.812,-4.812,-4.812,-4.812,-4.812,-4.812,-4.812,-4.0702,-4.0702,-4.0702,-4.0702,-4.0702,0.0,0.0,-4.0702,-4.0702,-4.0702,-4.094,-4.1151,-4.1151,-4.1671,-4.2093,-4.2093,-4.2626,-4.3146,-4.3455,-4.4031,-4.4411,-4.4411,-4.4411,-4.4411,-4.4411,-4.4411,-4.4411,-4.4411,-4.4692,-4.5015,-4.5338,-4.5647,-4.5816,-4.5816,-4.642,-4.6757,-4.6757,-4.7361,-4.767,-4.767,-4.7979,-4.812,-4.812,-4.812,-4.812,-4.812,-4.812,-4.812,-4.812,-4.812,-4.812,-4.812,-4.812,-4.812,-4.812,-4.812,-4.812,-4.812,-4.812,-4.812,-4.812,-4.812,-4.812,-4.8139,-4.8434,-4.8532,-4.8602,-4.8963,-4.9047,-4.9047,-4.9047,-4.9047,-4.9047,-4.9047,-4.8808,-4.8532,-4.8532,-4.8294,-4.812,-4.812,-4.8322,-4.8434,-4.8125,-4.812,-4.812,-4.812,-4.812,-4.812,-4.812,-4.812,-4.812,-4.812,-4.812,-4.812,-4.812,-4.812,-4.812,-4.812,-4.812,-4.812,-4.812,-4.812,-4.812,-4.812,-4.812,-4.812,-4.812,-4.812,-4.812,-4.812,-4.812,-4.812,-4.0702,-4.0702,-4.0702,-4.0702,-4.0702,-4.0702,0.0,0.0,0.0,-4.0702,-4.0702,0.0,0.0,0.0,0.0,-4.1446,0.0,0.0,0.0,-4.3357,0.0,-4.4059,-4.4172,-4.4242,-4.4242,-4.434,-4.4411,-4.4411,-4.4411,-4.4411,-4.4411,-4.4874,-4.5108,-4.5108,-4.5774,-4.6111,-4.6111,-4.6729,-4.7038,-4.7038,-4.7656,-4.7951,-4.7951,-4.8078,-4.812,-4.812,-4.812,-4.812,-4.812,-4.812,-4.812,-4.812,-4.812,-4.812,-4.812,-4.812,-4.812,-4.812,-4.812,-4.812,-4.812,-4.812,-4.812,-4.812,-4.812,-4.812,-4.812,-4.812,-4.812,-4.812,-4.812,-4.812,-4.812,-4.812,-4.812,-4.812,-4.812,-4.812,-4.812,-4.812,-4.812,-4.812,-4.812,-4.812,-4.812,-4.812,-4.812,-4.812,-4.812,-4.812,-4.812,-4.812,-4.812,-4.812,-4.812,-4.812,-4.812,-4.812,-4.812,-4.812,-4.812,-4.812,-4.812,-4.812,-4.812,-4.812,-4.812,-4.812,-4.812,-4.812,-4.812,-4.812,-4.0702,-4.0702,-4.0702,-4.0702,-4.0702,-4.0702,-4.0702,0.0,-4.0702,-4.0702,0.0,-4.0702,-4.0702,0.0,0.0,0.0,-4.132,0.0,-4.1727,-4.2331,-4.2781,-4.2781,-4.3273,-4.3596,-4.3596,-4.4102,-4.4411,-4.4411,-4.4411,-4.4411,-4.4411,-4.4467,-4.4509,-4.4509,-4.5113,-4.5388,-4.5388,-4.6069,-4.6392,-4.6406,-4.701,-4.7305,-4.7333,-4.7881,-4.812,-4.812,-4.812,-4.812,-4.812,-4.812,-4.812,-4.812,-4.812,-4.812,-4.812,-4.812,-4.812,-4.812,-4.812,-4.812,-4.812,-4.812,-4.812,-4.812,-4.812,-4.812,-4.812,-4.812,-4.812,-4.812,-4.812,-4.812,-4.812,-4.812,-4.812,-4.812,-4.812,-4.812,-4.812,-4.812,-4.812,-4.812,-4.812,-4.812,-4.812,-4.812,-4.812,-4.812,-4.812,-4.812,-4.812,-4.812,-4.812,-4.812,-4.812,-4.812,-4.812,-4.812,-4.812,-4.812,-4.812,-4.812,-4.812,-4.812,-4.812,-4.812,-4.812,-4.812,-4.812,-4.812,-4.812,-4.812,-4.0702,-4.0702,-4.0702,-4.0702,-4.0702,-4.0702,-4.0702,-4.0702,-4.0702,-4.0702,0.0,0.0,0.0,0.0,0.0,0.0,-4.0912,-4.1081,0.0,0.0,-4.1755,-4.25,-4.2809,-4.2964,-4.2964,-4.3202,-4.3497,-4.3849,-4.3877,-4.4031,-4.4397,-4.4411,-4.4411,-4.4411,-4.4664,-4.4804,-4.4804,-4.5422,-4.5731,-4.5745,-4.6378,-4.6687,-4.6701,-4.7305,-4.76,-4.7614,-4.7979,-4.812,-4.812,-4.812,-4.812,-4.812,-4.812,-4.812,-4.812,-4.812,-4.812,-4.812,-4.812,-4.812,-4.812,-4.812,-4.812,-4.812,-4.812,-4.812,-4.812,-4.812,-4.812,-4.812,-4.812,-4.812,-4.812,-4.812,-4.812,-4.812,-4.812,-4.812,-4.812,-4.812,-4.812,-4.812,-4.812,-4.812,-4.812,-4.812,-4.812,-4.812,-4.812,-4.812,-4.812,-4.812,-4.812,-4.812,-4.812,-4.812,-4.812,-4.812,-4.812,-4.812,-4.812,-4.812,-4.812,-4.812,-4.812,-4.812,-4.812,-4.812,-4.812,-4.812,-4.812,-4.812,-4.0702,-4.0702,-4.0702,-4.0702,-4.0702,-4.0702,-4.0702,-4.0702,-4.0702,-4.0702,-4.0702,0.0,0.0,0.0,-4.0702,-4.0702,0.0,-4.0702,-4.0702,-4.0702,0.0,-4.1952,-4.2219,-4.2388,-4.2556,-4.2584,-4.2767,-4.3216,-4.3399,-4.3694,-4.4144,-4.4326,-4.4411,-4.4411,-4.4411,-4.4411,-4.4411,-4.4846,-4.5071,-4.5085,-4.5717,-4.6026,-4.6055,-4.6673,-4.6954,-4.6996,-4.76,-4.7867,-4.7895,-4.805,-4.812,-4.812,-4.812,-4.812,-4.812,-4.812,-4.812,-4.812,-4.812,-4.812,-4.812,-4.812,-4.812,-4.812,-4.812,-4.812,-4.812,-4.812,-4.812,-4.812,-4.812,-4.812,-4.812,-4.812,-4.812,-4.812,-4.812,-4.812,-4.812,-4.812,-4.812,-4.812,-4.812,-4.812,-4.812,-4.812,-4.812,-4.812,-4.812,-4.812,-4.812,-4.812,-4.812,-4.812,-4.812,-4.812,-4.812,-4.812,-4.812,-4.812,-4.812,-4.812,-4.812,-4.812,-4.812,-4.812,-4.812,-4.812,-4.812,-4.812,-4.812,-4.812,-4.0702,-4.0702,-4.0702,-4.0702,-4.0702,-4.0702,-4.0702,-4.0702,-4.0702,-4.0702,-4.0702,-4.0702,-4.0702,-4.0702,-4.0702,-4.0702,-4.0702,0.0,0.0,-4.0702,-4.0716,-4.0758,-4.1278,-4.1896,-4.2514,-4.2584,-4.2584,-4.2612,-4.316,-4.3512,-4.3526,-4.4088,-4.4411,-4.4411,-4.4411,-4.4411,-4.4411,-4.4439,-4.4439,-4.4453,-4.5057,-4.5304,-4.5332,-4.6026,-4.6321,-4.635,-4.6982,-4.7235,-4.7277,-4.7881,-4.812,-4.812,-4.812,-4.812,-4.812,-4.812,-4.812,-4.812,-4.812,-4.812,-4.812,-4.812,-4.812,-4.812,-4.812,-4.812,-4.812,-4.812,-4.812,-4.812,-4.812,-4.812,-4.812,-4.812,-4.812,-4.812,-4.812,-4.812,-4.812,-4.812,-4.812,-4.812,-4.812,-4.812,-4.812,-4.812,-4.812,-4.812,-4.812,-4.812,-4.812,-4.812,-4.812,-4.812,-4.812,-4.812,-4.812,-4.812,-4.812,-4.812,-4.812,-4.812,-4.812,-4.812,-4.812,-4.812,-4.812,-4.812,-4.812,-4.812,-4.812,-4.812,-4.0702,-4.0702,-4.0702,-4.0702,-4.0702,-4.0702,-4.0702,-4.0702,-4.0702,-4.0702,-4.0702,-4.0702,-4.0702,-4.0702,-4.0702,-4.0702,-4.0702,-4.0702,0.0,-4.0702,-4.0702,-4.0702,-4.0884,-4.1095,-4.132,-4.1334,-4.1502,-4.191,-4.2135,-4.2444,-4.2865,-4.3469,-4.3807,-4.3807,-4.42,-4.4411,-4.4411,-4.4411,-4.4411,-4.4411,-4.4621,-4.472,-4.4748,-4.5366,-4.5647,-4.5689,-4.6321,-4.6827,-4.7235,-4.7431,-4.7754,-4.812,-4.812,-4.812,-4.812,-4.812,-4.812,-4.812,-4.812,-4.812,-4.812,-4.812,-4.812,-4.812,-4.812,-4.812,-4.812,-4.812,-4.812,-4.812,-4.812,-4.812,-4.812,-4.812,-4.812,-4.812,-4.812,-4.812,-4.812,-4.812,-4.812,-4.812,-4.812,-4.812,-4.812,-4.812,-4.812,-4.812,-4.812,-4.812,-4.812,-4.812,-4.812,-4.812,-4.812,-4.812,-4.812,-4.812,-4.812,-4.812,-4.812,-4.812,-4.812,-4.812,-4.812,-4.812,-4.812,-4.812,-4.812,-4.812,-4.7712,-4.774,-4.0702,-4.0702,-4.0702,-4.0702,-4.0702,-4.0702,-4.0702,-4.0702,-4.0702,-4.0702,-4.0702,-4.0702,-4.0702,-4.0702,-4.0702,-4.0702,-4.0702,-4.0702,0.0,-4.0702,-4.0702,-4.0702,-4.0702,-4.0702,-4.0702,-4.0702,-4.0856,-4.1264,-4.1488,-4.1797,-4.2219,-4.2823,-4.3273,-4.3483,-4.3877,-4.4186,-4.4411,-4.4411,-4.4411,-4.4411,-4.4411,-4.4411,-4.4425,-4.4818,-4.5001,-4.5043,-4.5675,-4.6181,-4.656,-4.6785,-4.7249,-4.7797,-4.7797,-4.7937,-4.812,-4.812,-4.812,-4.812,-4.812,-4.812,-4.812,-4.812,-4.812,-4.812,-4.812,-4.812,-4.8111,-4.8336,-4.8252,-4.8125,-4.8336,-4.8237,-4.812,-4.812,-4.812,-4.812,-4.812,-4.812,-4.812,-4.812,-4.812,-4.812,-4.812,-4.812,-4.812,-4.812,-4.812,-4.812,-4.812,-4.812,-4.812,-4.812,-4.812,-4.812,-4.812,-4.812,-4.812,-4.812,-4.812,-4.812,-4.812,-4.812,-4.8021,-4.7797,-4.8007,-4.8007,-4.7797,-4.8021,-4.8007,-4.7783,-4.7389,-4.7305]}]]